[[[{"header":{"parameterUnit":"kt","parameterCategory":2,"dx":1,"dy":1,"la1":29.587661999999998,"la2":31.0,"lo1":-88.76705300000003,"lo2":-86.6583820000003,"nx":115,"ny":88,"refTime":"2022-10-01T18:00:00:Z","depth":0,"parameterNumber":1,"parameterNumberName":"U-component_of_WINDS"},"data":[4.4501,4.4501,4.4501,4.4501,4.4501,4.4501,4.4501,4.4501,4.4501,4.4501,4.4553,4.4657,4.523,4.6296,4.6798,4.7317,4.7609,4.7765,4.7817,4.7817,4.7817,4.7817,4.7673,4.717,4.5849,4.4549,4.3221,4.1672,3.9849,3.8405,3.7379,3.674,3.4939,3.3879,3.311,3.1799,3.0283,2.9723,2.8855,2.8199,2.7731,2.7168,2.6122,2.6041,2.6041,2.6041,2.6041,2.6041,2.6041,2.6215,2.686,2.749,2.7731,2.765,2.7343,2.7182,2.686,2.6444,2.6444,2.6444,2.6928,2.8131,2.8381,2.891,2.936,2.9896,2.9947,3.0417,3.0048,2.9337,2.9967,3.1449,3.2509,3.4317,3.5416,3.5514,3.5354,3.4989,3.4744,3.5171,3.5915,3.7398,3.8996,4.0985,4.3075,4.4926,4.6708,4.8723,5.0057,5.16,5.2903,5.2867,5.2882,5.2002,5.0554,4.8888,4.7818,4.7381,4.7095,4.725,4.7483,4.7972,4.8282,4.8257,4.8282,4.8127,4.8282,4.8257,4.8567,4.8774,4.9262,4.9473,4.9451,4.9043,4.8285,4.4501,4.4501,4.4501,4.4501,4.4501,4.4501,4.4501,4.4501,4.4501,4.4501,4.4605,4.5032,4.5577,4.6296,4.6798,4.7343,4.7661,4.7791,4.7817,4.7817,4.7817,4.7673,4.7458,4.6857,4.5777,4.4187,4.1622,3.9212,3.6769,3.5131,3.3775,3.2903,3.1765,3.0672,3.0053,2.8921,2.8066,2.7745,2.7329,2.6605,2.6363,2.6135,2.6041,2.6041,2.6041,2.6041,2.6041,2.6041,2.6041,2.6122,2.6283,2.6524,2.6524,2.6605,2.6377,2.6377,2.6135,2.6041,2.6041,2.6054,2.6465,2.6865,2.6928,2.7281,2.7605,2.7733,2.7491,2.7401,2.7118,2.6941,2.7829,2.8804,2.9688,3.0795,3.1339,3.1819,3.1355,3.0922,3.0873,3.0873,3.2044,3.3406,3.512,3.7045,3.9073,4.0927,4.2882,4.5119,4.7154,4.8904,5.0125,5.0265,5.0049,4.9344,4.8366,4.6998,4.5817,4.5228,4.4526,4.4894,4.5205,4.5205,4.5439,4.5906,4.6217,4.5984,4.6061,4.6085,4.6349,4.6534,4.6809,4.6857,4.693,4.6694,4.6279,4.4501,4.4501,4.4501,4.4501,4.4501,4.4501,4.4501,4.4501,4.4501,4.4683,4.5006,4.5551,4.6149,4.672,4.7265,4.7661,4.7765,4.7817,4.7817,4.7817,4.7745,4.7602,4.6739,4.5777,4.491,4.293,3.987,3.6642,3.367,3.1829,3.0768,3.0226,2.8992,2.8262,2.8448,2.749,2.6699,2.6618,2.6377,2.6202,2.6122,2.6041,2.6041,2.6041,2.6041,2.6041,2.6041,2.6041,2.6041,2.6041,2.6041,2.6041,2.6041,2.6041,2.6041,2.6041,2.6041,2.6041,2.6041,2.6094,2.6239,2.6489,2.6661,2.6806,2.7043,2.6898,2.6661,2.6476,2.612,2.6054,2.686,2.7423,2.8227,2.8615,2.9176,2.9482,2.9242,2.8855,2.8709,2.8709,2.9185,3.0494,3.1866,3.3846,3.5021,3.6881,3.8972,4.109,4.4097,4.6416,4.6922,4.7186,4.6511,4.5803,4.5797,4.5095,4.408,4.2906,4.1786,4.1865,4.1843,4.2136,4.2292,4.2314,4.2549,4.3019,4.3332,4.3254,4.3544,4.3534,4.384,4.4014,4.4063,4.383,4.1833,4.4501,4.4501,4.4501,4.4501,4.4501,4.4501,4.4501,4.4527,4.4631,4.4928,4.5353,4.6071,4.6642,4.7032,4.748,4.7739,4.7817,4.7817,4.7817,4.7817,4.7817,4.7458,4.6523,4.4983,4.3148,4.0966,3.8018,3.4724,3.172,2.9253,2.7716,2.7987,2.7271,2.6803,2.7074,2.6699,2.6202,2.6215,2.6041,2.6041,2.6041,2.6041,2.6041,2.6041,2.6041,2.6041,2.6041,2.6041,2.6041,2.6041,2.6041,2.6041,2.6041,2.6041,2.6041,2.6041,2.6041,2.6041,2.6041,2.6067,2.6226,2.6315,2.646,2.6565,2.6552,2.6394,2.6318,2.616,2.6041,2.6041,2.6283,2.6699,2.7182,2.7343,2.765,2.7811,2.7972,2.757,2.7182,2.7101,2.7101,2.8029,2.9089,3.0241,3.1268,3.3146,3.5399,3.7668,4.0667,4.2054,4.2331,4.3196,4.2635,4.3062,4.3611,4.3297,4.2435,4.1336,3.9761,3.8952,3.8478,3.8301,3.8104,3.8458,3.8774,3.9169,3.9484,3.9838,4.0085,4.0129,4.0282,4.0182,4.0245,3.8712,3.6514,4.4501,4.4501,4.4501,4.4501,4.4501,4.4501,4.4527,4.4579,4.5006,4.525,4.5603,4.6486,4.698,4.7239,4.7558,4.7791,4.7817,4.7817,4.7817,4.7817,4.7817,4.717,4.5993,4.4235,4.1913,3.919,3.618,3.2948,3.0222,2.787,2.6397,2.6557,2.6023,2.6003,2.631,2.6122,2.6041,2.6041,2.6041,2.6041,2.6041,2.6041,2.6041,2.6041,2.6041,2.6041,2.6041,2.6041,2.6041,2.6041,2.6041,2.6041,2.6041,2.6041,2.6041,2.6041,2.6041,2.6041,2.6041,2.6041,2.6212,2.6357,2.6489,2.6407,2.6342,2.6278,2.6212,2.6067,2.6041,2.6041,2.6041,2.6377,2.6538,2.6699,2.6766,2.6846,2.6927,2.6766,2.6538,2.6538,2.6538,2.686,2.7839,2.8095,2.9207,3.0808,3.2736,3.4518,3.6224,3.6703,3.7703,3.913,3.9425,4.0056,4.0686,4.0764,4.0313,3.9366,3.7725,3.6676,3.5706,3.4894,3.4178,3.4496,3.5052,3.537,3.5816,3.6028,3.6372,3.6402,3.6293,3.6234,3.4895,3.2935,3.1342,4.4501,4.4501,4.4501,4.4501,4.4501,4.4501,4.4735,4.5006,4.5172,4.5785,4.6382,4.685,4.7239,4.748,4.7687,4.7817,4.7817,4.7817,4.7817,4.7817,4.7817,4.6739,4.5127,4.3221,4.0601,3.7357,3.4188,3.1165,2.88,2.6566,2.5356,2.5729,2.5776,2.5831,2.5962,2.6041,2.6041,2.6041,2.6041,2.6041,2.6041,2.6041,2.6041,2.6041,2.6041,2.6041,2.6041,2.6041,2.6041,2.6041,2.6041,2.6041,2.6041,2.6041,2.6041,2.6041,2.6041,2.6041,2.6041,2.6041,2.6107,2.6186,2.6212,2.6239,2.6173,2.6146,2.6094,2.6041,2.6041,2.6041,2.6041,2.6041,2.6041,2.6041,2.6041,2.6041,2.6041,2.6041,2.6041,2.6041,2.6122,2.6283,2.6363,2.6538,2.7248,2.8775,3.0459,3.1963,3.2761,3.2984,3.4036,3.5547,3.6322,3.6956,3.7371,3.7608,3.7292,3.6597,3.5185,3.3974,3.3017,3.2122,3.1308,3.1228,3.1483,3.1943,3.2587,3.2656,3.2776,3.2265,3.2138,3.1807,3.046,2.8741,2.832,4.4501,4.4501,4.4501,4.4501,4.4501,4.4501,4.4798,4.5302,4.5665,4.6157,4.7058,4.7213,4.7454,4.7791,4.7817,4.7817,4.7817,4.7817,4.7817,4.7673,4.7458,4.609,4.4332,4.2131,3.8971,3.5664,3.2428,2.9602,2.736,2.5744,2.4839,2.5288,2.5672,2.5897,2.5988,2.6041,2.6041,2.6041,2.6041,2.6041,2.6041,2.6041,2.6041,2.6041,2.6041,2.6041,2.6041,2.6041,2.6041,2.6041,2.6041,2.6041,2.6041,2.6041,2.6041,2.6041,2.6041,2.6041,2.6041,2.6041,2.6054,2.6081,2.6081,2.6054,2.6041,2.6054,2.6054,2.6041,2.6041,2.6041,2.6041,2.6041,2.6041,2.6041,2.6041,2.6041,2.6041,2.6041,2.6041,2.6041,2.6041,2.6202,2.6122,2.6202,2.6538,2.7262,2.8227,2.9337,3.0058,2.9898,3.0684,3.2362,3.3319,3.3877,3.4275,3.4735,3.4354,3.3894,3.2538,3.1339,3.0699,2.9898,2.8615,2.8293,2.868,2.9079,2.9523,2.9719,2.9997,2.9285,2.9007,2.7765,2.6728,2.6445,2.6102,4.4501,4.4501,4.4501,4.4501,4.4501,4.4501,4.4772,4.5353,4.646,4.698,4.711,4.7558,4.7739,4.7791,4.7817,4.7817,4.7817,4.7817,4.7817,4.7673,4.717,4.5705,4.3825,4.1184,3.7798,3.4188,3.0942,2.8333,2.5802,2.477,2.4772,2.5249,2.5698,2.5936,2.6015,2.6041,2.6041,2.6041,2.6041,2.6041,2.6041,2.6041,2.6041,2.6041,2.6041,2.6041,2.6041,2.6041,2.6041,2.6041,2.6041,2.6041,2.6041,2.6041,2.6041,2.6041,2.6041,2.6041,2.6041,2.6041,2.6041,2.6041,2.6041,2.6041,2.6041,2.6041,2.6041,2.6041,2.6041,2.6041,2.6041,2.6041,2.6041,2.6041,2.6041,2.6041,2.6041,2.6041,2.6041,2.6041,2.6041,2.6041,2.6041,2.6135,2.6377,2.686,2.7343,2.8133,2.8133,2.7811,2.8534,3.0043,3.0619,3.1099,3.1403,3.1867,3.1803,3.2043,3.0539,2.9497,2.8775,2.8133,2.749,2.6927,2.6524,2.6617,2.7411,2.7604,2.7431,2.7198,2.7085,2.6112,2.5558,2.5065,2.4977,4.4501,4.4501,4.4501,4.4501,4.4501,4.4501,4.4798,4.5473,4.6469,4.7265,4.7577,4.7687,4.7817,4.7817,4.7817,4.7817,4.7817,4.7817,4.7817,4.7745,4.7027,4.5344,4.3148,4.0287,3.6769,3.3244,3.0049,2.7436,2.5427,2.4676,2.472,2.5275,2.5751,2.5975,2.6041,2.6041,2.6041,2.6041,2.6041,2.6041,2.6041,2.6041,2.6041,2.6041,2.6041,2.6041,2.6041,2.6041,2.6041,2.6041,2.6041,2.6041,2.6041,2.6041,2.6041,2.6041,2.6041,2.6041,2.6041,2.6041,2.6041,2.6041,2.6041,2.6041,2.6041,2.6041,2.6041,2.6041,2.6041,2.6041,2.6041,2.6041,2.6041,2.6041,2.6041,2.6041,2.6041,2.6041,2.6041,2.6041,2.6041,2.6041,2.6041,2.6135,2.6215,2.6377,2.6538,2.6538,2.6618,2.6699,2.7182,2.8052,2.8615,2.9096,2.9402,2.9562,2.9723,2.9883,2.9176,2.8227,2.757,2.7193,2.6672,2.6122,2.6016,2.591,2.6025,2.582,2.5798,2.5586,2.5524,2.5168,2.4464,2.4451,2.4526,4.4501,4.4501,4.4501,4.4501,4.4501,4.4501,4.4969,4.5681,4.6434,4.7117,4.7687,4.7817,4.7817,4.7817,4.7817,4.7817,4.7817,4.7817,4.7817,4.7673,4.6667,4.491,4.2422,3.941,3.5885,3.2188,2.9453,2.7062,2.5127,2.4748,2.4775,2.5235,2.5698,2.5922,2.6028,2.6041,2.6041,2.6041,2.6041,2.6041,2.6041,2.6041,2.6041,2.6041,2.6041,2.6041,2.6041,2.6041,2.6041,2.6041,2.6041,2.6041,2.6041,2.6041,2.6041,2.6041,2.6041,2.6041,2.6041,2.6041,2.6041,2.6041,2.6041,2.6041,2.6041,2.6041,2.6041,2.6041,2.6041,2.6041,2.6041,2.6041,2.6041,2.6041,2.6041,2.6041,2.6041,2.6041,2.6041,2.6041,2.6041,2.6041,2.6041,2.6122,2.6135,2.6215,2.6296,2.6215,2.6215,2.6215,2.6215,2.686,2.7101,2.7423,2.749,2.7731,2.7892,2.8052,2.757,2.7007,2.6778,2.639,2.5976,2.5897,2.5712,2.55,2.5366,2.5205,2.4706,2.4432,2.4668,2.4539,2.4301,2.4301,2.4301,4.4501,4.4501,4.4501,4.4501,4.4501,4.4501,4.5152,4.614,4.6348,4.6876,4.7739,4.7817,4.7817,4.7817,4.7817,4.7817,4.7817,4.7817,4.7745,4.7242,4.6137,4.409,4.1453,3.829,3.4557,3.0851,2.8392,2.6388,2.4451,2.4538,2.4841,2.5288,2.5645,2.5843,2.6028,2.6041,2.6041,2.6041,2.6041,2.6041,2.6041,2.6041,2.6041,2.6041,2.6041,2.6041,2.6041,2.6041,2.6041,2.6041,2.6041,2.6041,2.6041,2.6041,2.6041,2.6041,2.6041,2.6041,2.6041,2.6041,2.6041,2.6041,2.6041,2.6041,2.6041,2.6041,2.6041,2.6041,2.6041,2.6041,2.6041,2.6041,2.6041,2.6041,2.6041,2.6041,2.6041,2.6041,2.6041,2.6041,2.6041,2.6041,2.6041,2.6041,2.6041,2.6041,2.6041,2.6041,2.6041,2.6122,2.6135,2.6457,2.6457,2.6685,2.6685,2.6444,2.6283,2.6122,2.6189,2.631,2.6096,2.591,2.5791,2.5659,2.5395,2.5158,2.4947,2.4749,2.4564,2.438,2.4314,2.4301,2.4301,2.4301,2.4301,4.4501,4.4501,4.4501,4.4501,4.4501,4.4501,4.5178,4.614,4.6296,4.685,4.7791,4.7817,4.7817,4.7817,4.7817,4.7817,4.7817,4.7745,4.7458,4.6595,4.5199,4.3003,3.9995,3.6695,3.3152,2.99,2.7451,2.5802,2.4314,2.4528,2.4907,2.5341,2.5738,2.5883,2.6041,2.6041,2.6041,2.6041,2.6041,2.6041,2.6041,2.6041,2.6041,2.6041,2.6041,2.6041,2.6041,2.6041,2.6041,2.6041,2.6041,2.6041,2.6041,2.6041,2.6041,2.6041,2.6041,2.6041,2.6041,2.6054,2.6054,2.6081,2.6067,2.6041,2.6041,2.6041,2.6041,2.6041,2.6041,2.6041,2.6041,2.6041,2.6041,2.6041,2.6041,2.6041,2.6041,2.6041,2.6041,2.6041,2.6041,2.6041,2.6041,2.6041,2.6041,2.6041,2.6041,2.6041,2.6041,2.6041,2.6041,2.6041,2.6041,2.6041,2.6041,2.6108,2.6176,2.6015,2.5949,2.5922,2.5804,2.5804,2.5685,2.5434,2.5118,2.4894,2.4722,2.4577,2.4446,2.4327,2.4314,2.4301,2.4301,2.4301,2.4301,4.4501,4.4475,4.4267,4.4163,4.4123,4.4397,4.5178,4.6166,4.6296,4.685,4.7817,4.7817,4.7817,4.7817,4.7817,4.7817,4.7817,4.753,4.6883,4.5849,4.4114,4.1622,3.8531,3.5148,3.1743,2.8856,2.6627,2.5052,2.4429,2.4762,2.509,2.5381,2.5764,2.5975,2.6041,2.6041,2.6041,2.6041,2.6041,2.6041,2.6041,2.6041,2.6041,2.6041,2.6041,2.6041,2.6041,2.6041,2.6041,2.6041,2.6041,2.6041,2.6041,2.6041,2.6041,2.6041,2.6041,2.612,2.6199,2.6239,2.6226,2.6199,2.6107,2.6041,2.6041,2.6041,2.6041,2.6041,2.6041,2.6041,2.6041,2.6041,2.6041,2.6041,2.6041,2.6041,2.6041,2.6041,2.6041,2.6041,2.6041,2.6041,2.6041,2.6041,2.6041,2.6041,2.6041,2.6041,2.6041,2.6041,2.6041,2.6041,2.6041,2.6041,2.6041,2.6028,2.6001,2.5922,2.5843,2.5764,2.5579,2.5526,2.5303,2.5052,2.4802,2.4657,2.4525,2.4393,2.434,2.4314,2.4301,2.4301,2.4301,2.4301,2.4301,4.4423,4.4345,4.3785,4.3604,4.3564,4.4201,4.5178,4.627,4.6296,4.685,4.7739,4.7817,4.7817,4.7817,4.7817,4.7745,4.7673,4.6857,4.5921,4.4621,4.2713,3.9849,3.6602,3.3578,3.0702,2.781,2.6027,2.4902,2.4584,2.4918,2.5183,2.5354,2.5777,2.5975,2.6041,2.6041,2.6041,2.6041,2.6041,2.6041,2.6041,2.6041,2.6041,2.6041,2.6041,2.6041,2.6041,2.6041,2.6041,2.6041,2.6041,2.6041,2.6041,2.6041,2.6041,2.6067,2.6094,2.6252,2.6371,2.6423,2.6381,2.6397,2.6252,2.6041,2.6041,2.6041,2.6041,2.6041,2.6041,2.6041,2.6041,2.6041,2.6041,2.6041,2.6041,2.6041,2.6041,2.6041,2.6041,2.6041,2.6041,2.6041,2.6041,2.6041,2.6041,2.6041,2.6041,2.6041,2.6041,2.6041,2.6041,2.6041,2.6041,2.6028,2.6028,2.5949,2.5856,2.5777,2.5725,2.5513,2.5302,2.5039,2.483,2.4709,2.4591,2.4446,2.4301,2.4314,2.4327,2.4301,2.4301,2.4301,2.4301,2.4301,2.4301,4.3552,4.3253,4.3474,4.3578,4.363,4.4201,4.5178,4.6218,4.627,4.685,4.7584,4.7817,4.7817,4.7817,4.7745,4.7386,4.6857,4.6137,4.4669,4.2617,4.0265,3.7337,3.4169,3.1371,2.8706,2.6027,2.5202,2.4601,2.4561,2.4841,2.5275,2.5302,2.5764,2.6001,2.6041,2.6041,2.6041,2.6041,2.6041,2.6041,2.6041,2.6041,2.6041,2.6041,2.6041,2.6041,2.6041,2.6041,2.6041,2.6041,2.6041,2.6041,2.6041,2.6041,2.6041,2.6081,2.6171,2.6397,2.645,2.6489,2.6489,2.6397,2.6239,2.6041,2.6041,2.6041,2.6041,2.6041,2.6041,2.6041,2.6041,2.6041,2.6041,2.6041,2.6041,2.6041,2.6041,2.6041,2.6041,2.6041,2.6041,2.6041,2.6041,2.6041,2.6041,2.6041,2.6041,2.6041,2.6041,2.6041,2.6041,2.6041,2.6028,2.5975,2.5936,2.583,2.5791,2.5685,2.5487,2.5288,2.496,2.4749,2.4541,2.4512,2.4393,2.4301,2.4301,2.4301,2.4301,2.4301,2.4301,2.4301,2.4301,2.4301,2.4301,4.2669,4.2473,4.2785,4.298,4.3266,4.3811,4.4746,4.5707,4.6166,4.679,4.7447,4.7687,4.7817,4.7745,4.7458,4.6883,4.5921,4.4525,4.2689,4.036,3.763,3.4779,3.1669,2.9154,2.7376,2.5652,2.4751,2.4301,2.4485,2.4841,2.5275,2.5354,2.5738,2.6041,2.6041,2.6041,2.6041,2.6041,2.6041,2.6041,2.6041,2.6041,2.6041,2.6041,2.6041,2.6041,2.6041,2.6041,2.6041,2.6041,2.6041,2.6041,2.6041,2.6041,2.6054,2.6081,2.625,2.6394,2.6489,2.6489,2.6489,2.6423,2.6239,2.6054,2.6041,2.6041,2.6041,2.6041,2.6041,2.6041,2.6041,2.6041,2.6041,2.6041,2.6041,2.6041,2.6041,2.6041,2.6041,2.6041,2.6041,2.6041,2.6041,2.6041,2.6041,2.6041,2.6041,2.6041,2.6041,2.6041,2.6041,2.6041,2.5988,2.5896,2.5777,2.5619,2.554,2.5263,2.5078,2.492,2.4683,2.4551,2.4472,2.4353,2.4314,2.4301,2.4301,2.4301,2.4301,2.4301,2.4301,2.4301,2.4301,2.4301,2.4301,4.1926,4.1874,4.1952,4.2291,4.2799,4.337,4.4187,4.5302,4.6036,4.6582,4.7162,4.7629,4.7817,4.7673,4.7098,4.609,4.4549,4.264,4.0214,3.763,3.4853,3.2206,2.9767,2.7466,2.6177,2.5202,2.4526,2.4376,2.4432,2.4984,2.5262,2.5381,2.5804,2.6041,2.6041,2.6041,2.6041,2.6041,2.6041,2.6041,2.6041,2.6041,2.6041,2.6041,2.6041,2.6041,2.6041,2.6041,2.6041,2.6041,2.6041,2.6041,2.6041,2.6041,2.6041,2.6133,2.6292,2.6394,2.6342,2.6381,2.6489,2.6344,2.6186,2.6081,2.6041,2.6041,2.6041,2.6041,2.6041,2.6041,2.6041,2.6041,2.6041,2.6041,2.6041,2.6041,2.6041,2.6041,2.6041,2.6041,2.6041,2.6041,2.6041,2.6041,2.6041,2.6041,2.6041,2.6041,2.6041,2.6041,2.6041,2.5988,2.5936,2.5711,2.5553,2.5316,2.5118,2.4817,2.4672,2.463,2.4498,2.4406,2.4314,2.4327,2.4314,2.4301,2.4301,2.4301,2.4301,2.4301,2.4301,2.4301,2.4301,2.4301,2.4301,4.1692,4.124,4.177,4.2291,4.2773,4.3344,4.4187,4.525,4.5941,4.6486,4.7084,4.7532,4.7719,4.7602,4.6739,4.5127,4.2472,4.0214,3.7577,3.4779,3.2206,2.9767,2.775,2.6192,2.5366,2.4676,2.4376,2.4301,2.4419,2.4984,2.5222,2.5421,2.5764,2.6041,2.6041,2.6041,2.6041,2.6041,2.6041,2.6041,2.6041,2.6041,2.6041,2.6041,2.6041,2.6041,2.6041,2.6041,2.6041,2.6041,2.6041,2.6041,2.6041,2.6041,2.6041,2.6094,2.6331,2.6236,2.6278,2.6318,2.6357,2.6199,2.6094,2.6054,2.6041,2.6041,2.6041,2.6041,2.6041,2.6041,2.6041,2.6041,2.6041,2.6041,2.6041,2.6041,2.6041,2.6041,2.6041,2.6041,2.6041,2.6041,2.6041,2.6041,2.6041,2.6041,2.6041,2.6041,2.6041,2.6041,2.5936,2.5896,2.5764,2.5593,2.5263,2.5026,2.4788,2.4554,2.4551,2.4459,2.438,2.4301,2.4301,2.4314,2.4301,2.4301,2.4301,2.4301,2.4301,2.4301,2.4301,2.4301,2.4301,2.4301,2.4301,4.1292,4.1059,4.1344,4.203,4.2695,4.3058,4.3837,4.4902,4.5525,4.5889,4.6178,4.6647,4.6843,4.6544,4.5874,4.3583,4.036,3.7577,3.4705,3.2131,2.9692,2.7526,2.6177,2.5352,2.4676,2.4451,2.4301,2.4301,2.4366,2.4984,2.5235,2.5407,2.5764,2.6041,2.6041,2.6041,2.6041,2.6041,2.6041,2.6041,2.6041,2.6041,2.6041,2.6041,2.6041,2.6041,2.6041,2.6041,2.6041,2.6041,2.6041,2.6041,2.6041,2.6041,2.6041,2.6067,2.6173,2.6186,2.6133,2.616,2.6226,2.6067,2.6054,2.6041,2.6041,2.6041,2.6041,2.6041,2.6041,2.6041,2.6041,2.6041,2.6041,2.6041,2.6041,2.6041,2.6041,2.6041,2.6041,2.6041,2.6041,2.6041,2.6041,2.6041,2.6041,2.6041,2.6041,2.6041,2.6041,2.5936,2.5844,2.5764,2.554,2.5276,2.4999,2.4736,2.4485,2.4459,2.4406,2.4353,2.4301,2.4301,2.4301,2.4301,2.4301,2.4301,2.4301,2.4301,2.4301,2.4301,2.4301,2.4301,2.4301,2.4301,2.4301,4.1033,4.1033,4.1033,4.1708,4.2643,4.2619,4.3227,4.4302,4.473,4.4833,4.4794,4.5252,4.5234,4.4644,4.3969,4.1694,3.8311,3.4927,3.1983,2.9618,2.775,2.6252,2.5352,2.4676,2.4376,2.4301,2.4301,2.4301,2.4432,2.4868,2.5249,2.5394,2.5764,2.6041,2.6041,2.6041,2.6041,2.6041,2.6041,2.6041,2.6041,2.6041,2.6041,2.6041,2.6041,2.6041,2.6041,2.6041,2.6041,2.6041,2.6041,2.6041,2.6041,2.6041,2.6041,2.6054,2.6081,2.6094,2.6054,2.6067,2.6054,2.6041,2.6041,2.6041,2.6041,2.6041,2.6041,2.6041,2.6041,2.6041,2.6041,2.6041,2.6041,2.6041,2.6041,2.6041,2.6041,2.6041,2.6041,2.6041,2.6041,2.6041,2.6041,2.6041,2.6041,2.6041,2.5949,2.587,2.5843,2.5725,2.5645,2.5513,2.5368,2.5013,2.4685,2.4512,2.434,2.4353,2.434,2.4301,2.4301,2.4301,2.4301,2.4301,2.4301,2.4301,2.4301,2.4301,2.4301,2.4301,2.4301,2.4301,2.4301,2.4301,2.4301,4.1033,4.1033,4.1033,4.1682,4.2579,4.2041,4.2394,4.3409,4.3502,4.3198,4.3257,4.3651,4.304,4.2234,4.0921,3.9337,3.6622,3.3096,2.9842,2.7601,2.6177,2.5352,2.4751,2.4451,2.4301,2.4301,2.4301,2.4301,2.4459,2.4931,2.5222,2.5368,2.5764,2.6001,2.6041,2.6041,2.6041,2.6041,2.6041,2.6041,2.6041,2.6041,2.6041,2.6041,2.6041,2.6041,2.6041,2.6041,2.6041,2.6041,2.6041,2.6041,2.6041,2.6041,2.6041,2.6041,2.6041,2.6041,2.6041,2.6041,2.6041,2.6041,2.6041,2.6041,2.6041,2.6041,2.6041,2.6041,2.6041,2.6041,2.6041,2.6041,2.6041,2.6041,2.6041,2.6041,2.6041,2.6041,2.6041,2.6041,2.6041,2.6041,2.6041,2.5988,2.6028,2.6015,2.5804,2.5725,2.558,2.5553,2.5407,2.5262,2.4973,2.4709,2.463,2.4446,2.4327,2.4327,2.4314,2.4301,2.4301,2.4301,2.4301,2.4301,2.4301,2.4301,2.4301,2.4301,2.4301,2.4301,2.4301,2.4301,2.4301,2.4301,2.4156,3.9924,3.9986,3.9924,4.0279,4.0666,4.0631,4.0875,4.1189,4.1074,4.0849,4.0534,3.9927,3.957,3.9025,3.7158,3.5837,3.4132,3.124,2.8348,2.6327,2.5202,2.4676,2.4301,2.4301,2.4301,2.4301,2.4301,2.4301,2.4406,2.4722,2.5052,2.5302,2.5606,2.5883,2.6028,2.6041,2.6041,2.6041,2.6041,2.6041,2.6041,2.6041,2.6041,2.6041,2.6041,2.6041,2.6041,2.6041,2.6041,2.6041,2.6041,2.6041,2.6041,2.6041,2.6041,2.6041,2.6041,2.6041,2.6041,2.6041,2.6028,2.6041,2.6041,2.6041,2.6041,2.6041,2.6041,2.6041,2.6041,2.6041,2.6041,2.6041,2.6041,2.6041,2.6041,2.6041,2.6041,2.6041,2.6041,2.6041,2.6015,2.6015,2.5962,2.5843,2.583,2.5764,2.5645,2.546,2.5394,2.5158,2.5103,2.4894,2.467,2.4538,2.4498,2.4432,2.4314,2.4301,2.4301,2.4301,2.4301,2.4301,2.4301,2.4301,2.4301,2.4301,2.4301,2.4301,2.4301,2.4287,2.4274,2.4287,2.4248,2.4103,2.3945,3.865,3.865,3.844,3.8443,3.8482,3.8645,3.8642,3.8469,3.8234,3.7863,3.7295,3.6182,3.5553,3.527,3.3247,3.1918,3.1201,2.916,2.7391,2.54,2.4676,2.4376,2.4301,2.4301,2.4301,2.4301,2.4301,2.4301,2.4366,2.4617,2.4894,2.5275,2.5579,2.5831,2.6001,2.6041,2.6041,2.6041,2.6041,2.6041,2.6041,2.6041,2.6041,2.6041,2.6041,2.6041,2.6041,2.6041,2.6041,2.6041,2.6041,2.6041,2.6041,2.6041,2.6041,2.6028,2.6001,2.5936,2.5936,2.5856,2.5856,2.5817,2.5936,2.5949,2.5949,2.5988,2.6041,2.6041,2.6041,2.6041,2.6041,2.6041,2.6041,2.6041,2.6041,2.6041,2.6041,2.5988,2.5936,2.5909,2.587,2.5856,2.583,2.5606,2.5619,2.5566,2.5407,2.5222,2.4986,2.4828,2.4736,2.4657,2.4485,2.4419,2.4393,2.4353,2.4301,2.4301,2.4301,2.4301,2.4301,2.4301,2.4301,2.4301,2.4301,2.4301,2.4301,2.4301,2.4287,2.4261,2.4248,2.4182,2.4076,2.3879,2.372,3.7322,3.726,3.6552,3.6579,3.6807,3.6168,3.5648,3.5545,3.5133,3.4558,3.37,3.289,3.2008,3.105,2.9613,2.8508,2.796,2.6488,2.5536,2.514,2.4711,2.4261,2.4261,2.4274,2.4301,2.4301,2.4301,2.4301,2.4366,2.4501,2.4881,2.5222,2.5513,2.5817,2.5936,2.6041,2.6041,2.6041,2.6041,2.6041,2.6041,2.6041,2.6041,2.6041,2.6041,2.6041,2.6041,2.6041,2.596,2.6041,2.6041,2.6041,2.6041,2.6041,2.6041,2.6015,2.583,2.5685,2.5725,2.5566,2.5394,2.546,2.5632,2.5645,2.5778,2.587,2.5988,2.5988,2.6041,2.6041,2.6041,2.6041,2.6041,2.6041,2.6015,2.6028,2.6001,2.5817,2.5738,2.5725,2.55,2.5394,2.5354,2.5328,2.5315,2.5197,2.4999,2.4841,2.4722,2.4591,2.4498,2.4432,2.438,2.4301,2.4301,2.4301,2.4301,2.4301,2.4301,2.4301,2.4301,2.4301,2.4301,2.4301,2.4301,2.4301,2.4287,2.4261,2.4261,2.4208,2.401,2.3958,2.3905,2.3668,2.3483,3.424,3.4178,3.3466,3.3068,3.279,3.232,3.1818,3.1387,3.0903,3.0354,2.9828,2.8929,2.832,2.8022,2.6542,2.586,2.5716,2.4724,2.428,2.4355,2.4132,2.405,2.4103,2.4248,2.4301,2.4301,2.4301,2.4301,2.4327,2.4344,2.4643,2.4947,2.5224,2.5579,2.5777,2.5936,2.6041,2.6041,2.6041,2.6041,2.6041,2.6041,2.6041,2.6041,2.6041,2.6041,2.6041,2.6041,2.5719,2.5396,2.5719,2.6041,2.6041,2.6041,2.6041,2.6041,2.5764,2.5685,2.5632,2.5434,2.5275,2.5288,2.5354,2.5434,2.55,2.5698,2.587,2.5817,2.5962,2.6028,2.6041,2.6041,2.6041,2.5988,2.5751,2.5632,2.5632,2.5448,2.546,2.5421,2.5354,2.5275,2.5275,2.5116,2.496,2.4881,2.4683,2.4577,2.4512,2.4393,2.4314,2.434,2.4314,2.4301,2.4301,2.4301,2.4301,2.4301,2.4301,2.4301,2.4301,2.4301,2.4301,2.4287,2.4301,2.4287,2.4208,2.4169,2.4129,2.3984,2.3847,2.3714,2.3562,2.3391,2.3233,3.1012,3.0885,3.0064,2.9367,2.8915,2.8701,2.8232,2.762,2.7183,2.704,2.6511,2.556,2.55,2.5443,2.4333,2.3903,2.4064,2.3613,2.3423,2.3529,2.3615,2.3654,2.372,2.3997,2.4221,2.4301,2.4301,2.4301,2.4301,2.4314,2.4472,2.4672,2.4986,2.5224,2.5579,2.5777,2.5922,2.5936,2.5988,2.596,2.5719,2.5638,2.5651,2.5477,2.5316,2.5316,2.5396,2.5396,2.4913,2.3863,2.4509,2.5074,2.5248,2.5477,2.5519,2.5495,2.5487,2.5553,2.5407,2.5169,2.5037,2.5037,2.509,2.5065,2.5078,2.5407,2.5553,2.5619,2.5751,2.5804,2.5804,2.579,2.5804,2.5764,2.5566,2.5315,2.5302,2.5222,2.5156,2.513,2.4986,2.4997,2.4868,2.4749,2.463,2.4604,2.4472,2.4327,2.4366,2.4301,2.4301,2.4301,2.4301,2.4301,2.4301,2.4301,2.4301,2.4301,2.4261,2.4248,2.4235,2.4235,2.4248,2.4195,2.4116,2.3997,2.4058,2.3945,2.3952,2.3847,2.3635,2.3338,2.3246,2.3101,2.2929,2.818,2.8053,2.6716,2.6253,2.6111,2.5858,2.5401,2.4907,2.4996,2.4747,2.4203,2.3734,2.3562,2.3426,2.3051,2.2872,2.2982,2.2937,2.314,2.3233,2.3193,2.3056,2.3134,2.3628,2.3997,2.4235,2.4287,2.4301,2.4301,2.4301,2.437,2.462,2.4699,2.492,2.521,2.5487,2.5553,2.5513,2.5723,2.5345,2.4646,2.4646,2.4335,2.3702,2.3633,2.3621,2.354,2.3217,2.2571,2.1357,2.1842,2.2571,2.354,2.4348,2.444,2.4308,2.4911,2.4885,2.4751,2.4465,2.4357,2.4459,2.4643,2.4685,2.4738,2.5026,2.5288,2.5288,2.5354,2.5381,2.5381,2.5394,2.5341,2.5315,2.513,2.509,2.5196,2.4868,2.4683,2.4657,2.4512,2.4353,2.434,2.4327,2.4287,2.4287,2.4261,2.4208,2.4221,2.4221,2.4274,2.4301,2.4301,2.4301,2.4301,2.4301,2.4301,2.4261,2.4169,2.4142,2.4116,2.4129,2.4129,2.3997,2.3865,2.3807,2.3714,2.3562,2.3496,2.343,2.3285,2.3101,2.2929,2.2758,2.2573,2.5455,2.5327,2.4416,2.4047,2.3998,2.3395,2.3001,2.2785,2.269,2.25,2.2289,2.228,2.2348,2.2334,2.2315,2.2362,2.2468,2.2666,2.2692,2.2696,2.2666,2.2779,2.2964,2.3174,2.3562,2.3984,2.4221,2.4301,2.4301,2.4301,2.4353,2.4498,2.458,2.4738,2.492,2.4729,2.4558,2.4414,2.3714,2.3111,2.2775,2.2331,2.2009,2.182,2.1762,2.1842,2.16,1.9645,1.851,1.851,1.8672,1.9564,2.1001,2.1688,2.2296,2.26,2.2778,2.3096,2.3817,2.3626,2.3774,2.4239,2.4406,2.4472,2.4525,2.4736,2.4907,2.4947,2.5065,2.5275,2.5262,2.5262,2.4997,2.4459,2.4323,2.4177,2.4164,2.4058,2.4019,2.3958,2.3865,2.386,2.3833,2.3833,2.376,2.376,2.3847,2.3873,2.3997,2.4037,2.4169,2.4248,2.4221,2.4208,2.4261,2.4261,2.4274,2.3993,2.3788,2.3648,2.3744,2.3744,2.3879,2.3734,2.3615,2.3556,2.3437,2.3272,2.3167,2.3048,2.2885,2.274,2.2692,2.2494,2.227,2.3277,2.3148,2.2506,2.2249,2.2185,2.167,2.149,2.144,2.1174,2.1084,2.1136,2.1439,2.1571,2.1637,2.1929,2.2074,2.2019,2.2204,2.2257,2.2204,2.2362,2.2586,2.2766,2.2885,2.3219,2.3615,2.3984,2.4208,2.4287,2.4301,2.4301,2.4327,2.4512,2.4452,2.416,2.3661,2.31,2.2569,2.1459,2.054,2.0058,1.9604,1.9198,1.9116,1.9194,1.854,1.7519,1.5348,1.4382,1.4769,1.5145,1.6065,1.7636,1.8529,1.9267,1.9875,2.0138,2.1033,2.2012,2.2289,2.2645,2.3398,2.3774,2.3925,2.3951,2.4347,2.4591,2.4554,2.4788,2.4997,2.4971,2.4931,2.4548,2.3826,2.3648,2.3582,2.3622,2.3569,2.3516,2.3516,2.3516,2.3516,2.3529,2.3542,2.3569,2.3569,2.3556,2.3609,2.3767,2.382,2.3852,2.3984,2.401,2.3958,2.3979,2.3939,2.3496,2.2916,2.2667,2.2531,2.2932,2.3138,2.333,2.3397,2.3364,2.3331,2.3199,2.3022,2.2916,2.2727,2.2661,2.2613,2.2468,2.227,2.2046,2.1799,2.1734,2.1091,2.0962,2.1026,2.0975,2.0833,2.0897,2.0795,2.0886,2.086,2.1084,2.1215,2.1268,2.1571,2.1757,2.1744,2.1797,2.1861,2.2059,2.2125,2.2296,2.2586,2.274,2.2898,2.3042,2.3615,2.401,2.4248,2.4287,2.4301,2.4301,2.4252,2.3826,2.3122,2.2394,2.1439,2.0,1.9062,1.802,1.6784,1.6392,1.6016,1.5507,1.5231,1.3807,1.0759,1.0449,1.0381,1.0544,1.1185,1.2438,1.3857,1.4836,1.5542,1.6194,1.7591,1.8704,1.9377,2.0091,2.0749,2.1741,2.257,2.2871,2.3022,2.3574,2.3951,2.4013,2.419,2.4239,2.4212,2.3866,2.3505,2.3496,2.3161,2.3121,2.3305,2.3417,2.343,2.3233,2.3134,2.3417,2.3417,2.3121,2.3023,2.3108,2.3121,2.3148,2.314,2.3153,2.3384,2.3424,2.331,2.3155,2.3343,2.3384,2.244,2.1628,2.1254,2.111,2.141,2.1829,2.196,2.2163,2.2133,2.2484,2.2355,2.2753,2.2635,2.2573,2.2547,2.2468,2.2244,2.2006,2.1715,2.1091,2.1091,2.0897,2.0833,2.0833,2.0833,2.0833,2.0833,2.0833,2.0833,2.0846,2.0874,2.0913,2.0966,2.1215,2.1255,2.1149,2.1268,2.1399,2.1504,2.1756,2.2074,2.227,2.2375,2.2613,2.2911,2.3134,2.3549,2.3984,2.4208,2.4301,2.4225,2.3774,2.3097,2.213,2.046,1.8745,1.6995,1.5291,1.4002,1.309,1.2475,1.2053,1.1664,0.9593,0.7832,0.6874,0.6847,0.6876,0.6876,0.7135,0.786,0.9035,1.0205,1.1212,1.2009,1.2923,1.4135,1.5909,1.6894,1.7954,1.9314,2.0221,2.0911,2.1364,2.1665,2.2022,2.2511,2.2908,2.3178,2.2779,2.1786,2.123,2.1576,2.1547,2.1435,2.1435,2.1435,2.1377,2.146,2.146,2.1448,2.1423,2.1435,2.1448,2.1423,2.1435,2.1522,2.1658,2.172,2.1685,2.1955,2.1882,2.187,2.1411,2.0381,1.9266,1.9112,1.8844,1.9002,1.9323,1.983,2.0184,2.0467,2.0855,2.1274,2.1716,2.225,2.2342,2.2323,2.2132,2.1985,2.1818,2.1662,2.136,2.0136,2.0136,2.0394,2.0459,2.0446,2.0717,2.0833,2.0833,2.0833,2.0833,2.0833,2.0833,2.0833,2.0846,2.0979,2.0952,2.0808,2.0966,2.1123,2.1163,2.1466,2.1703,2.1967,2.2099,2.2362,2.2609,2.2832,2.3154,2.3483,2.3393,2.3371,2.3297,2.2645,2.1665,2.0458,1.8493,1.6212,1.4013,1.2038,1.0399,0.9473,0.8636,0.7973,0.7405,0.5268,0.4168,0.4168,0.4197,0.4293,0.4293,0.4233,0.4546,0.5148,0.6298,0.7362,0.8169,0.88,1.0131,1.2101,1.3171,1.4384,1.6279,1.7207,1.7902,1.8728,1.9339,1.9765,2.0224,2.0927,2.0607,1.9825,1.9112,1.8871,1.9346,1.9515,1.9576,1.9553,1.9553,1.9553,1.9553,1.9624,1.9553,1.9588,1.9553,1.9553,1.9553,1.9553,1.9633,1.9759,1.9793,1.9839,1.9999,2.0045,1.9758,1.8895,1.7187,1.6466,1.6466,1.6466,1.6485,1.6847,1.736,1.7933,1.8236,1.8778,1.9214,1.9775,2.0312,2.1052,2.1086,2.1462,2.1278,2.1263,2.1162,2.0992,1.8715,1.8844,1.9414,1.962,1.9749,2.0317,2.0639,2.0575,2.0639,2.0704,2.0704,2.0717,2.0704,2.0524,2.0601,2.0717,2.0717,2.0666,2.0731,2.0966,2.0992,2.128,2.169,2.1899,2.1975,2.1981,2.2245,2.2475,2.2461,2.1784,2.1556,2.1769,2.0866,1.9606,1.8039,1.6288,1.3861,1.0892,0.9224,0.7625,0.6028,0.5104,0.4034,0.2895,0.2438,0.2437,0.2438,0.2438,0.244,0.2438,0.2464,0.2389,0.2521,0.3156,0.3926,0.4726,0.5479,0.662,0.8207,0.9184,1.0547,1.266,1.3591,1.4483,1.5301,1.6444,1.7213,1.7602,1.7708,1.6961,1.5156,1.5518,1.6335,1.6616,1.7309,1.766,1.78,1.766,1.7871,1.78,1.766,1.766,1.773,1.7871,1.773,1.773,1.7811,1.7751,1.7701,1.7751,1.7761,1.7782,1.7571,1.6837,1.416,1.3377,1.3439,1.3439,1.3439,1.358,1.4144,1.4707,1.5411,1.5964,1.6268,1.6818,1.7699,1.8416,1.8909,1.9657,1.9898,2.0453,2.0402,2.0511,2.0483,1.6751,1.728,1.7474,1.7862,1.8304,1.8497,1.8832,1.9297,1.9361,1.9684,2.0059,2.0136,1.9543,1.8703,1.9155,1.9426,1.9426,1.9361,1.941,1.9524,1.9472,1.9684,1.9905,2.0016,2.0237,2.0537,2.0224,2.0149,2.0402,1.9882,1.9727,1.9712,1.8476,1.7057,1.5505,1.3322,1.0664,0.7621,0.6409,0.5113,0.3579,0.2026,0.1116,0.0743,0.0669,0.0669,0.0669,0.0743,0.0669,0.0,0.0745,0.0672,0.067,0.0896,0.1419,0.2156,0.2972,0.3939,0.4905,0.5719,0.6754,0.7941,0.9323,1.0407,1.1291,1.222,1.3173,1.3777,1.2212,1.1131,1.0681,1.1458,1.2445,1.3502,1.3854,1.4214,1.4699,1.4848,1.4839,1.4857,1.4831,1.4778,1.4848,1.4857,1.4848,1.4848,1.4848,1.4857,1.4857,1.4848,1.4848,1.4778,1.4778,1.358,1.1047,1.0335,1.0341,1.0335,1.0329,1.0464,1.0546,1.1175,1.1803,1.2196,1.2996,1.3668,1.4423,1.5197,1.5878,1.7108,1.8093,1.8729,1.93,1.9652,1.9753,1.4148,1.4612,1.4881,1.539,1.6038,1.6621,1.7139,1.7603,1.7862,1.8186,1.8444,1.7668,1.7139,1.687,1.728,1.7733,1.8003,1.7992,1.7992,1.8003,1.7938,1.8071,1.8208,1.8311,1.8371,1.8394,1.8127,1.787,1.7591,1.7396,1.7072,1.6666,1.5438,1.4006,1.2447,1.0432,0.8113,0.5564,0.4514,0.3083,0.1577,0.0519,0.0,0.0,0.0,0.0,0.0,0.0,0.0,0.0,0.0,0.0,0.0,0.0,0.0218,0.0657,0.1169,0.183,0.2574,0.3089,0.3824,0.5,0.5856,0.6711,0.7589,0.8348,0.8765,0.8764,0.7214,0.6414,0.7171,0.7871,0.8636,0.947,1.0235,1.0721,1.1214,1.1492,1.1735,1.165,1.1727,1.1741,1.1733,1.1753,1.1747,1.1747,1.1747,1.1747,1.1747,1.1747,1.1753,1.1676,1.0561,0.915,0.7715,0.7224,0.7203,0.7248,0.7235,0.7209,0.7258,0.7593,0.7941,0.8284,0.892,0.9776,1.093,1.1668,1.2536,1.3717,1.4983,1.636,1.7823,1.8388,1.8701,1.0971,1.1166,1.1694,1.241,1.3183,1.4408,1.5056,1.538,1.5974,1.6178,1.552,1.4027,1.3897,1.4927,1.5047,1.551,1.6103,1.6298,1.6308,1.6308,1.6298,1.6308,1.6274,1.6449,1.6297,1.5837,1.583,1.5197,1.4259,1.4281,1.3802,1.2787,1.18,1.0569,0.9119,0.765,0.611,0.4491,0.3003,0.1463,0.0,-0.0146,-0.0147,-0.0147,0.0,-0.0073,0.0,0.0,0.0,0.0,0.0,0.0,0.0,0.0,0.0,0.0,0.0,0.0289,0.0948,0.1023,0.175,0.3141,0.332,0.3658,0.4375,0.4823,0.4463,0.3572,0.3209,0.3482,0.4155,0.491,0.5533,0.5878,0.6689,0.7417,0.7635,0.8096,0.8551,0.8521,0.8526,0.8567,0.8633,0.8723,0.8663,0.8643,0.8638,0.8708,0.8708,0.8643,0.8643,0.8011,0.6289,0.4672,0.4494,0.4306,0.4486,0.4449,0.4369,0.4492,0.4531,0.458,0.4498,0.5488,0.5656,0.6178,0.7187,0.798,0.8926,1.0233,1.1549,1.296,1.5114,1.6617,1.7402,0.7319,0.8298,0.8499,0.895,0.9596,1.0378,1.1361,1.2402,1.2532,1.1426,0.9733,1.0059,1.045,1.0834,1.1947,1.2467,1.2728,1.3191,1.3451,1.3386,1.3386,1.3451,1.3395,1.2898,1.2799,1.2728,1.1804,1.1219,1.1085,1.0544,0.987,0.9066,0.7854,0.6768,0.5879,0.493,0.3679,0.1982,0.0567,-0.0418,-0.0916,-0.1409,-0.1416,-0.0929,-0.0921,-0.0634,0.0,0.0,0.0,0.0,0.0,0.0,0.0,0.0,0.0,0.0,0.0,0.0069,0.0277,0.0278,0.0416,0.0832,0.1384,0.1796,0.1933,0.1569,0.1084,0.0886,0.136,0.1702,0.204,0.2655,0.3272,0.3749,0.4157,0.4558,0.5105,0.5377,0.5455,0.5465,0.5472,0.5547,0.5491,0.5498,0.5573,0.5642,0.5498,0.5495,0.5495,0.5498,0.5017,0.4122,0.3294,0.2813,0.2817,0.2824,0.2818,0.2812,0.2807,0.28,0.2793,0.2791,0.2929,0.3054,0.3442,0.3943,0.4229,0.4912,0.5827,0.7107,0.839,0.9834,1.1923,1.4313,1.6184,0.4707,0.5429,0.5821,0.6148,0.6471,0.6862,0.7646,0.8554,0.7972,0.6993,0.6083,0.6671,0.7189,0.7515,0.8298,0.8945,0.9602,1.0,1.0254,1.058,1.058,1.0384,1.013,0.9798,0.9318,0.8789,0.8113,0.7662,0.7426,0.7069,0.6702,0.6329,0.5254,0.4377,0.3695,0.2915,0.2133,0.1137,-0.0207,-0.1163,-0.1585,-0.1929,-0.1936,-0.1672,-0.1592,-0.1378,-0.1034,-0.0958,-0.0951,-0.0878,-0.0873,-0.0867,-0.0862,-0.0593,-0.0461,-0.0464,-0.0199,0.0,0.0,0.0,0.0,0.0,0.0402,0.0666,0.0658,0.0261,0.0,0.0,0.0328,0.0593,0.0662,0.0994,0.1396,0.1739,0.2075,0.2409,0.2809,0.3143,0.3419,0.3438,0.3375,0.3451,0.3472,0.3474,0.3474,0.3542,0.3476,0.3544,0.3544,0.2901,0.2144,0.0,0.0,0.0,0.1294,0.1227,0.1291,0.1284,0.1283,0.128,0.1272,0.1271,0.1268,0.1327,0.1515,0.1892,0.2254,0.2551,0.3292,0.4513,0.5798,0.7163,0.8884,1.1376,1.3238,0.2669,0.287,0.3522,0.3918,0.3993,0.3993,0.4318,0.4642,0.3269,0.3075,0.3797,0.3928,0.4252,0.4838,0.4903,0.5622,0.6802,0.6867,0.7254,0.0,0.7771,0.745,0.6932,0.6802,0.6144,0.5037,0.4962,0.4597,0.4074,0.412,0.4079,0.3951,0.334,0.2592,0.184,0.1227,0.0883,0.0809,-0.0473,-0.1489,-0.2102,-0.2309,-0.2381,-0.2318,-0.2313,-0.2244,-0.2176,-0.2099,-0.2084,-0.1926,-0.1967,-0.1941,-0.1917,-0.139,-0.1135,-0.1081,-0.0573,-0.0256,0.0,0.0,-0.0194,-0.0129,0.0,0.0,0.0,0.0,0.0,0.0,0.0,0.0,0.0,0.0,0.0,0.0,0.052,0.0845,0.0911,0.1496,0.1829,0.1848,0.1856,0.1867,0.195,0.1959,0.2028,0.2031,0.1958,0.2031,0.182,0.0863,0.0,0.0,0.0,0.0,0.0,0.0,0.0,0.0,0.0,0.0,0.0,0.0,0.0,0.0,0.0,0.0,0.0754,0.0812,0.1492,0.2597,0.3723,0.495,0.6377,0.8044,0.9557,0.0382,0.135,0.1479,0.1942,0.2552,0.2552,0.2617,0.255,0.0,0.0,0.0,0.2225,0.2552,0.2746,0.3271,0.3664,0.3925,0.4579,0.4906,0.4972,0.5037,0.4972,0.4775,0.4187,0.3729,0.3468,0.295,0.2642,0.2537,0.2545,0.2292,0.177,0.1636,0.0886,-0.0341,-0.0545,-0.06,-0.0639,-0.1481,-0.2019,-0.2174,-0.3267,-0.364,-0.3067,-0.3103,-0.2749,-0.2144,-0.2033,-0.1941,-0.1936,-0.1973,-0.1955,-0.195,-0.1883,-0.1686,-0.161,-0.1547,-0.1417,-0.1403,-0.1463,-0.1219,-0.0671,-0.0247,0.0,0.0,0.0,0.0,0.0,0.0,0.0,0.0,0.0,0.0,0.0,0.0126,0.0,0.0,0.0316,0.0,0.0381,0.0,0.0,0.0,0.0,0.0395,0.0,0.0,0.0395,0.0395,0.0,0.0,0.0,0.0,0.0,0.0,0.0,0.0,0.0,0.0,0.0,0.0,0.0,0.0,0.0,0.0,0.0,0.0,0.0,0.0422,0.1189,0.1934,0.2952,0.461,0.5294,0.588,-0.1385,0.0,-0.0127,0.0192,0.0,0.0906,0.0709,0.0,-0.032,-0.0128,0.0513,0.0897,0.1025,0.109,0.1419,0.1748,0.2007,0.2413,0.2813,0.3206,0.3206,0.301,0.2552,0.2225,0.1832,0.157,0.1243,0.105,0.1057,0.1058,0.0859,0.0595,0.0264,-0.0263,-0.0982,-0.1308,-0.1484,-0.1505,-0.1516,-0.1787,-0.2135,-0.3129,-0.3555,-0.3202,0.0,0.0,0.0,0.0,0.0,0.0,0.0,0.0,0.0,0.0,0.0,-0.3442,-0.3119,-0.2909,-0.2808,-0.2575,-0.2175,-0.1602,-0.0871,-0.0405,-0.0392,-0.0114,0.0,0.0,0.0,0.0,0.0,0.0,0.0,0.0,0.0,0.0,0.0,0.0,0.0,0.0,0.0,0.0,0.0,0.0,0.0,0.0,0.0,0.0,0.0,0.0,0.0,0.0,0.0,0.0,0.0,0.0,0.0,0.0,0.0,0.0,0.0,0.0,0.0,0.0,0.0,0.0,0.0,0.0,0.0117,0.0464,0.0979,0.1768,0.2462,0.2883,0.3409,-0.3029,-0.2362,-0.1742,-0.1382,-0.1338,-0.0951,-0.1448,-0.2371,-0.1629,-0.1067,-0.0502,-0.0314,-0.0126,0.0,0.0,0.0319,0.0766,0.0775,0.1105,0.1759,0.1694,0.1436,0.0785,0.0785,0.0523,0.0,0.0,0.0,0.0,0.0,-0.0065,-0.0191,-0.0702,-0.1079,-0.138,0.0,0.0,0.0,-0.131,-0.1256,-0.1906,-0.2611,-0.2951,-0.2918,-0.3466,0.0,-0.3698,-0.3713,-0.3662,-0.3682,-0.3731,0.0,0.0,0.0,0.0,0.0,0.0,0.0,0.0,0.0,0.0,0.0,-0.1887,-0.1393,-0.1315,-0.0593,-0.0111,0.0,0.0,0.0,0.0,0.0,0.0,0.0,0.0,0.0,0.0,0.0,0.0,0.0,0.0,0.0,0.0,0.0,0.0,0.0,0.0,0.0,0.0,0.0,0.0,0.0,0.0,0.0,0.0,0.0,0.0,0.0,0.0,0.0,0.0,0.0,0.0,0.0,0.0,0.0,0.0,0.0,0.0,0.0,0.0455,0.0732,0.0658,0.1144,0.1853,-0.4648,-0.4099,-0.3557,-0.3064,-0.2696,-0.3545,-0.4014,-0.4061,-0.3054,-0.2633,-0.2508,-0.138,-0.0565,0.0,0.0,0.0063,0.0126,0.0126,0.019,0.0257,0.0257,0.0194,0.0131,0.0,0.0065,0.0,0.0,0.0,0.0,0.0,-0.0252,-0.0818,-0.0944,-0.1571,-0.2692,-0.3909,-0.362,-0.1992,-0.1346,-0.1048,-0.1173,-0.1873,-0.2265,-0.2268,-0.2327,-0.2389,-0.2387,-0.2294,-0.246,-0.3003,-0.3029,-0.3525,-0.4644,-0.4919,-0.5401,0.0,-0.649,0.0,0.0,0.0,0.0,0.0,0.0,0.0,0.0,-0.1718,-0.0519,0.0,0.0,0.0,0.0,0.0,0.0,0.0,0.0,0.0,0.0,0.0,0.0,0.0,0.0,0.0,0.0,0.0,0.0,0.0,0.0,0.0,0.0,0.0,0.0,0.0,0.0,0.0,0.0,0.0,0.0,0.0,0.0,0.0,0.0,0.0,0.0,0.0,0.0,0.0,0.0,0.0,0.0,0.0,0.0,0.0,0.0,0.06,0.0927,-0.7315,-0.6361,-0.5778,-0.5994,-0.6789,-0.7153,-0.688,-0.6124,-0.515,-0.4531,-0.4114,-0.2506,-0.1493,-0.0956,-0.0963,-0.0967,-0.0908,-0.0615,-0.0435,-0.0438,-0.0126,0.0,0.0,0.0,0.0,0.0,0.0,0.0,0.0,-0.0378,-0.0687,-0.0992,-0.2044,-0.338,-0.4832,-0.5064,-0.4459,-0.3058,-0.2356,-0.1887,-0.1534,-0.2221,-0.2611,-0.2567,-0.2921,-0.3095,-0.3095,-0.3054,-0.3152,-0.3453,-0.3762,-0.4348,-0.5436,-0.6048,-0.6923,0.0,0.0,0.0,0.0,0.0,0.0,0.0,0.0,0.0,0.0,0.0,-0.1901,-0.1252,-0.0725,-0.0425,-0.0429,-0.0161,0.0,0.0,0.0,0.0,0.0,0.0,0.0,0.0,0.0,0.0,0.0,0.0,0.0,0.0,0.0,0.0,0.0,0.0,0.0,0.0,0.0,0.0,0.0,0.0,0.0,0.0,0.0,0.0,0.0,0.0,0.0,0.0,0.0,0.0,0.0,0.0,0.0,0.0,0.0,0.0,0.0,0.0164,0.0382,-0.9902,-0.8974,-0.8591,-0.9184,-1.0419,-1.0043,-0.9308,-0.8344,-0.7228,-0.6445,-0.588,-0.4072,-0.305,-0.2589,-0.245,-0.2293,-0.2181,-0.1659,-0.1266,-0.1155,-0.0493,-0.0187,-0.0188,-0.0063,0.0,0.0,-0.0125,-0.025,-0.025,-0.0992,-0.1535,-0.1882,-0.39,-0.5553,-0.661,-0.6276,-0.5397,-0.4052,-0.3592,-0.3017,-0.2257,-0.2806,-0.3128,-0.3161,-0.3618,-0.3903,-0.3901,-0.385,-0.3932,-0.4035,-0.4482,-0.5184,-0.6286,-0.7072,0.0,0.0,0.0,0.0,0.0,0.0,0.0,0.0,0.0,-0.6382,-0.5254,0.0,-0.3437,0.0,-0.1657,-0.1102,-0.1118,-0.061,0.0,0.0,-0.0306,-0.0307,-0.0313,-0.0261,-0.021,-0.0214,-0.0108,0.0,0.0,0.0,0.0,0.0,0.0,0.0,0.0,0.0,0.0,0.0,0.0,0.0,0.0,0.0,0.0,0.0,0.0,0.0,0.0,0.0,0.0,0.0,0.0,0.0,0.0,0.0,0.0,0.0,0.0,0.0,0.0,0.0,0.0,-1.2084,-1.2102,-1.2392,-1.2365,-1.2021,-1.1271,-1.0865,-1.0683,-0.8939,-0.8136,-0.7979,-0.6178,-0.531,-0.5126,-0.4546,0.0,-0.3488,-0.3274,-0.2861,-0.2355,-0.1256,-0.0795,-0.0878,-0.0314,0.0,0.0,-0.0619,-0.0922,-0.0982,-0.2032,-0.3123,-0.4227,-0.6744,-0.7855,-0.7502,-0.7669,-0.6697,-0.4459,-0.4641,-0.408,-0.2882,-0.3482,-0.3782,-0.385,-0.3845,-0.3902,-0.39,-0.3787,-0.3903,-0.4364,-0.4736,-0.541,-0.6684,0.0,0.0,0.0,0.0,0.0,0.0,0.0,0.0,0.0,0.0,0.0,0.0,0.0,0.0,0.0,-0.2812,0.0,-0.2018,-0.1537,0.0,0.0,0.0,-0.1259,-0.1233,-0.094,-0.0697,-0.071,0.0,0.0,0.0,0.0,0.0,0.0,0.0,0.0,0.0,0.0,0.0,0.0,0.0,0.0,0.0,0.0,0.0,0.0,0.0,0.0,0.0,0.0,0.0,0.0,0.0,0.0,0.0,0.0,0.0,0.0,0.0,0.0,0.0,0.0,0.0,-1.3288,-1.3273,-1.3119,-1.2911,-1.2719,-1.2468,-1.2134,-1.1684,-1.072,-1.0065,-0.965,-0.7784,-0.687,-0.6813,-0.6101,0.0,0.0,0.0,-0.4192,-0.3656,-0.2376,-0.1853,-0.1876,-0.1302,-0.1189,-0.1486,-0.1772,-0.2051,-0.2438,-0.3553,-0.5222,-0.7385,0.0,0.0,-0.8974,-0.8361,-0.7463,-0.6174,-0.5983,-0.5877,-0.5746,-0.6349,-0.6712,-0.6712,-0.6349,-0.6084,-0.6025,-0.5882,-0.5936,-0.6225,-0.6391,-0.695,0.0,0.0,0.0,0.0,0.0,0.0,0.0,0.0,0.0,0.0,0.0,-0.8687,-0.7951,0.0,0.0,0.0,-0.4575,-0.3957,-0.3565,-0.3075,0.0,0.0,0.0,0.0,0.0,0.0,0.0,-0.1628,-0.142,-0.1099,-0.0557,-0.0969,-0.1224,-0.1006,-0.0921,-0.0933,-0.0933,0.0,-0.0891,-0.0943,-0.0948,-0.0952,-0.0952,-0.0899,-0.0793,-0.0529,-0.0212,0.0,0.0,0.0,0.0,0.0,0.0,0.0,0.0,0.0,0.0,0.0,0.0,0.0,0.0,0.0,0.0,-1.4046,0.0,0.0,0.0,0.0,-1.3098,-1.29,-1.2502,-1.1766,-1.1264,-1.0831,-0.9191,0.0,0.0,0.0,0.0,0.0,0.0,-0.5626,-0.5121,-0.3718,-0.3056,-0.3086,-0.2566,-0.2523,-0.2859,-0.3123,-0.354,-0.4096,-0.544,-0.7265,-0.9464,0.0,0.0,0.0,0.0,-0.8577,-0.8052,-0.7809,-0.7965,-0.8674,-0.9344,-0.9762,-0.9941,-0.9239,-0.866,-0.8317,-0.812,-0.7979,-0.7933,-0.804,0.0,0.0,0.0,0.0,0.0,0.0,0.0,0.0,0.0,0.0,0.0,0.0,0.0,0.0,0.0,0.0,0.0,0.0,0.0,-0.4986,-0.4519,-0.4237,0.0,0.0,0.0,0.0,0.0,0.0,0.0,0.0,0.0,-0.209,-0.253,-0.2735,0.0,0.0,-0.238,-0.238,-0.2441,-0.2451,-0.2451,0.0,0.0,0.0,-0.2076,-0.177,-0.1258,-0.0659,-0.0154,-0.0052,0.0,0.0,0.0,0.0,0.0,0.0,0.0,0.0,0.0,0.0,0.0,0.0,0.0,0.0,0.0,0.0,0.0,0.0,0.0,0.0,0.0,0.0,-1.1965,-1.1517,0.0,-1.0545,0.0,0.0,0.0,0.0,0.0,0.0,0.0,0.0,-0.5062,-0.4378,-0.4568,-0.3937,-0.3674,-0.3671,-0.4598,-0.523,-0.5855,-0.7702,0.0,0.0,0.0,0.0,0.0,0.0,-1.0393,-1.0019,-1.0107,-1.0547,-1.1298,-1.197,-1.2617,-1.3212,-1.2383,-1.1417,-1.0445,-1.0117,-0.9757,-0.9334,-0.94,0.0,0.0,0.0,0.0,0.0,0.0,0.0,0.0,0.0,0.0,0.0,0.0,0.0,0.0,0.0,0.0,0.0,0.0,0.0,0.0,-0.5728,0.0,0.0,0.0,0.0,0.0,0.0,0.0,0.0,0.0,0.0,-0.4948,-0.481,-0.4491,-0.4208,0.0,0.0,0.0,0.0,-0.4566,-0.4566,-0.457,-0.4344,-0.3692,-0.3345,-0.285,-0.2195,0.0,0.0,-0.0103,0.0,0.0,0.0,0.0,0.0,0.0,0.0,0.0,0.0,0.0,0.0,0.0,0.0,0.0,0.0,0.0,0.0,0.0,0.0,0.0,0.0,0.0,0.0,0.0,0.0,-1.1753,0.0,0.0,0.0,0.0,0.0,0.0,0.0,0.0,-0.6847,-0.6331,-0.6398,-0.5849,-0.5835,0.0,-0.6387,-0.7169,0.0,0.0,0.0,0.0,0.0,0.0,0.0,0.0,-1.0808,-1.1114,-1.1634,-1.2419,-1.3381,-1.4401,-1.5054,-1.5281,-1.4777,-1.3731,-1.2068,-1.1449,-1.0906,0.0,0.0,0.0,0.0,0.0,0.0,0.0,0.0,0.0,0.0,0.0,0.0,0.0,0.0,0.0,0.0,0.0,0.0,0.0,0.0,0.0,0.0,0.0,-0.652,0.0,0.0,0.0,0.0,0.0,0.0,0.0,0.0,0.0,-0.7108,-0.6797,-0.6263,-0.5872,-0.6041,-0.626,-0.626,0.0,0.0,0.0,0.0,0.0,0.0,0.0,-0.4479,-0.3249,-0.225,-0.1425,-0.0626,-0.0241,0.0,0.0,0.0,0.0,0.0,0.0,0.0,0.0,0.0,0.0,0.0,0.0,0.0,0.0,0.0,0.0,0.0,0.0,0.0,0.0,0.0,0.0,-1.3241,-1.2962,0.0,0.0,0.0,0.0,0.0,0.0,0.0,0.0,0.0,0.0,0.0,-0.7876,-0.7555,0.0,0.0,0.0,0.0,0.0,0.0,0.0,0.0,0.0,0.0,0.0,0.0,-1.1813,-1.2701,-1.3386,-1.4376,-1.5588,-1.6489,-1.701,-1.7247,-1.6623,-1.5577,-1.4101,0.0,0.0,0.0,0.0,0.0,0.0,0.0,0.0,0.0,0.0,0.0,0.0,0.0,0.0,0.0,0.0,0.0,0.0,0.0,0.0,0.0,0.0,0.0,0.0,0.0,-0.639,0.0,0.0,0.0,0.0,0.0,0.0,0.0,0.0,0.0,0.0,0.0,-0.817,-0.7997,-0.8251,-0.8489,-0.8634,-0.865,-0.8689,0.0,0.0,0.0,0.0,0.0,0.0,0.0,0.0,0.0,0.0,0.0,0.0,0.0,0.0,0.0,0.0,0.0,0.0,0.0,0.0,0.0,0.0,0.0,0.0,0.0,0.0,0.0,0.0,0.0,0.0,0.0,0.0,0.0,0.0,0.0,0.0,0.0,-1.2057,0.0,0.0,0.0,0.0,0.0,0.0,0.0,0.0,0.0,0.0,0.0,0.0,0.0,0.0,0.0,0.0,0.0,0.0,0.0,0.0,0.0,0.0,-1.3308,-1.4757,-1.5279,-1.6321,-1.7944,-1.8088,-1.8371,-1.8935,-1.7895,-1.7044,-1.6442,0.0,0.0,0.0,0.0,0.0,0.0,0.0,0.0,0.0,0.0,0.0,0.0,0.0,0.0,0.0,0.0,0.0,0.0,0.0,0.0,0.0,0.0,0.0,0.0,0.0,0.0,-0.6276,-0.7973,-0.8955,0.0,0.0,0.0,0.0,0.0,0.0,0.0,0.0,0.0,0.0,-1.0841,-1.1017,-1.1335,-1.1566,-1.1565,-1.1565,-1.161,-1.1173,-1.0023,-0.9103,-0.789,0.0,0.0,0.0,0.0,0.0,0.0,0.0,0.0,0.0,0.0,0.0,0.0,0.0,0.0,0.0,0.0,0.0,0.0,0.0,0.0,0.0,0.0,0.0,0.0,0.0,0.0,0.0,0.0,0.0,0.0,0.0,0.0,0.0,0.0,0.0,0.0,0.0,0.0,0.0,0.0,0.0,0.0,0.0,0.0,0.0,0.0,0.0,0.0,0.0,0.0,0.0,0.0,0.0,0.0,-1.349,-1.5308,-1.6094,-1.7055,-1.8016,-1.8502,-1.8765,-1.8789,-1.7814,-1.6993,0.0,0.0,0.0,0.0,0.0,0.0,0.0,0.0,0.0,0.0,0.0,0.0,0.0,0.0,0.0,0.0,0.0,0.0,0.0,0.0,0.0,0.0,0.0,0.0,0.0,0.0,0.0,0.0,-0.6284,-0.7441,-0.9054,0.0,0.0,0.0,0.0,0.0,0.0,0.0,0.0,0.0,0.0,-1.1763,-1.1885,-1.2091,-1.2119,-1.1823,-1.1823,-1.145,-1.0458,-0.9268,-0.7889,-0.6323,0.0,0.0,0.0,0.0,0.0,0.0,0.0,0.0,0.0,0.0,0.0,0.0,0.0,0.0,0.0,0.0,0.0,0.0,0.0,0.0,0.0,0.0,0.0,0.0,0.0,0.0,0.0,0.0,0.0,0.0,0.0,0.0,0.0,0.0,0.0,0.0,0.0,0.0,0.0,0.0,0.0,0.0,0.0,0.0,0.0,0.0,0.0,0.0,0.0,0.0,0.0,0.0,0.0,-1.3914,-1.5908,-1.6815,-1.7645,-1.8404,-1.8856,-1.8849,-1.8512,-1.7614,-1.6693,0.0,0.0,0.0,0.0,0.0,0.0,0.0,0.0,0.0,0.0,0.0,0.0,0.0,0.0,0.0,0.0,0.0,0.0,0.0,0.0,0.0,0.0,0.0,0.0,0.0,0.0,0.0,0.0,-0.4766,-0.6013,-0.8085,0.0,0.0,0.0,0.0,0.0,0.0,0.0,0.0,0.0,0.0,-1.2112,-1.2208,-1.2229,0.0,0.0,-1.1684,-1.1461,-1.0642,-0.9493,-0.8118,-0.6466,-0.4425,0.0,0.0,0.0,0.0,0.0,0.0,0.0,0.0,0.0,0.0,0.0,0.0,0.0,0.0,0.0,0.0,0.0,0.0,0.0,0.0,0.0,0.0,0.0,0.0,0.0,0.0,0.0,0.0,0.0,0.0,0.0,0.0,0.0,0.0,0.0,0.0,0.0,0.0,0.0,0.0,0.0,0.0,0.0,0.0,0.0,0.0,0.0,0.0,0.0,0.0,0.0,0.0,0.0,-1.6453,-1.7379,-1.8239,-1.8994,-1.9033,-1.8757,-1.8209,-1.7352,-1.6168,0.0,0.0,0.0,0.0,0.0,0.0,0.0,0.0,0.0,0.0,0.0,0.0,0.0,0.0,0.0,0.0,0.0,0.0,0.0,0.0,0.0,0.0,0.0,0.0,0.0,0.0,0.0,0.0,0.0,0.0,0.0,0.0,0.0,0.0,0.0,0.0,0.0,0.0,0.0,0.0,0.0,-1.2044,-1.2294,-1.1994,-1.1697,0.0,0.0,-1.1042,-1.041,-0.9491,-0.8313,-0.6378,0.0,0.0,0.0,0.0,0.0,0.0,0.0,0.0,0.0,0.0,0.0,0.0,0.0,0.0,0.0,0.0,0.0,0.0,0.0,0.0,0.0,0.0,0.0,0.0,0.0,0.0,0.0,0.0,0.0,0.0,0.0,0.0,0.0,0.0,0.0,0.0,0.0,0.0,0.0,0.0,0.0,0.0,0.0,0.0,0.0,0.0,0.0,0.0,0.0,0.0,0.0,0.0,0.0,0.0,-1.6189,-1.6983,-1.7998,-1.8981,-1.9033,-1.871,-1.7974,-1.7049,0.0,0.0,0.0,0.0,0.0,0.0,0.0,0.0,0.0,0.0,0.0,0.0,0.0,0.0,0.0,0.0,0.0,0.0,0.0,0.0,0.0,0.0,0.0,0.0,0.0,0.0,0.0,-0.1178,0.0,0.0,0.0,0.0,0.0,0.0,0.0,0.0,0.0,0.0,0.0,0.0,0.0,0.0,-1.1307,-1.1128,-1.1045,-1.0705,0.0,0.0,-0.9144,-0.8291,-0.7382,-0.6294,0.0,0.0,0.0,0.0,0.0,0.0,0.0,0.0,0.0,0.0,0.0,0.0,0.0,0.0,0.0,0.0,0.0,0.0,0.0,0.0,0.0,0.0,0.0,0.0,0.0,0.0,0.0,0.0,0.0,0.0,0.0,0.0,0.0,0.0,0.0,0.0,0.0,0.0,0.0,0.0,0.0,0.0,0.0,0.0,0.0,0.0,0.0,0.0,0.0,0.0,0.0,0.0,0.0,0.0,-1.3842,-1.5822,-1.6812,-1.7824,-1.8868,-1.8968,-1.8618,-1.7629,-1.6877,-1.5559,0.0,0.0,0.0,0.0,0.0,0.0,0.0,0.0,0.0,0.0,0.0,0.0,0.0,0.0,0.0,0.0,0.0,0.0,0.0,0.0,0.0,0.0,0.0,0.0,0.0,0.0,0.0,0.0,0.0,0.0,0.0,0.0,0.0,0.0,0.0,0.0,0.0,0.0,0.0,0.0,0.0,0.0,-0.9787,-0.9269,0.0,0.0,0.0,-0.6935,-0.6362,0.0,0.0,0.0,0.0,0.0,0.0,0.0,0.0,0.0,0.0,0.0,0.0,0.0,0.0,0.0,0.0,0.0,0.0,0.0,0.0,0.0,0.0,0.0,0.0,0.0,0.0,0.0,0.0,0.0,0.0,0.0,0.0,0.0,0.0,0.0,0.0,0.0,0.0,0.0,0.0,0.0,0.0,0.0,0.0,0.0,0.0,0.0,0.0,0.0,0.0,0.0,0.0,0.0,0.0,0.0,0.0,0.0,-1.5432,-1.6667,-1.7706,-1.8644,-1.8947,-1.8481,-1.7351,-1.6798,-1.5448,0.0,0.0,0.0,0.0,0.0,0.0,0.0,0.0,0.0,0.0,0.0,0.0,0.0,0.0,0.0,0.0,0.0,0.0,0.0,0.0,0.0,0.0,0.0,0.0,0.0,0.0,0.0,0.0,0.0,0.0,0.0,0.0,0.0,0.0,0.0,0.0,0.0,0.0,0.0,0.0,0.0,-0.7678,-0.8084,-0.7112,-0.6305,0.0,0.0,-0.4708,-0.4529,-0.381,0.0,0.0,0.0,0.0,0.0,0.0,0.0,0.0,0.0,0.0,0.0,0.0,0.0,0.0,0.0,0.0,0.0,0.0,0.0,0.0,0.0,0.0,0.0,0.0,0.0,0.0,0.0,0.0,0.0,0.0,0.0,0.0,0.0,0.0,0.0,0.0,0.0,0.0,0.0,0.0,0.0,0.0,0.0,0.0,0.0,0.0,0.0,0.0,0.0,0.0,0.0,0.0,0.0,0.0,0.0,0.0,-1.4899,-1.6323,-1.7509,-1.8631,-1.8889,-1.8481,-1.7364,-1.6798,-1.5448,0.0,0.0,0.0,0.0,0.0,0.0,0.0,0.0,0.0,0.0,0.0,0.0,0.0,0.0,0.0,0.0,0.0,0.0,0.0,0.0,0.0,0.0,0.0,0.0,0.0,0.0,0.0,0.0,0.0,0.0,0.0,0.0,0.0,0.0,0.0,0.0,0.0,0.0,0.0,0.0,0.0,-0.6038,-0.5939,-0.526,0.0,0.0,0.0,0.0,-0.2436,-0.2246,0.0,0.0,0.0,0.0,0.0,0.0,0.0,0.0,0.0,0.0,0.0,0.0,0.0,0.0,0.0,0.0,0.0,0.0,0.0,0.0,0.0,0.0,0.0,0.0,0.0,0.0,0.0,0.0,0.0,0.0,0.0,0.0,0.0,0.0,0.0,0.0,0.0,0.0,0.0,0.0,0.0,0.0,0.0,0.0,0.0,0.0,0.0,0.0,0.0,0.0,0.0,0.0,0.0,0.0,0.0,0.0,-1.4091,-1.58,-1.722,-1.8278,-1.8802,-1.8481,-1.7364,-1.6798,-1.5448,0.0,0.0,0.0,0.0,0.0,0.0,0.0,0.0,0.0,0.0,0.0,0.0,0.0,0.0,0.0,0.0,0.0,0.0,0.0,0.0,0.0,0.0,0.0,0.0,0.0,0.0,0.0,0.0,0.0,0.0,0.0,0.0,0.0,0.0,0.0,0.0,0.0,0.0,0.0,0.0,-0.4252,-0.4122,-0.4342,0.0,0.0,0.0,0.0,0.0,0.0,-0.1031,-0.0764,0.0,0.0,0.0,0.0,0.0,0.0,0.0,0.0,0.0,0.0,0.0,0.0,0.0,0.0,0.0,0.0,0.0,0.0,0.0,0.0,0.0,0.0,0.0,0.0,0.0,0.0,0.0,0.0,0.0,0.0,0.0,0.0,0.0,0.0,0.0,0.0,0.0,0.0,0.0,0.0,0.0,0.0,0.0,0.0,0.0,0.0,0.0,0.0,0.0,0.0,0.0,0.0,0.0,0.0,0.0,-1.3355,-1.5387,-1.6916,-1.7884,-1.8644,-1.8481,-1.731,-1.6707,-1.5179,-1.265,0.0,0.0,0.0,0.0,0.0,0.0,0.0,0.0,0.0,0.0,0.0,0.0,0.0,0.0,0.0,0.0,0.0,0.0,0.0,0.0,0.0,0.0,0.0,0.0,0.0,0.0,0.0,0.0,0.0,0.0,0.0,0.0,0.0,0.0,0.0,0.0,0.0,0.0,0.0,-0.2402,-0.2354,0.0,0.0,0.0,0.0,0.0,0.0,0.0,0.0,0.0229,0.0,0.0,0.0,0.0,0.0,0.0,0.0,0.0,0.0,0.0,0.0,0.0,0.0,0.0,0.0,0.0,0.0,0.0,0.0,0.0,0.0,0.0,0.0,0.0,0.0,0.0,0.0,0.0,0.0,0.0,0.0,0.0,0.0,0.0,0.0,0.0,0.0,0.0,0.0,0.0,0.0,0.0,0.0,0.0,0.0,0.0,0.0,0.0,0.0,0.0,0.0,0.0,0.0,0.0,0.0,0.0,-1.5157,-1.6718,-1.787,-1.8644,-1.8481,-1.7297,-1.6253,-1.4147,-1.096,0.0,0.0,0.0,0.0,0.0,0.0,0.0,0.0,0.0,0.0,0.0,0.0,0.0,0.0,0.0,0.0,0.0,0.0,0.0,0.0,0.0,0.0,0.0,0.0,0.0,0.0,0.0,0.0,0.0,0.0,0.0,0.0,0.0,0.0,0.0,0.0,0.0,0.0,-0.0923,-0.1121,0.0,0.0,0.0,0.0,0.0,0.0,0.0,0.0,0.0941,0.0,0.0,0.0,0.0,0.0,0.0,0.0,0.0,0.0,0.0,0.0,0.0,0.0,0.0,0.0,0.0,0.0,0.0,0.0,0.0,0.0,0.0,0.0,0.0,0.0,0.0,0.0,0.0,0.0,0.0,0.0,0.0,0.0,0.0,0.0,0.0,0.0,0.0,0.0,0.0,0.0,0.0,0.0,0.0,0.0,0.0,0.0,0.0,0.0,0.0,0.0,0.0,0.0,0.0,0.0,0.0,0.0,0.0,-1.6295,-1.7536,-1.842,-1.8223,-1.6894,-1.4893,-1.2536,0.0,0.0,0.0,0.0,0.0,0.0,0.0,0.0,0.0,0.0,0.0,0.0,0.0,0.0,0.0,0.0,0.0,0.0,0.0,0.0,0.0,0.0,0.0,0.0,0.0,0.0,0.0,0.0,0.0,0.0,0.0,0.0,0.0,0.0,0.0,0.0,0.0,0.0,0.0,0.0,0.0,0.0,0.0,0.0,0.0,0.0,0.0,0.0,0.0,0.0,0.0,0.0,0.0,0.0,0.0,0.0,0.0,0.0,0.0,0.0,0.0,0.0,0.0,0.0,0.0,0.0,0.0,0.0,0.0,0.0,0.0,0.0,0.0,0.0,0.0,0.0,0.0,0.0,0.0,0.0,0.0,0.0,0.0,0.0,0.0,0.0,0.0,0.0,0.0,0.0,0.0,0.0,0.0,0.0,0.0,0.0,0.0,0.0,0.0,0.0,0.0,0.0,0.0,0.0,0.0,0.0,0.0,0.0,-1.576,-1.7193,-1.8027,-1.7853,-1.6571,-1.3603,-1.0957,0.0,0.0,0.0,0.0,0.0,0.0,0.0,0.0,0.0,0.0,0.0,0.0,0.0,0.0,0.0,0.0,0.0,0.0,0.0,0.0,0.0,0.0,0.0,0.0,0.0,0.0,0.0,0.0,0.0,0.0,0.0,0.0,0.0,0.0,0.0,0.0,0.0,0.0,0.0,0.0,0.0,0.0,0.0,0.0,0.0,0.0,0.0,0.0,0.2592,0.0,0.0,0.0,0.0,0.0,0.0,0.0,0.0,0.0,0.0,0.0,0.0,0.0,0.0,0.0,0.0,0.0,0.0,0.0,0.0,0.0,0.0,0.0,0.0,0.0,0.0,0.0,0.0,0.0,0.0,0.0,0.0,0.0,0.0,0.0,0.0,0.0,0.0,0.0,0.0,0.0,0.0,0.0,0.0,0.0,0.0,0.0,0.0,0.0,0.0,0.0,0.0,0.0,0.0,0.0,0.0,0.0,0.0,0.0,-1.5519,-1.6904,-1.7518,-1.7389,-1.6451,-1.3049,-0.9781,0.0,0.0,0.0,0.0,0.0,0.0,0.0,0.0,0.0,0.0,0.0,0.0,0.0,0.0,0.0,0.0,0.0,0.0,0.0,0.0,0.0,0.0,0.0,0.0,0.0,0.0,0.0,0.0,0.0,0.0,0.0,0.0,0.0,0.0,0.0,0.0,0.0,0.0,0.0,0.0,0.0,0.0,0.0,0.0,0.0,0.0,0.0,0.0,0.0,0.0,0.0,0.0,0.0,0.0,0.0,0.0,0.0,0.0,0.0,0.0,0.0,0.0,0.0,0.0,0.0,0.0,0.0,0.0,0.0,0.0,0.0,0.0,0.0,0.0,0.0,0.0,0.0,0.0,0.0,0.0,0.0,0.0,0.0,0.0,0.0,0.0,0.0,0.0,0.0,0.0,0.0,0.0,0.0,0.0,0.0,0.0,0.0,0.0,0.0,0.0,0.0,0.0,0.0,0.0,0.0,0.0,0.0,0.0,-1.429,-1.5882,-1.6475,-1.5768,-1.3527,-1.054,-0.7729,0.0,0.0,0.0,0.0,0.0,0.0,0.0,0.0,0.0,0.0,0.0,0.0,0.0,0.0,0.0,0.0,0.0,0.0,0.0,0.0,0.0,0.0,0.0,0.0,0.0,0.0,0.0,0.0,0.0,0.0,0.0,0.0,0.0,0.0,0.0,0.0,0.0,0.0,0.0,0.0,0.0,0.0,0.0,0.0,0.0,0.0,0.0,0.0,0.0,0.0,0.0,0.0,0.0,0.0,0.0,0.0,0.0,0.0,0.0,0.0,0.0,0.0,0.0,0.0,0.0,0.0,0.0,0.0,0.0,0.0,0.0,0.0,0.0,0.0,0.0,0.0,0.0,0.0,0.0,0.0,0.0,0.0,0.0,0.0,0.0,0.0,0.0,0.0,0.0,0.0,0.0,0.0,0.0,0.0,0.0,0.0,0.0,0.0,0.0,0.0,0.0,0.0,0.0,0.0,0.0,0.0,0.0,0.0,0.0,-1.4488,-1.4336,-1.2963,-1.0302,-0.7975,-0.5887,0.0,0.0,0.0,0.0,0.0,0.0,0.0,0.0,0.0,0.0,0.0,0.0,0.0,0.0,0.0,0.0,0.0,0.0,0.0,0.0,0.0,0.0,0.0,0.0,0.0,0.0,0.0,0.0,0.0,0.0,0.0,0.0,0.0,0.0,0.0,0.0,0.0,0.0,0.0,0.0,0.0,0.0,0.0,0.0,0.0,0.0,0.0,0.0,0.0,0.0,0.0,0.0,0.0,0.0,0.0,0.0,0.0,0.0,0.0,0.0,0.0,0.0,0.0,0.0,0.0,0.0,0.0,0.0,0.0,0.0,0.0,0.0,0.0,0.0,0.0,0.0,0.0,0.0,0.0,0.0,0.0,0.0,0.0,0.0,0.0,0.0,0.0,0.0,0.0,0.0,0.0,0.0,0.0,0.0,0.0,0.0,0.0,0.0,0.0,0.0,0.0,0.0,0.0,0.0,0.0,0.0,0.0,0.0,0.0,-1.3094,-1.0549,-0.8651,-0.7392,-0.5983,-0.4521,0.0,0.0,0.0,0.0,0.0,0.0,0.0,0.0,0.0,0.0,0.0,0.0,0.0,0.0,0.0,0.0,0.0,0.0,0.0,0.0,0.0,0.0,0.0,0.0,0.0,0.0,0.0,0.0,0.0,0.0,0.0,0.0,0.0,0.0,0.0,0.0,0.0,0.0,0.0,0.0,0.0,0.0,0.0,0.0,0.0,0.0,0.0,0.0,0.0,0.0,0.0,0.0,0.0,0.0,0.0,0.0,0.0,0.0,0.0,0.0,0.0,0.0,0.0,0.0,0.0,0.0,0.0,0.0,0.0,0.0,0.0,0.0,0.0,0.0,0.0,0.0,0.0,0.0,0.0,0.0,0.0,0.0,0.0,0.0,0.0,0.0,0.0,0.0,0.0,0.0,0.0,0.0,0.0,0.0,0.0,0.0,0.0,0.0,0.0,0.0,0.0,0.0,0.0,0.0,0.0,0.0,0.0,0.0,0.0,-0.8377,-0.6786,-0.5573,-0.4755,-0.385,-0.2779,-0.1626,0.0,0.0,0.0,0.0,0.0,0.0,0.0,0.0,0.0,0.0,0.0,0.0,0.0,0.0,0.0,0.0,0.0,0.0,0.0,0.0,0.0,0.0,0.0,0.0,0.0,0.0,0.0,0.0,0.0,0.0,0.0,0.0,0.0,0.0,0.0,0.0,0.0,0.0,0.0,0.0,0.0,0.0,0.0,0.0,0.0,0.0,0.0,0.0,0.0,0.0,0.0,0.0,0.0,0.0,0.0,0.0,0.0,0.0,0.0,0.0,0.0,0.0,0.0,0.0,0.0,0.0,0.0,0.0,0.0,0.0,0.0,0.0,0.0,0.0,0.0,0.0,0.0,0.0,0.0,0.0,0.0,0.0,0.0,0.0,0.0,0.0,0.0,0.0,0.0,0.0,0.0,0.0,0.0,0.0,0.0,0.0,0.0,0.0,0.0,0.0,0.0,0.0,0.0,0.0,0.0,0.0,0.0,0.0,-0.4726,-0.3907,-0.3269,-0.2707,-0.2125,-0.148,0.0,0.0,0.0,0.0,0.0,0.0,0.0,0.0,0.0,0.0,0.0,0.0,0.0,0.0,0.0,0.0,0.0,0.0,0.0,0.0,0.0,0.0,0.0,0.0,0.0,0.0,0.0,0.0,0.0,0.0,0.0,0.0,0.0,0.0,0.0,0.0,0.0,0.0,0.0,0.0,0.0,0.0,0.0,0.0,0.0,0.0,0.0,0.0,0.0,0.0,0.0,0.0,0.0,0.0,0.0,0.0,0.0,0.0,0.0,0.0,0.0,0.0,0.0,0.0,0.0,0.0,0.0,0.0,0.0,0.0,0.0,0.0,0.0,0.0,0.0,0.0,0.0,0.0,0.0,0.0,0.0,0.0,0.0,0.0,0.0,0.0,0.0,0.0,0.0,0.0,0.0,0.0,0.0,0.0,0.0,0.0,0.0,0.0,0.0,0.0,0.0,0.0,0.0,0.0,0.0,0.0,0.0,0.0,-0.3751,-0.2626,-0.2037,-0.1669,-0.1362,-0.0999,-0.0607,0.0,0.0,0.0,0.0,0.0,0.0,0.0,0.0,0.0,0.0,0.0,0.0,0.0,0.0,0.0,0.0,0.0,0.0,0.0,0.0,0.0,0.0,0.0,0.0,0.0,0.0,0.0,0.0,0.0,0.0,0.0,0.0,0.0,0.0,0.0,0.0,0.0,0.0,0.0,0.0,0.0,0.0,0.0,0.0,0.0,0.0,0.0,0.0,0.0,0.0,0.0,0.0,0.0,0.0,0.0,0.0,0.0,0.0,0.0,0.0,0.0,0.0,0.0,0.0,0.0,0.0,0.0,0.0,0.0,0.0,0.0,0.0,0.0,0.0,0.0,0.0,0.0,0.0,0.0,0.0,0.0,0.0,0.0,0.0,0.0,0.0,0.0,0.0,0.0,0.0,0.0,0.0,0.0,0.0,0.0,0.0,0.0,0.0,0.0,0.0,0.0,0.0,0.0,0.0,0.0,0.0,0.0,0.0,0.0,-0.2002,0.0,-0.0434,0.0,0.0091,0.0445,0.0,0.0,0.0,0.0,0.0,0.0,0.0,0.0,0.0,0.0,0.0,0.0,0.0,0.0,0.0,0.0,0.0,0.0,0.0,0.0,0.0,0.0,0.0,0.0,0.0,0.0,0.0,0.0,0.0,0.0,0.0,0.0,0.0,0.0,0.0,0.0,0.0,0.0,0.0,0.0,0.0,0.0,0.0,0.0,0.0,0.0,0.0,0.0,0.0,0.0,0.0,0.0,0.0,0.0,0.0,0.0,0.0,0.0,0.0,0.0,0.0,0.0,0.0,0.0,0.0,0.0,0.0,0.0,0.0,0.0,0.0,0.0,0.0,0.0,0.0,0.0,0.0,0.0,0.0,0.0,0.0,0.0,0.0,0.0,0.0,0.0,0.0,0.0,0.0,0.0,0.0,0.0,0.0,0.0,0.0,0.0,0.0,0.0,0.0,0.0,0.0,0.0,0.0,0.0,0.0,0.0,0.0,0.0,0.0,-0.1097,-0.0316,0.0348,0.0696,0.1081,0.149,0.0,0.0,0.0,0.0,0.0,0.0,0.0,0.0,0.0,0.0,0.0,0.0,0.0,0.0,0.0,0.0,0.0,0.0,0.0,0.0,0.0,0.0,0.0,0.0,0.0,0.0,0.0,0.0,0.0,0.0,0.0,0.0,0.0,0.0,0.0,0.0,0.0,0.0,0.0,0.0,0.0,0.0,0.0,0.0,0.0,0.0,0.0,0.0,0.0,0.0,0.0,0.0,0.0,0.0,0.0,0.0,0.0,0.0,0.0,0.0,0.0,0.0,0.0,0.0,0.0,0.0,0.0,0.0,0.0,0.0,0.0,0.0,0.0,0.0,0.0,0.0,0.0,0.0,0.0,0.0,0.0,0.0,0.0,0.0,0.0,0.0,0.0,0.0,0.0,0.0,0.0,0.0,0.0,0.0,0.0,0.0,0.0,0.0,0.0,0.0,0.0,0.0,0.0,0.0,0.0,0.0,0.0,0.0,0.0,0.0,0.0355,0.079,0.1419,0.1937,0.2506,0.0,0.0,0.0,0.0,0.0,0.0,0.0,0.0,0.0,0.0,0.0,0.0,0.0,0.0,0.0,0.0,0.0,0.0,0.0,0.0,0.0,0.0,0.0,0.0,0.0,0.0,0.0,0.0,0.0,0.0,0.0,0.0,0.0,0.0,0.0,0.0,0.0,0.0,0.0,0.0,0.0,0.0,0.0,0.0,0.0,0.0,0.0,0.0,0.0,0.0,0.0,0.0,0.0,0.0,0.0,0.0,0.0,0.0,0.0,0.0,0.0,0.0,0.0,0.0,0.0,0.0,0.0,0.0,0.0,0.0,0.0,0.0,0.0,0.0,0.0,0.0,0.0,0.0,0.0,0.0,0.0,0.0,0.0,0.0,0.0,0.0,0.0,0.0,0.0,0.0,0.0,0.0,0.0,0.0,0.0,0.0,0.0,0.0,0.0,0.0,0.0,0.0,0.0,0.0,0.0,0.0,0.0,0.0,0.0,0.0,0.1417,0.0,0.2237,0.2996,0.3833,0.4612,0.0,0.0,0.0,0.0,0.0,0.0,0.0,0.0,0.0,0.0,0.0,0.0,0.0,0.0,0.0,0.0,0.0,0.0,0.0,0.0,0.0,0.0,0.0,0.0,0.0,0.0,0.0,0.0,0.0,0.0,0.0,0.0,0.0,0.0,0.0,0.0,0.0,0.0,0.0,0.0,0.0,0.0,0.0,0.0,0.0,0.0,0.0,0.0,0.0,0.0,0.0,0.0,0.0,0.0,0.0,0.0,0.0,0.0,0.0,0.0,0.0,0.0,0.0,0.0,0.0,0.0,0.0,0.0,0.0,0.0,0.0,0.0,0.0,0.0,0.0,0.0,0.0,0.0,0.0,0.0,0.0,0.0,0.0,0.0,0.0,0.0,0.0,0.0,0.0,0.0,0.0,0.0,0.0,0.0,0.0,0.0,0.0,0.0,0.0,0.0,0.0,0.0,0.0,0.0,0.0,0.0,0.0,0.0,0.0,0.0,0.0,0.3621,0.4158,0.4998,0.0,0.0,0.0,0.0,0.0,0.0,0.0,0.0,0.0,0.0,0.0,0.0,0.0,0.0,0.0,0.0,0.0,0.0,0.0,0.0,0.0,0.0,0.0,0.0,0.0,0.0,0.0,0.0,0.0,0.0,0.0,0.0,0.0,0.0,0.0,0.0,0.0,0.0,0.0,0.0,0.0,0.0,0.0,0.0,0.0,0.0,0.0,0.0,0.0,0.0,0.0,0.0,0.0,0.0,0.0,0.0,0.0,0.0,0.0,0.0,0.0,0.0,0.0,0.0,0.0,0.0,0.0,0.0,0.0,0.0,0.0,0.0,0.0,0.0,0.0,0.0,0.0,0.0,0.0,0.0,0.0,0.0,0.0,0.0,0.0,0.0,0.0,0.0,0.0,0.0,0.0,0.0,0.0,0.0,0.0,0.0,0.0,0.0,0.0,0.0,0.0,0.0,0.0,0.0,0.0,0.0,0.0,0.0,0.0,0.0,0.0,0.4592,0.5369,0.5477,0.0,0.7401,0.0,0.0,0.0,0.0,0.0,0.0,0.0,0.0,0.0,0.0,0.0,0.0,0.0,0.0,0.0,0.0,0.0,0.0,0.0,0.0,0.0,0.0,0.0,0.0,0.0,0.0,0.0,0.0,0.0,0.0,0.0,0.0,0.0,0.0,0.0,0.0,0.0,0.0,0.0,0.0,0.0,0.0,0.0,0.0,0.0,0.0,0.0,0.0,0.0,0.0,0.0,0.0,0.0,0.0,0.0,0.0,0.0,0.0,0.0,0.0,0.0,0.0,0.0,0.0,0.0,0.0,0.0,0.0,0.0,0.0,0.0,0.0,0.0,0.0,0.0,0.0,0.0,0.0,0.0,0.0,0.0,0.0,0.0,0.0,0.0,0.0,0.0,0.0,0.0,0.0,0.0,0.0,0.0,0.0,0.0,0.0,0.0,0.0,0.0,0.0,0.0,0.0,0.0,0.0,0.0,0.0,0.0,0.0,0.0,0.0,0.0,0.0,0.7201,0.7804,0.8434,0.0,0.0,0.0,0.0,0.0,0.0,0.0,0.0,0.0,0.0,0.0,0.0,0.0,0.0,0.0,0.0,0.0,0.0,0.0,0.0,0.0,0.0,0.0,0.0,0.0,0.0,0.0,0.0,0.0,0.0,0.0,0.0,0.0,0.0,0.0,0.0,0.0,0.0,0.0,0.0,0.0,0.0,0.0,0.0,0.0,0.0,0.0,0.0,0.0,0.0,0.0,0.0,0.0,0.0,0.0,0.0,0.0,0.0,0.0,0.0,0.0,0.0,0.0,0.0,0.0,0.0,0.0,0.0,0.0,0.0,0.0,0.0,0.0,0.0,0.0,0.0,0.0,0.0,0.0,0.0,0.0,0.0,0.0,0.0,0.0,0.0,0.0,0.0,0.0,0.0,0.0,0.0,0.0,0.0,0.0,0.0,0.0,0.0,0.0,0.0,0.0,0.0,0.0,0.0,0.0,0.0,0.0,0.0,0.0,0.0,0.7992,0.8502,0.889,0.9385,0.9893,0.0,0.0,0.0,0.0,0.0,0.0,0.0,0.0,0.0,0.0,0.0,0.0,0.0,0.0,0.0,0.0,0.0,0.0,0.0,0.0,0.0,0.0,0.0,0.0,0.0,0.0,0.0,0.0,0.0,0.0,0.0,0.0,0.0,0.0,0.0,0.0,0.0,0.0,0.0,0.0,0.0,0.0,0.0,0.0,0.0,0.0,0.0,0.0,0.0,0.0,0.0,0.0,0.0,0.0,0.0,0.0,0.0,0.0,0.0,0.0,0.0,0.0,0.0,0.0,0.0,0.0,0.0,0.0,0.0,0.0,0.0,0.0,0.0,0.0,0.0,0.0,0.0,0.0,0.0,0.0,0.0,0.0,0.0,0.0,0.0,0.0,0.0,0.0,0.0,0.0,0.0,0.0,0.0,0.0,0.0,0.0,0.0,0.0,0.0,0.0,0.0,0.0,0.0,0.0,0.0,0.0,0.0,0.0,0.0,0.0,0.0,0.0,0.0,0.0,1.1566,0.0,0.0,0.0,0.0,0.0,0.0,0.0,0.0,0.0,0.0,0.0,0.0,0.0,0.0,0.0,0.0,0.0,0.0,0.0,0.0,0.0,0.0,0.0,0.0,0.0,0.0,0.0,0.0,0.0,0.0,0.0,0.0,0.0,0.0,0.0,0.0,0.0,0.0,0.0,0.0,0.0,0.0,0.0,0.0,0.0,0.0,0.0,0.0,0.0,0.0,0.0,0.0,0.0,0.0,0.0,0.0,0.0,0.0,0.0,0.0,0.0,0.0,0.0,0.0,0.0,0.0,0.0,0.0,0.0,0.0,0.0,0.0,0.0,0.0,0.0,0.0,0.0,0.0,0.0,0.0,0.0,0.0,0.0,0.0,0.0,0.0,0.0,0.0,0.0,0.0,0.0,0.0,0.0,0.0,0.0,0.0,0.0,0.0,0.0,0.0,0.0,0.0,0.0,0.0,0.0,0.0,0.0,0.0,0.0,0.0,0.0,0.0,0.0,0.0,0.0,0.0,0.0,0.0,0.0,0.0,0.0,0.0,0.0,0.0,0.0,0.0,0.0,0.0,0.0,0.0,0.0,0.0,0.0,0.0,0.0,0.0,0.0,0.0,0.0,0.0,0.0,0.0,0.0,0.0,0.0,0.0,0.0,0.0,0.0,0.0,0.0,0.0,0.0,0.0,0.0,0.0,0.0,0.0,0.0,0.0,0.0,0.0,0.0,0.0,0.0,0.0,0.0,0.0,0.0,0.0,0.0,0.0,0.0,0.0,0.0,0.0,0.0,0.0,0.0,0.0,0.0,0.0,0.0,0.0,0.0,0.0,0.0,0.0,0.0,0.0,0.0,0.0,0.0,0.0,0.0,0.0,0.0,0.0,0.0,0.0,0.0,0.0,0.0,0.0,0.0,0.0,0.0,0.0,0.0,0.0,0.0,0.0,0.0,0.0,0.0,0.0,0.0,0.0,0.0,0.0,0.0,0.0,0.0,0.0,0.0,0.0,0.0,0.0,0.0,0.0,0.0,0.0,0.0,0.0,0.0,0.0,0.0,0.0,0.0,0.0,0.0,0.0,0.0,0.0,0.0,0.0,0.0,0.0,0.0,0.0,0.0,0.0,0.0,0.0,0.0,0.0,0.0,0.0,0.0,0.0,0.0,0.0,0.0,0.0,0.0,0.0,0.0,0.0,0.0,0.0,0.0,0.0,0.0,0.0,0.0,0.0,0.0,0.0,0.0,0.0,0.0,0.0,0.0,0.0,0.0,0.0,0.0,0.0,0.0,0.0,0.0,0.0,0.0,0.0,0.0,0.0,0.0,0.0,0.0,0.0,0.0,0.0,0.0,0.0,0.0,0.0,0.0,0.0,0.0,0.0,0.0,0.0,0.0,0.0,0.0,0.0,0.0,0.0,0.0,0.0,0.0,0.0,0.0,0.0,0.0,0.0,0.0,0.0,0.0,0.0,0.0,0.0,0.0,0.0,0.0,0.0,0.0,0.0,0.0,0.0,0.0,0.0,0.0,0.0,0.0,0.0,0.0,0.0,0.0,0.0,0.0,0.0,0.0,0.0,0.0,0.0,0.0,0.0,0.0,0.0,0.0,0.0,0.0,0.0,0.0,0.0,0.0,0.0,0.0,0.0,0.0,0.0,0.0,0.0,0.0,0.0,0.0,0.0,0.0,0.0,0.0,0.0,0.0,0.0,0.0,0.0,0.0,0.0,0.0,0.0,0.0,0.0,0.0,0.0,0.0,0.0,0.0,0.0,0.0,0.0,0.0,0.0,0.0,0.0,0.0,0.0,0.0,0.0,0.0,0.0,0.0,0.0,0.0,0.0,0.0,0.0,0.0,0.0,0.0,0.0,0.0,0.0,0.0,0.0,0.0,0.0,0.0,0.0,0.0,0.0,0.0,0.0,0.0,0.0,0.0,0.0,0.0,0.0,0.0,0.0,0.0,0.0,0.0,0.0,0.0,0.0,0.0,0.0,0.0,0.0,0.0,0.0,0.0,0.0,0.0,0.0,0.0,0.0,0.0,0.0,0.0,0.0,0.0,0.0,0.0,0.0,0.0,0.0,0.0,0.0,0.0,0.0,0.0,0.0,0.0,0.0,0.0,0.0,0.0,0.0,0.0,0.0,0.0,0.0,0.0,0.0,0.0,0.0,0.0,0.0,0.0,0.0,0.0,0.0,0.0,0.0,0.0,0.0,0.0,0.0,0.0,0.0,0.0,0.0,0.0,0.0,0.0,0.0,0.0,0.0,0.0,0.0,0.0,0.0,0.0,0.0,0.0,0.0,0.0,0.0,0.0,0.0,0.0,0.0,0.0,0.0,0.0,0.0,0.0,0.0,0.0,0.0,0.0,0.0,0.0,0.0,0.0,0.0,0.0,0.0,0.0,0.0,0.0,0.0,0.0,0.0,0.0,0.0,0.0,0.0,0.0,0.0,0.0,0.0,0.0,0.0,0.0,0.0,0.0,0.0,0.0,0.0,0.0,0.0,0.0,0.0,0.0,0.0,0.0,0.0,0.0,0.0,0.0,0.0,0.0,0.0,0.0,0.0,0.0,0.0,0.0,0.0,0.0,0.0,0.0,0.0,0.0,0.0,0.0,0.0,0.0,0.0,0.0,0.0,0.0,0.0,0.0,0.0,0.0,0.0,0.0,0.0,0.0,0.0,0.0,0.0,0.0,0.0,0.0,0.0,0.0,0.0,0.0,0.0,0.0,0.0,0.0,0.0,0.0,0.0,0.0,0.0,0.0,0.0,0.0,0.0,0.0,0.0,0.0,0.0,0.0,0.0,0.0,0.0,0.0,0.0,0.0,0.0,0.0,0.0,0.0,0.0,0.0,0.0,0.0,0.0,0.0,0.0,0.0,0.0,0.0,0.0,0.0,0.0,0.0,0.0,0.0,0.0,0.0,0.0,0.0,0.0,0.0,0.0,0.0,0.0,0.0,0.0,0.0,0.0,0.0,0.0,0.0,0.0,0.0,0.0,0.0,0.0,0.0,0.0,0.0,0.0,0.0,0.0,0.0,0.0,0.0,0.0,0.0,0.0,0.0,0.0,0.0,0.0,0.0,0.0,0.0,0.0,0.0,0.0,0.0,0.0,0.0,0.0,0.0,0.0,0.0,0.0,0.0,0.0,0.0,0.0,0.0,0.0,0.0,0.0,0.0,0.0,0.0,0.0,0.0,0.0,0.0,0.0,0.0,0.0,0.0,0.0,0.0,0.0,0.0,0.0,0.0,0.0,0.0,0.0,0.0,0.0,0.0,0.0,0.0,0.0,0.0,0.0,0.0,0.0,0.0,0.0,0.0,0.0,0.0,0.0,0.0,0.0,0.0,0.0,0.0,0.0,0.0,0.0,0.0,0.0,0.0,0.0,0.0,0.0,0.0,0.0,0.0,0.0,0.0,0.0,0.0,0.0,0.0,0.0,0.0,0.0,0.0,0.0,0.0,0.0,0.0,0.0,0.0,0.0,0.0,0.0,0.0,0.0,0.0,0.0,0.0,0.0,0.0,0.0,0.0,0.0,0.0,0.0,0.0,0.0,0.0,0.0,0.0,0.0,0.0,0.0,0.0,0.0,0.0,0.0,0.0,0.0,0.0,0.0,0.0,0.0,0.0,0.0,0.0,0.0,0.0,0.0,0.0,0.0,0.0,0.0,0.0,0.0,0.0,0.0,0.0,0.0,0.0,0.0,0.0,0.0,0.0,0.0,0.0,0.0,0.0,0.0,0.0,0.0,0.0,0.0,0.0,0.0,0.0,0.0,0.0,0.0,0.0,0.0,0.0,0.0,0.0,0.0,0.0,0.0,0.0,0.0,0.0,0.0,0.0,0.0,0.0,0.0,0.0,0.0,0.0,0.0,0.0,0.0,0.0,0.0,0.0,0.0,0.0,0.0,0.0,0.0,0.0,0.0,0.0,0.0,0.0,0.0,0.0,0.0,0.0,0.0,0.0,0.0,0.0,0.0,0.0,0.0,0.0,0.0,0.0,0.0,0.0,0.0,0.0,0.0,0.0,0.0,0.0,0.0,0.0,0.0,0.0,0.0,0.0,0.0,0.0,0.0,0.0,0.0,0.0,0.0,0.0,0.0,0.0,0.0,0.0,0.0,0.0,0.0,0.0,0.0,0.0,0.0,0.0,0.0,0.0,0.0,0.0,0.0,0.0,0.0,0.0,0.0,0.0,0.0,0.0,0.0,0.0,0.0,0.0,0.0,0.0,0.0,0.0,0.0,0.0,0.0,0.0,0.0,0.0,0.0,0.0,0.0,0.0,0.0,0.0,0.0,0.0,0.0,0.0,0.0,0.0,0.0,0.0,0.0,0.0,0.0,0.0,0.0,0.0,0.0,0.0,0.0,0.0,0.0]}],[{"header":{"parameterUnit":"kt","parameterCategory":2,"dx":1,"dy":1,"la1":29.587661999999998,"la2":31.0,"lo1":-88.76705300000003,"lo2":-86.6583820000003,"nx":115,"ny":88,"refTime":"2022-10-01T18:00:00:Z","depth":0,"parameterNumber":2,"parameterNumberName":"V-component_of_WINDS"},"data":[12.2059,12.2059,12.2059,12.2059,12.2059,12.2059,12.2059,12.2059,12.2059,12.2059,12.2202,12.2487,12.4057,12.6981,12.8576,13.0003,13.1028,13.1457,13.1599,13.1599,13.1599,13.1599,13.1651,13.1832,13.2217,13.2661,13.302,13.3434,13.3989,13.4489,13.5645,13.802,14.0131,14.1797,14.3771,14.5311,14.6797,14.6912,14.7162,14.7212,14.7378,14.7483,14.7672,14.7686,14.7686,14.7686,14.7686,14.7686,14.7686,14.7732,14.7616,14.7423,14.7378,14.7393,14.7528,14.7557,14.7616,14.7614,14.7614,14.7614,14.9379,15.1783,15.2664,15.3646,15.4643,15.5159,15.4066,15.3355,15.1493,14.9621,14.8954,14.7561,14.702,14.6453,14.6113,14.6167,14.6206,14.7153,14.7913,14.828,14.8883,14.93,14.944,15.0009,15.0528,15.0462,15.0713,15.0234,14.9875,14.9591,14.9135,14.8262,14.7289,14.5587,14.4006,14.4019,14.4218,14.3163,14.2297,14.2246,14.2169,14.2084,14.1979,14.1907,14.1979,14.2032,14.1979,14.1907,14.1802,14.165,14.1562,14.0683,13.9161,13.7775,13.6352,12.2059,12.2059,12.2059,12.2059,12.2059,12.2059,12.2059,12.2059,12.2059,12.2059,12.2344,12.3724,12.5223,12.6981,12.8576,13.0075,13.1171,13.1528,13.1599,13.1599,13.1599,13.1651,13.1729,13.1863,13.2242,13.2782,13.3529,13.4256,13.4867,13.5538,13.7056,14.0077,14.1818,14.3146,14.5682,14.7072,14.7392,14.7453,14.7453,14.7585,14.7629,14.7746,14.7686,14.7686,14.7686,14.7686,14.7686,14.7686,14.7686,14.7672,14.7643,14.76,14.76,14.7585,14.7704,14.7704,14.7746,14.7686,14.7686,14.7761,14.9616,15.1396,15.2233,15.325,15.458,15.4326,15.2981,15.1531,14.9499,14.8065,14.79,14.7327,14.7151,14.6846,14.6653,14.655,14.6727,14.7052,14.7218,14.7218,14.7977,14.8765,14.915,14.9623,14.9734,14.9474,14.9241,14.8738,14.8425,14.8577,14.7929,14.6758,14.5869,14.4585,14.2993,14.3049,14.3671,14.2902,14.3122,14.2928,14.2829,14.2829,14.2755,14.2606,14.2505,14.2581,14.2556,14.2628,14.2383,14.2162,14.1432,14.0296,13.8749,13.7065,13.5603,12.2059,12.2059,12.2059,12.2059,12.2059,12.2059,12.2059,12.2059,12.2059,12.2558,12.3653,12.5151,12.6793,12.8362,12.9861,13.1171,13.1457,13.1599,13.1599,13.1599,13.1625,13.1677,13.1986,13.2242,13.2539,13.3114,13.4062,13.498,13.5674,13.6507,13.8073,14.1067,14.2101,14.3719,14.6777,14.7423,14.7646,14.766,14.7704,14.7657,14.7672,14.7686,14.7686,14.7686,14.7686,14.7686,14.7686,14.7686,14.7686,14.7686,14.7686,14.7686,14.7686,14.7686,14.7686,14.7686,14.7686,14.7686,14.7686,14.7985,14.8808,15.0228,15.12,15.2023,15.3369,15.2546,15.12,15.0154,14.8135,14.7761,14.7616,14.7513,14.7361,14.7209,14.7099,14.696,14.7008,14.7162,14.7268,14.7268,14.7561,14.8227,14.8326,14.8822,14.9095,14.8959,14.9682,14.9429,14.857,14.8339,14.6586,14.5224,14.4485,14.3357,14.28,14.3023,14.334,14.3695,14.3946,14.3923,14.385,14.3686,14.364,14.3712,14.3643,14.3503,14.3409,14.3432,14.3265,14.2395,14.1188,13.9861,13.8173,13.6414,13.5769,12.2059,12.2059,12.2059,12.2059,12.2059,12.2059,12.2059,12.213,12.2416,12.3439,12.4819,12.6579,12.8148,12.9219,13.0671,13.1385,13.1599,13.1599,13.1599,13.1599,13.1599,13.1729,13.2062,13.2515,13.3043,13.3732,13.452,13.5486,13.6377,13.7626,13.9338,14.1916,14.3215,14.4616,14.7423,14.7646,14.7657,14.7732,14.7686,14.7686,14.7686,14.7686,14.7686,14.7686,14.7686,14.7686,14.7686,14.7686,14.7686,14.7686,14.7686,14.7686,14.7686,14.7686,14.7686,14.7686,14.7686,14.7686,14.7686,14.7835,14.8733,14.9719,15.0542,15.114,15.1065,15.0168,14.9256,14.8359,14.7686,14.7686,14.7643,14.7646,14.7557,14.7528,14.7393,14.7363,14.7332,14.7408,14.7557,14.7572,14.7572,14.7631,14.7503,14.7814,14.8298,14.8746,14.924,14.8997,14.7892,14.7266,14.5527,14.4956,14.3934,14.3649,14.3483,14.3578,14.3835,14.4155,14.4597,14.4739,14.4865,14.4834,14.4729,14.4792,14.4708,14.4601,14.4516,14.4261,14.3325,14.2288,14.106,13.9272,13.7514,13.6691,13.6273,12.2059,12.2059,12.2059,12.2059,12.2059,12.2059,12.213,12.2273,12.3653,12.4534,12.5294,12.772,12.9076,12.9789,13.0886,13.1528,13.1599,13.1599,13.1599,13.1599,13.1599,13.1832,13.2167,13.2686,13.3438,13.4183,13.5026,13.5929,13.7028,13.8532,14.0289,14.2422,14.391,14.5611,14.733,14.7672,14.7686,14.7686,14.7686,14.7686,14.7686,14.7686,14.7686,14.7686,14.7686,14.7686,14.7686,14.7686,14.7686,14.7686,14.7686,14.7686,14.7686,14.7686,14.7686,14.7686,14.7686,14.7686,14.7686,14.7686,14.8658,14.9481,15.0228,15.0243,14.9869,14.9032,14.8658,14.7835,14.7686,14.7686,14.7686,14.7704,14.7675,14.7646,14.7556,14.7542,14.7527,14.7556,14.7675,14.7675,14.7675,14.7616,14.7512,14.7541,14.8099,14.7309,14.7281,14.6952,14.6306,14.6187,14.5461,14.5084,14.461,14.4437,14.4261,14.4239,14.4444,14.4705,14.522,14.541,14.5573,14.5692,14.5862,14.5787,14.5654,14.5577,14.4999,14.4164,14.3216,14.2033,14.0336,13.8547,13.7715,13.7182,13.6776,12.2059,12.2059,12.2059,12.2059,12.2059,12.2059,12.2701,12.3653,12.432,12.5794,12.7435,12.8719,12.9789,13.0671,13.1242,13.1599,13.1599,13.1599,13.1599,13.1599,13.1599,13.1986,13.2465,13.302,13.3843,13.4705,13.5544,13.6349,13.7334,13.9098,14.1098,14.2728,14.434,14.6027,14.7237,14.7686,14.7686,14.7686,14.7686,14.7686,14.7686,14.7686,14.7686,14.7686,14.7686,14.7686,14.7686,14.7686,14.7686,14.7686,14.7686,14.7686,14.7686,14.7686,14.7686,14.7686,14.7686,14.7686,14.7686,14.7686,14.806,14.8508,14.8658,14.8808,14.8434,14.8284,14.7985,14.7686,14.7686,14.7686,14.7686,14.7686,14.7686,14.7686,14.7686,14.7686,14.7686,14.7686,14.7686,14.7686,14.7672,14.7643,14.7629,14.7675,14.7468,14.7178,14.6838,14.6441,14.6264,14.6136,14.5973,14.5612,14.5343,14.5183,14.5155,14.5094,14.5175,14.543,14.5856,14.6065,14.6284,14.6406,14.6505,14.6522,14.6545,14.559,14.4747,14.3953,14.2679,14.116,13.9554,13.8461,13.7753,13.7424,13.7278,12.2059,12.2059,12.2059,12.2059,12.2059,12.2059,12.3082,12.4677,12.5676,12.7032,12.929,12.9718,13.06,13.1528,13.1599,13.1599,13.1599,13.1599,13.1599,13.1651,13.1729,13.2214,13.2734,13.3369,13.4247,13.5163,13.6054,13.6697,13.755,13.848,14.0419,14.2961,14.5129,14.6401,14.7387,14.7686,14.7686,14.7686,14.7686,14.7686,14.7686,14.7686,14.7686,14.7686,14.7686,14.7686,14.7686,14.7686,14.7686,14.7686,14.7686,14.7686,14.7686,14.7686,14.7686,14.7686,14.7686,14.7686,14.7686,14.7686,14.7761,14.791,14.791,14.7761,14.7686,14.7761,14.7761,14.7686,14.7686,14.7686,14.7686,14.7686,14.7686,14.7686,14.7686,14.7686,14.7686,14.7686,14.7686,14.7686,14.7686,14.7657,14.7672,14.7657,14.7675,14.7543,14.7361,14.7067,14.6921,14.6954,14.6714,14.6353,14.6138,14.601,14.5917,14.573,14.5898,14.6084,14.6392,14.6653,14.6788,14.6954,14.7209,14.7271,14.7119,14.6189,14.4705,14.2882,14.1504,14.0025,13.9075,13.8399,13.7907,13.7652,13.7485,12.2059,12.2059,12.2059,12.2059,12.2059,12.2059,12.3011,12.4819,12.7649,12.9076,12.9433,13.0886,13.1385,13.1528,13.1599,13.1599,13.1599,13.1599,13.1599,13.1651,13.1832,13.2267,13.2902,13.3664,13.4582,13.5544,13.64,13.6966,13.7542,13.8272,14.0045,14.2737,14.5742,14.7088,14.7536,14.7686,14.7686,14.7686,14.7686,14.7686,14.7686,14.7686,14.7686,14.7686,14.7686,14.7686,14.7686,14.7686,14.7686,14.7686,14.7686,14.7686,14.7686,14.7686,14.7686,14.7686,14.7686,14.7686,14.7686,14.7686,14.7686,14.7686,14.7686,14.7686,14.7686,14.7686,14.7686,14.7686,14.7686,14.7686,14.7686,14.7686,14.7686,14.7686,14.7686,14.7686,14.7686,14.7686,14.7686,14.7686,14.7686,14.7686,14.7686,14.7746,14.7704,14.7616,14.7528,14.7302,14.7302,14.7363,14.7225,14.6847,14.6805,14.6704,14.6562,14.6384,14.6475,14.6423,14.6822,14.7035,14.7178,14.7302,14.7423,14.7527,14.76,14.6734,14.4811,14.2842,14.0709,13.9517,13.8533,13.7947,13.7897,13.7755,13.7694,12.2059,12.2059,12.2059,12.2059,12.2059,12.2059,12.3082,12.4937,12.7888,12.9861,13.0717,13.1242,13.1599,13.1599,13.1599,13.1599,13.1599,13.1599,13.1599,13.1625,13.1884,13.2391,13.3043,13.3858,13.4867,13.5857,13.6599,13.7148,13.7612,13.7748,13.9746,14.2886,14.6041,14.7312,14.7686,14.7686,14.7686,14.7686,14.7686,14.7686,14.7686,14.7686,14.7686,14.7686,14.7686,14.7686,14.7686,14.7686,14.7686,14.7686,14.7686,14.7686,14.7686,14.7686,14.7686,14.7686,14.7686,14.7686,14.7686,14.7686,14.7686,14.7686,14.7686,14.7686,14.7686,14.7686,14.7686,14.7686,14.7686,14.7686,14.7686,14.7686,14.7686,14.7686,14.7686,14.7686,14.7686,14.7686,14.7686,14.7686,14.7686,14.7686,14.7686,14.7746,14.7732,14.7704,14.7675,14.7675,14.766,14.7646,14.7557,14.7317,14.7209,14.7115,14.6976,14.6944,14.6912,14.6879,14.7099,14.7361,14.7408,14.7169,14.7496,14.7672,14.6611,14.555,14.4372,14.2789,14.0477,13.8895,13.8135,13.7891,13.7863,13.7789,13.7775,12.2059,12.2059,12.2059,12.2059,12.2059,12.2059,12.3343,12.5508,12.7577,12.9672,13.1242,13.1599,13.1599,13.1599,13.1599,13.1599,13.1599,13.1599,13.1599,13.1651,13.2012,13.2539,13.3277,13.4119,13.5105,13.6033,13.6729,13.7222,13.7667,13.8584,14.0507,14.2662,14.5279,14.7013,14.7611,14.7686,14.7686,14.7686,14.7686,14.7686,14.7686,14.7686,14.7686,14.7686,14.7686,14.7686,14.7686,14.7686,14.7686,14.7686,14.7686,14.7686,14.7686,14.7686,14.7686,14.7686,14.7686,14.7686,14.7686,14.7686,14.7686,14.7686,14.7686,14.7686,14.7686,14.7686,14.7686,14.7686,14.7686,14.7686,14.7686,14.7686,14.7686,14.7686,14.7686,14.7686,14.7686,14.7686,14.7686,14.7686,14.7686,14.7686,14.7686,14.7672,14.7746,14.7732,14.7718,14.7732,14.7732,14.7732,14.7732,14.7616,14.7572,14.7513,14.7423,14.7378,14.7348,14.7317,14.7408,14.7512,14.7168,14.6853,14.6849,14.6401,14.5354,14.4157,14.2947,14.1588,13.9671,13.8563,13.8136,13.785,13.7815,13.7815,13.7815,12.2059,12.2059,12.2059,12.2059,12.2059,12.2059,12.3843,12.6553,12.7124,12.879,13.1385,13.1599,13.1599,13.1599,13.1599,13.1599,13.1599,13.1599,13.1625,13.1807,13.2117,13.2734,13.3502,13.4364,13.5451,13.6343,13.6876,13.7354,13.7789,13.9161,14.0881,14.2961,14.498,14.6564,14.7611,14.7686,14.7686,14.7686,14.7686,14.7686,14.7686,14.7686,14.7686,14.7686,14.7686,14.7686,14.7686,14.7686,14.7686,14.7686,14.7686,14.7686,14.7686,14.7686,14.7686,14.7686,14.7686,14.7686,14.7686,14.7686,14.7686,14.7686,14.7686,14.7686,14.7686,14.7686,14.7686,14.7686,14.7686,14.7686,14.7686,14.7686,14.7686,14.7686,14.7686,14.7686,14.7686,14.7686,14.7686,14.7686,14.7686,14.7686,14.7686,14.7686,14.7686,14.7686,14.7686,14.7686,14.7686,14.7672,14.7746,14.7689,14.7689,14.7571,14.7571,14.7614,14.7643,14.7672,14.7583,14.733,14.7059,14.6475,14.5802,14.5055,14.4022,14.2676,14.1479,14.0358,13.9311,13.8264,13.789,13.7815,13.7815,13.7815,13.7815,12.2059,12.2059,12.2059,12.2059,12.2059,12.2059,12.3914,12.6553,12.6981,12.8719,13.1528,13.1599,13.1599,13.1599,13.1599,13.1599,13.1599,13.1625,13.1729,13.2037,13.2441,13.309,13.3946,13.4887,13.5801,13.6632,13.7222,13.7542,13.789,13.9549,14.1255,14.326,14.5503,14.6789,14.7686,14.7686,14.7686,14.7686,14.7686,14.7686,14.7686,14.7686,14.7686,14.7686,14.7686,14.7686,14.7686,14.7686,14.7686,14.7686,14.7686,14.7686,14.7686,14.7686,14.7686,14.7686,14.7686,14.7686,14.7686,14.7761,14.7761,14.791,14.7835,14.7686,14.7686,14.7686,14.7686,14.7686,14.7686,14.7686,14.7686,14.7686,14.7686,14.7686,14.7686,14.7686,14.7686,14.7686,14.7686,14.7686,14.7686,14.7686,14.7686,14.7686,14.7686,14.7686,14.7686,14.7686,14.7686,14.7686,14.7686,14.7686,14.7686,14.7686,14.7686,14.7597,14.7508,14.7536,14.7162,14.7013,14.634,14.5877,14.5204,14.3784,14.2451,14.118,14.0208,13.9386,13.8638,13.7965,13.789,13.7815,13.7815,13.7815,13.7815,12.2059,12.1988,12.1417,12.1132,12.1227,12.1774,12.3914,12.6625,12.6981,12.8719,13.1599,13.1599,13.1599,13.1599,13.1599,13.1599,13.1599,13.1703,13.1935,13.2217,13.2806,13.3529,13.4374,13.5299,13.6138,13.6856,13.7385,13.7681,13.8101,14.0432,14.184,14.3485,14.6116,14.7312,14.7686,14.7686,14.7686,14.7686,14.7686,14.7686,14.7686,14.7686,14.7686,14.7686,14.7686,14.7686,14.7686,14.7686,14.7686,14.7686,14.7686,14.7686,14.7686,14.7686,14.7686,14.7686,14.7686,14.8135,14.8583,14.8808,14.8733,14.8583,14.806,14.7686,14.7686,14.7686,14.7686,14.7686,14.7686,14.7686,14.7686,14.7686,14.7686,14.7686,14.7686,14.7686,14.7686,14.7686,14.7686,14.7686,14.7686,14.7686,14.7686,14.7686,14.7686,14.7686,14.7686,14.7686,14.7686,14.7686,14.7686,14.7686,14.7686,14.7686,14.7686,14.7611,14.7462,14.7013,14.6564,14.5653,14.4606,14.4307,14.3498,14.2078,14.0657,13.9834,13.9086,13.8339,13.804,13.789,13.7815,13.7815,13.7815,13.7815,13.7815,12.1845,12.1631,12.03,11.98,11.9895,12.1441,12.3914,12.691,12.6981,12.8719,13.1385,13.1599,13.1599,13.1599,13.1599,13.1625,13.1651,13.1863,13.2192,13.2637,13.3184,13.3989,13.4834,13.5619,13.6376,13.7073,13.75,13.7708,13.8536,14.0868,14.2363,14.3335,14.619,14.7312,14.7686,14.7686,14.7686,14.7686,14.7686,14.7686,14.7686,14.7686,14.7686,14.7686,14.7686,14.7686,14.7686,14.7686,14.7686,14.7686,14.7686,14.7686,14.7686,14.7686,14.7686,14.7835,14.7985,14.8882,14.9555,14.9854,15.0093,14.9705,14.8882,14.7686,14.7686,14.7686,14.7686,14.7686,14.7686,14.7686,14.7686,14.7686,14.7686,14.7686,14.7686,14.7686,14.7686,14.7686,14.7686,14.7686,14.7686,14.7686,14.7686,14.7686,14.7686,14.7686,14.7686,14.7686,14.7686,14.7686,14.7686,14.7686,14.7686,14.7611,14.7611,14.7162,14.6639,14.619,14.5429,14.4232,14.3036,14.2003,14.1269,14.0133,13.946,13.8638,13.7815,13.789,13.7965,13.7815,13.7815,13.7815,13.7815,13.7815,13.7815,11.9657,11.8635,11.9443,11.9729,11.9871,12.1441,12.3914,12.6767,12.691,12.8719,13.0957,13.1599,13.1599,13.1599,13.1625,13.1755,13.1863,13.2117,13.254,13.3135,13.3786,13.4632,13.5471,13.6224,13.6888,13.75,13.7653,13.7762,13.8849,14.0881,14.2886,14.3036,14.6116,14.7462,14.7686,14.7686,14.7686,14.7686,14.7686,14.7686,14.7686,14.7686,14.7686,14.7686,14.7686,14.7686,14.7686,14.7686,14.7686,14.7686,14.7686,14.7686,14.7686,14.7686,14.7686,14.791,14.8897,14.9705,15.0004,15.0228,15.0228,14.9705,14.8808,14.7686,14.7686,14.7686,14.7686,14.7686,14.7686,14.7686,14.7686,14.7686,14.7686,14.7686,14.7686,14.7686,14.7686,14.7686,14.7686,14.7686,14.7686,14.7686,14.7686,14.7686,14.7686,14.7686,14.7686,14.7686,14.7686,14.7686,14.7686,14.7686,14.7611,14.7312,14.7088,14.6489,14.5802,14.5204,14.4083,14.2961,14.1554,14.0358,13.9623,13.9012,13.8339,13.7815,13.7815,13.7815,13.7815,13.7815,13.7815,13.7815,13.7815,13.7815,13.7815,11.7231,11.6495,11.7351,11.8088,11.8872,12.0371,12.294,12.558,12.6625,12.8337,13.036,13.1242,13.1599,13.1625,13.1729,13.1935,13.2192,13.2589,13.3112,13.3836,13.455,13.5394,13.6155,13.6793,13.7237,13.757,13.7735,13.7815,13.8862,14.0881,14.2886,14.3335,14.5966,14.7686,14.7686,14.7686,14.7686,14.7686,14.7686,14.7686,14.7686,14.7686,14.7686,14.7686,14.7686,14.7686,14.7686,14.7686,14.7686,14.7686,14.7686,14.7686,14.7686,14.7686,14.7761,14.791,14.9345,15.0168,15.0228,15.0228,15.0228,14.9854,14.8808,14.7761,14.7686,14.7686,14.7686,14.7686,14.7686,14.7686,14.7686,14.7686,14.7686,14.7686,14.7686,14.7686,14.7686,14.7686,14.7686,14.7686,14.7686,14.7686,14.7686,14.7686,14.7686,14.7686,14.7686,14.7686,14.7686,14.7686,14.7686,14.7686,14.7387,14.6863,14.619,14.5293,14.4382,14.3274,14.2227,14.133,13.9984,13.9236,13.8787,13.8114,13.789,13.7815,13.7815,13.7815,13.7815,13.7815,13.7815,13.7815,13.7815,13.7815,13.7815,11.4997,11.4854,11.5068,11.5995,11.7588,11.9158,12.1608,12.4677,12.6268,12.7766,12.9575,13.086,13.1599,13.1651,13.1858,13.2214,13.2661,13.3207,13.388,13.455,13.5375,13.6107,13.6739,13.7297,13.7471,13.7653,13.7775,13.7802,13.8563,14.1241,14.2812,14.3485,14.5877,14.7686,14.7686,14.7686,14.7686,14.7686,14.7686,14.7686,14.7686,14.7686,14.7686,14.7686,14.7686,14.7686,14.7686,14.7686,14.7686,14.7686,14.7686,14.7686,14.7686,14.7686,14.7686,14.8209,14.9107,15.0168,14.9869,15.0093,15.0228,14.9406,14.8508,14.791,14.7686,14.7686,14.7686,14.7686,14.7686,14.7686,14.7686,14.7686,14.7686,14.7686,14.7686,14.7686,14.7686,14.7686,14.7686,14.7686,14.7686,14.7686,14.7686,14.7686,14.7686,14.7686,14.7686,14.7686,14.7686,14.7686,14.7686,14.7387,14.7088,14.5816,14.4919,14.3573,14.2451,14.1194,14.0371,13.9685,13.8937,13.8413,13.789,13.7965,13.789,13.7815,13.7815,13.7815,13.7815,13.7815,13.7815,13.7815,13.7815,13.7815,13.7815,11.4355,11.3307,11.4569,11.5995,11.7517,11.9087,12.1608,12.4534,12.6222,12.772,12.9361,13.0814,13.1554,13.1677,13.1986,13.2465,13.3181,13.388,13.4644,13.5394,13.6107,13.6739,13.7162,13.7546,13.77,13.7748,13.7802,13.7815,13.8488,14.1241,14.2587,14.3709,14.6116,14.7686,14.7686,14.7686,14.7686,14.7686,14.7686,14.7686,14.7686,14.7686,14.7686,14.7686,14.7686,14.7686,14.7686,14.7686,14.7686,14.7686,14.7686,14.7686,14.7686,14.7686,14.7686,14.7985,14.9331,14.9271,14.9032,14.9256,14.9481,14.8583,14.7985,14.7761,14.7686,14.7686,14.7686,14.7686,14.7686,14.7686,14.7686,14.7686,14.7686,14.7686,14.7686,14.7686,14.7686,14.7686,14.7686,14.7686,14.7686,14.7686,14.7686,14.7686,14.7686,14.7686,14.7686,14.7686,14.7686,14.7686,14.7088,14.6863,14.6116,14.4681,14.3274,14.1928,14.0582,13.9698,13.9236,13.8713,13.8264,13.7815,13.7815,13.789,13.7815,13.7815,13.7815,13.7815,13.7815,13.7815,13.7815,13.7815,13.7815,13.7815,13.7815,11.345,11.2808,11.3592,11.5282,11.7303,11.8302,12.0442,12.3368,12.508,12.6725,12.8397,12.9923,13.1143,13.1894,13.2289,13.2902,13.3836,13.4644,13.5413,13.6125,13.6755,13.7208,13.7471,13.7626,13.7748,13.7789,13.7815,13.7815,13.8189,14.1241,14.2662,14.3634,14.6116,14.7686,14.7686,14.7686,14.7686,14.7686,14.7686,14.7686,14.7686,14.7686,14.7686,14.7686,14.7686,14.7686,14.7686,14.7686,14.7686,14.7686,14.7686,14.7686,14.7686,14.7686,14.7686,14.7835,14.8434,14.8508,14.8209,14.8359,14.8733,14.7835,14.7761,14.7686,14.7686,14.7686,14.7686,14.7686,14.7686,14.7686,14.7686,14.7686,14.7686,14.7686,14.7686,14.7686,14.7686,14.7686,14.7686,14.7686,14.7686,14.7686,14.7686,14.7686,14.7686,14.7686,14.7686,14.7686,14.7686,14.7088,14.6102,14.5653,14.4844,14.3349,14.1778,14.0283,13.8862,13.8713,13.8413,13.8114,13.7815,13.7815,13.7815,13.7815,13.7815,13.7815,13.7815,13.7815,13.7815,13.7815,13.7815,13.7815,13.7815,13.7815,13.7815,11.2736,11.2736,11.2736,11.4591,11.716,11.7492,11.9372,12.2132,12.4157,12.5733,12.7599,12.9129,13.0904,13.2228,13.2854,13.3506,13.4437,13.5356,13.616,13.6771,13.7162,13.7457,13.7626,13.7748,13.7802,13.7815,13.7815,13.7815,13.8563,14.1031,14.2737,14.3559,14.6116,14.7686,14.7686,14.7686,14.7686,14.7686,14.7686,14.7686,14.7686,14.7686,14.7686,14.7686,14.7686,14.7686,14.7686,14.7686,14.7686,14.7686,14.7686,14.7686,14.7686,14.7686,14.7686,14.7761,14.791,14.7985,14.7761,14.7835,14.7761,14.7686,14.7686,14.7686,14.7686,14.7686,14.7686,14.7686,14.7686,14.7686,14.7686,14.7686,14.7686,14.7686,14.7686,14.7686,14.7686,14.7686,14.7686,14.7686,14.7686,14.7686,14.7686,14.7686,14.7686,14.7686,14.7162,14.6714,14.6564,14.5891,14.498,14.4232,14.341,14.1853,14.0446,13.9012,13.804,13.8114,13.804,13.7815,13.7815,13.7815,13.7815,13.7815,13.7815,13.7815,13.7815,13.7815,13.7815,13.7815,13.7815,13.7815,13.7815,13.7815,13.7815,11.2736,11.2736,11.2736,11.452,11.7183,11.77,11.9509,12.2371,12.4351,12.5903,12.7888,12.9518,13.1002,13.2938,13.3586,13.4141,13.4907,13.5893,13.6723,13.7192,13.7471,13.7626,13.7735,13.7789,13.7815,13.7815,13.7815,13.7815,13.8713,14.0942,14.2587,14.341,14.6116,14.7462,14.7686,14.7686,14.7686,14.7686,14.7686,14.7686,14.7686,14.7686,14.7686,14.7686,14.7686,14.7686,14.7686,14.7686,14.7686,14.7686,14.7686,14.7686,14.7686,14.7686,14.7686,14.7686,14.7686,14.7686,14.7686,14.7686,14.7686,14.7686,14.7686,14.7686,14.7686,14.7686,14.7686,14.7686,14.7686,14.7686,14.7686,14.7686,14.7686,14.7686,14.7686,14.7686,14.7686,14.7686,14.7686,14.7686,14.7686,14.7686,14.7686,14.7387,14.7611,14.7536,14.634,14.5429,14.5069,14.4457,14.3634,14.2812,14.1629,14.0133,13.9685,13.8638,13.7965,13.7965,13.789,13.7815,13.7815,13.7815,13.7815,13.7815,13.7815,13.7815,13.7815,13.7815,13.7815,13.7815,13.7815,13.7815,13.7815,13.7815,13.6993,11.3134,11.3112,11.3134,11.4538,11.6655,11.7792,11.9555,12.1774,12.3655,12.5487,12.7105,12.8092,13.0188,13.2808,13.3421,13.4332,13.5323,13.6332,13.704,13.7442,13.7653,13.7748,13.7815,13.7815,13.7815,13.7815,13.7815,13.7815,13.8413,14.0208,14.2078,14.3036,14.5218,14.6789,14.7611,14.7686,14.7686,14.7686,14.7686,14.7686,14.7686,14.7686,14.7686,14.7686,14.7686,14.7686,14.7686,14.7686,14.7686,14.7686,14.7686,14.7686,14.7686,14.7686,14.7686,14.7686,14.7686,14.7686,14.7686,14.7686,14.7611,14.7686,14.7686,14.7686,14.7686,14.7686,14.7686,14.7686,14.7686,14.7686,14.7686,14.7686,14.7686,14.7686,14.7686,14.7686,14.7686,14.7686,14.7686,14.7686,14.7536,14.7536,14.7237,14.6564,14.6489,14.6116,14.498,14.3933,14.3559,14.2676,14.1914,14.118,13.9909,13.9161,13.8937,13.8563,13.789,13.7815,13.7815,13.7815,13.7815,13.7815,13.7815,13.7815,13.7815,13.7815,13.7815,13.7815,13.7815,13.774,13.7666,13.774,13.7516,13.6694,13.5796,11.3655,11.3655,11.3647,11.4687,11.6274,11.806,11.9817,12.1546,12.337,12.531,12.6668,12.7227,12.9296,13.2204,13.2728,13.3912,13.5484,13.6093,13.6925,13.7463,13.7748,13.7802,13.7815,13.7815,13.7815,13.7815,13.7815,13.7815,13.8189,13.961,14.118,14.2886,14.4606,14.6027,14.7462,14.7686,14.7686,14.7686,14.7686,14.7686,14.7686,14.7686,14.7686,14.7686,14.7686,14.7686,14.7686,14.7686,14.7686,14.7686,14.7686,14.7686,14.7686,14.7686,14.7686,14.7611,14.7462,14.7088,14.7088,14.6639,14.6639,14.6415,14.6625,14.7162,14.7162,14.7387,14.7686,14.7686,14.7686,14.7686,14.7686,14.7686,14.7686,14.7686,14.7686,14.7686,14.7686,14.7387,14.7088,14.6938,14.6714,14.6639,14.6489,14.5218,14.483,14.4531,14.3634,14.2587,14.1704,14.0806,14.0283,13.9834,13.8862,13.8488,13.8339,13.8114,13.7815,13.7815,13.7815,13.7815,13.7815,13.7815,13.7815,13.7815,13.7815,13.7815,13.7815,13.7815,13.774,13.7591,13.7516,13.7142,13.6544,13.5422,13.4525,11.4018,11.4039,11.4188,11.5136,11.6736,11.8762,12.0346,12.2196,12.4052,12.5947,12.7436,12.804,12.928,13.1543,13.1874,13.3049,13.4794,13.5091,13.6124,13.6893,13.7511,13.7591,13.7591,13.7666,13.7815,13.7815,13.7815,13.7815,13.8189,13.9399,14.1105,14.2587,14.4232,14.5952,14.7088,14.7686,14.7686,14.7686,14.7686,14.7686,14.7686,14.7686,14.7686,14.7686,14.7686,14.7686,14.7686,14.7686,14.77,14.7686,14.7686,14.7686,14.7686,14.7686,14.7686,14.7536,14.6489,14.5667,14.5429,14.4531,14.3559,14.3933,14.4905,14.5443,14.5728,14.6714,14.7387,14.7387,14.7686,14.7686,14.7686,14.7686,14.7686,14.7686,14.7536,14.7611,14.7462,14.6415,14.5503,14.5429,14.4157,14.3559,14.3335,14.3185,14.3111,14.29,14.1778,14.0881,14.0208,13.946,13.8937,13.8563,13.8264,13.7815,13.7815,13.7815,13.7815,13.7815,13.7815,13.7815,13.7815,13.7815,13.7815,13.7815,13.7815,13.7815,13.774,13.7591,13.7591,13.7292,13.617,13.5871,13.5572,13.4226,13.3179,11.4902,11.4921,11.5051,11.5561,11.6508,11.8293,11.953,12.0821,12.3373,12.5229,12.6058,12.7202,12.8739,13.0435,13.0822,13.1887,13.3462,13.3804,13.4271,13.5106,13.5994,13.6394,13.6694,13.7516,13.7815,13.7815,13.7815,13.7815,13.7965,13.8502,13.9759,14.1479,14.305,14.4606,14.619,14.7088,14.7686,14.7686,14.7686,14.7686,14.7686,14.7686,14.7686,14.7686,14.7686,14.7686,14.7686,14.7686,14.7742,14.7798,14.7742,14.7686,14.7686,14.7686,14.7686,14.7686,14.6116,14.5204,14.4905,14.3784,14.2886,14.2961,14.3335,14.3784,14.4157,14.5279,14.6251,14.6415,14.7237,14.7611,14.7686,14.7686,14.7686,14.7387,14.6041,14.4905,14.4905,14.4321,14.3933,14.3709,14.3335,14.2886,14.2886,14.1989,14.1554,14.1105,13.9984,13.9386,13.9012,13.8339,13.789,13.804,13.789,13.7815,13.7815,13.7815,13.7815,13.7815,13.7815,13.7815,13.7815,13.7815,13.7815,13.774,13.7815,13.774,13.7292,13.7067,13.6843,13.6021,13.4811,13.4063,13.3628,13.2656,13.1758,11.5737,11.5771,11.5987,11.6165,11.6513,11.8129,11.9023,11.9634,12.2613,12.3889,12.4391,12.5985,12.7469,12.8641,12.932,13.0558,13.1841,13.2231,13.2419,13.3017,13.3927,13.4151,13.4525,13.6095,13.7367,13.7815,13.7815,13.7815,13.7815,13.789,13.8787,14.0371,14.1704,14.305,14.4606,14.619,14.7013,14.7088,14.7387,14.77,14.7742,14.7756,14.7831,14.7784,14.7812,14.7812,14.7798,14.7798,14.788,14.8053,14.7948,14.7853,14.7901,14.7784,14.7546,14.6933,14.547,14.4457,14.3634,14.2288,14.1541,14.1541,14.184,14.2152,14.2227,14.3634,14.4457,14.483,14.5578,14.634,14.634,14.6265,14.634,14.6116,14.4531,14.3111,14.3036,14.2587,14.2213,14.2064,14.1704,14.1316,14.1031,14.0358,13.9685,13.9535,13.8787,13.7965,13.8189,13.7815,13.7815,13.7815,13.7815,13.7815,13.7815,13.7815,13.7815,13.7815,13.7591,13.7516,13.7441,13.7441,13.7516,13.7217,13.6768,13.6095,13.6008,13.5796,13.5409,13.4811,13.3615,13.2356,13.1833,13.101,13.0038,11.6537,11.6567,11.6881,11.6908,11.7173,11.8784,11.9504,12.0073,12.1838,12.2663,12.3081,12.4641,12.5601,12.6013,12.7471,12.8892,13.0337,13.05,13.1235,13.1758,13.1534,13.1173,13.1621,13.4002,13.6095,13.7441,13.774,13.7815,13.7815,13.7815,13.8651,14.0072,14.0521,14.133,14.2975,14.4545,14.5382,14.562,14.6817,14.7499,14.7771,14.7771,14.79,14.8079,14.8167,14.8092,14.8105,14.8156,14.8256,14.8436,14.8365,14.8256,14.8105,14.7974,14.7036,14.5749,14.4029,14.2492,14.082,13.9637,13.8576,13.8713,13.9759,14.0446,14.0745,14.1928,14.2961,14.2961,14.3335,14.3485,14.3485,14.3559,14.326,14.3111,14.2064,14.184,14.2438,14.1031,13.9984,13.9834,13.9012,13.8114,13.804,13.7965,13.774,13.774,13.7591,13.7292,13.7367,13.7367,13.7666,13.7815,13.7815,13.7815,13.7815,13.7815,13.7815,13.7591,13.7067,13.6918,13.6768,13.6843,13.6843,13.6095,13.5348,13.4587,13.4063,13.3628,13.3254,13.288,13.2057,13.101,13.0038,12.9066,12.8019,11.724,11.7267,11.7383,11.7537,11.7624,11.8288,11.8674,11.8948,12.0589,12.1397,12.1744,12.3212,12.3972,12.4283,12.5752,12.6823,12.7421,12.8543,12.8692,12.8306,12.8543,12.9602,13.0649,13.1846,13.3628,13.6021,13.7367,13.7815,13.7815,13.7815,13.8114,13.8937,13.9848,14.0745,14.133,14.2982,14.3859,14.396,14.4616,14.5405,14.6381,14.668,14.7266,14.8215,14.8377,14.8365,14.8401,14.8595,14.8741,14.8741,14.8721,14.8606,14.8256,14.7313,14.6454,14.5255,14.3306,14.1332,14.0442,13.8857,13.7907,13.7903,13.8413,13.8787,13.9086,14.0283,14.1255,14.1479,14.2152,14.2886,14.2812,14.2812,14.1316,13.8713,13.7503,13.668,13.6606,13.6008,13.5783,13.5871,13.5348,13.4886,13.4736,13.4736,13.4749,13.4749,13.4811,13.4961,13.6095,13.632,13.7067,13.7516,13.7367,13.7292,13.7591,13.7591,13.7666,13.6944,13.6209,13.5848,13.5523,13.5523,13.5422,13.46,13.3927,13.3166,13.2493,13.1983,13.1384,13.0711,13.02,12.9378,12.8692,12.7571,12.63,11.7692,11.7717,11.7841,11.789,11.7902,11.7998,11.8108,11.8194,11.9322,11.9955,12.0254,12.1589,12.2336,12.271,12.3969,12.4792,12.4879,12.5926,12.6225,12.5926,12.6823,12.8094,12.9527,13.02,13.1684,13.3927,13.6021,13.7292,13.774,13.7815,13.7815,13.7965,13.9012,13.9562,13.969,14.1392,14.2331,14.2493,14.3049,14.3874,14.5015,14.523,14.5821,14.7057,14.7659,14.7666,14.7332,14.7574,14.7671,14.748,14.7976,14.8185,14.7624,14.629,14.5122,14.4274,14.2167,14.0732,13.9967,13.877,13.8097,13.7971,13.7907,13.7881,13.8031,13.8964,13.946,13.9698,14.0582,14.1316,14.1167,14.0942,13.8774,13.5123,13.369,13.3316,13.354,13.3241,13.2942,13.2942,13.2942,13.2942,13.3017,13.3091,13.3241,13.3241,13.3166,13.3465,13.4363,13.4662,13.5273,13.6021,13.617,13.5871,13.5559,13.5335,13.5412,13.5127,13.4553,13.419,13.3891,13.3779,13.3591,13.3117,13.2506,13.1895,13.1147,13.0562,12.9964,12.9303,12.8929,12.8244,12.7421,12.63,12.5028,11.7974,11.7986,11.8103,11.8126,11.8114,11.8201,11.8149,11.8137,11.831,11.8448,11.8684,11.9955,12.0703,12.1002,12.2336,12.2997,12.2923,12.3222,12.3981,12.5103,12.5477,12.6449,12.8094,12.9378,13.0275,13.1098,13.3927,13.617,13.7516,13.774,13.7815,13.7815,13.7978,13.8206,13.8172,13.9907,14.0824,14.1189,14.2392,14.3522,14.3825,14.387,14.4065,14.4503,14.5677,14.5895,14.4781,14.488,14.5037,14.5102,14.6196,14.6781,14.6425,14.4955,14.3353,14.2135,14.1357,14.0295,13.8977,13.8568,13.8318,13.8242,13.8109,13.806,13.8035,13.8095,13.8031,13.7943,13.8066,13.7903,13.7754,13.6658,13.5025,13.3254,13.2619,13.2395,13.2594,13.2805,13.288,13.2606,13.2469,13.2805,13.2805,13.2395,13.2257,13.232,13.2395,13.2544,13.2931,13.3006,13.3042,13.3267,13.3903,13.4315,13.3666,13.3042,13.3205,13.3262,13.2784,13.2346,13.1913,13.1767,13.1668,13.1557,13.0946,13.0424,12.9676,12.9453,12.878,12.8019,12.787,12.7421,12.615,12.4804,12.3545,11.8103,11.8103,11.8137,11.8149,11.8149,11.8149,11.8149,11.8149,11.8149,11.8149,11.8224,11.8758,11.8983,11.9282,12.0703,12.0927,11.9943,12.1002,12.175,12.2348,12.3383,12.4792,12.63,12.6898,12.8244,13.035,13.1621,13.3553,13.6021,13.7292,13.7815,13.7829,13.7907,13.8022,13.8257,13.8975,13.9446,13.967,14.0326,14.1376,14.2454,14.2586,14.3155,14.4178,14.395,14.3448,14.3117,14.4183,14.479,14.479,14.5233,14.5424,14.5127,14.368,14.2462,14.1711,14.064,13.9607,13.8958,13.8841,13.8708,13.8525,13.8396,13.837,13.8301,13.8254,13.7583,13.6811,13.6437,13.5775,13.4765,13.3313,13.2173,13.1578,13.0506,12.9831,12.9831,12.9831,12.9918,12.9981,12.9981,12.9906,12.9756,12.9831,12.9906,12.9756,12.9831,13.0356,13.118,13.1554,13.1791,13.2978,13.299,13.2915,13.2836,13.1461,13.0862,13.0807,13.0463,13.0056,12.9779,12.9779,12.9724,12.968,12.9387,12.8857,12.8476,12.823,12.752,12.6599,12.6324,12.5887,12.4529,12.3245,12.1525,11.8346,11.8346,11.8302,11.8291,11.8216,11.8246,11.8149,11.8149,11.8149,11.8149,11.8149,11.8149,11.8149,11.8224,11.9357,11.9207,11.8384,11.9282,12.0179,12.0789,12.1738,12.3084,12.458,12.5327,12.6823,12.863,12.9901,13.2158,13.5337,13.6586,13.736,13.7834,13.8097,13.8254,13.8438,13.8714,13.8923,13.9162,13.9346,13.9935,14.099,14.1196,14.1767,14.2787,14.197,14.1474,14.1474,14.2461,14.3066,14.3066,14.3676,14.3666,14.2962,14.246,14.1953,14.1148,14.0121,13.9422,13.9188,13.9168,13.9047,13.8838,13.8267,13.772,13.761,13.7065,13.6314,13.5325,13.4988,13.3885,13.216,13.0807,13.0152,12.9929,12.9135,12.8589,12.8438,12.8438,12.8438,12.8438,12.8428,12.8438,12.8664,12.8438,12.8438,12.8438,12.8438,12.8964,12.979,13.0015,13.0315,13.1366,13.1666,13.171,13.1836,13.0002,12.8871,12.8871,12.8871,12.9021,12.9051,12.9136,12.9135,12.9246,12.9015,12.8566,12.8481,12.8244,12.7509,12.6426,12.4899,12.4237,12.2544,12.1175,11.9431,11.858,11.8559,11.839,11.8433,11.8412,11.8239,11.8183,11.8194,11.8183,11.8171,11.8171,11.8246,11.8171,11.828,11.8344,11.8246,11.8246,11.8332,11.9092,12.0438,12.0588,12.1462,12.3009,12.4592,12.5426,12.6273,12.8616,13.1658,13.5126,13.5621,13.658,13.793,13.807,13.8408,13.8774,13.8914,13.9177,13.9364,13.9561,13.9657,13.9811,13.962,13.9503,13.9683,13.9692,13.9616,13.9692,13.9692,13.9768,13.9692,14.1135,14.1288,14.007,14.1121,14.1102,13.971,13.9454,13.9405,13.9168,13.8955,13.8858,13.8605,13.722,13.6365,13.6276,13.5148,13.4134,13.37,13.338,13.2176,12.9872,12.9294,12.8964,12.8928,12.876,12.8712,12.8693,12.8712,12.8683,12.8693,12.8712,12.8712,12.8703,12.8683,12.8703,12.8703,12.8768,12.8853,12.9013,12.8853,12.8928,12.9079,12.9108,12.8976,12.9297,12.9304,12.9221,12.9221,12.9221,12.9207,12.9146,12.9083,12.9001,12.8857,12.8437,12.8289,12.8477,12.7993,12.7,12.5887,12.4312,12.222,12.0304,11.8976,11.7285,11.872,11.872,11.8692,11.8634,11.849,11.846,11.8484,11.8486,11.8476,11.8422,11.8283,11.8346,11.8369,11.8505,11.8432,11.8465,11.8465,11.8476,11.8775,11.9065,11.915,12.0039,12.1387,12.2062,12.3411,12.567,12.6797,12.9038,13.2073,13.3534,13.5015,13.6475,13.6878,13.7674,13.8774,13.9153,13.9382,13.9582,13.9794,13.9848,13.9592,13.7573,13.6368,13.6295,13.6295,13.6295,13.6295,13.6295,13.6295,13.6297,13.6674,13.6826,13.6447,13.6825,13.6897,13.628,13.6188,13.624,13.6208,13.6101,13.5977,13.5913,13.5445,13.5061,13.499,13.4604,13.3751,13.2469,13.1326,13.0508,12.9402,12.9336,12.9245,12.9139,12.9101,12.9138,12.9008,12.9067,12.8992,12.9143,12.8916,12.9075,12.9067,12.9143,12.9067,12.9067,12.9067,12.9143,12.9143,12.9067,12.9067,12.9075,12.9075,12.9207,12.9524,12.9507,12.9582,12.9507,12.9431,12.9344,12.949,12.9361,12.9229,12.8124,12.7664,12.7365,12.7205,12.6044,12.4812,12.419,12.2899,12.0806,11.8101,11.7042,11.5331,11.8981,11.9002,11.9045,11.8904,11.8818,11.8738,11.8664,11.8673,11.8634,11.8585,11.8545,11.8663,11.8664,11.8626,11.872,11.8654,11.869,11.8615,11.8615,11.869,11.8699,11.914,12.0041,12.0717,12.2013,12.4006,12.5503,12.715,12.9258,13.1583,13.3616,13.5121,13.5496,13.6109,13.71,13.7344,13.7576,13.7779,13.7893,13.7857,13.7654,13.5992,13.5006,13.5006,13.5006,13.493,13.493,13.493,13.493,13.4854,13.4246,13.4019,13.4095,13.3411,13.3259,13.3865,13.3938,13.4234,13.4829,13.4819,13.48,13.4761,13.4119,13.3622,13.3651,13.2922,13.1525,12.9394,12.8273,12.7707,12.7515,12.755,12.75,12.7441,12.7382,12.7342,12.7376,12.7351,12.771,12.8328,12.8397,12.8548,12.9235,12.9462,12.9386,12.9386,12.9386,12.9386,12.9386,12.9386,12.9462,12.9393,12.8803,12.8835,12.9613,12.9717,12.9338,12.8879,12.8652,12.8197,12.7814,12.7567,12.7545,12.7447,12.6567,12.5971,12.5724,12.4742,12.3818,12.2776,12.1481,11.9234,11.5798,11.448,11.2505,11.9392,11.9374,11.94,11.9328,11.9169,11.895,11.887,11.8828,11.8827,11.8876,11.8887,11.9072,11.9087,11.8886,11.8794,11.8811,11.8809,11.8783,11.8858,11.8858,11.8783,11.8858,11.9092,12.0371,12.1235,12.1832,12.4436,12.6044,12.6994,12.9742,13.2008,13.356,13.4032,13.4287,13.4621,13.4713,13.4867,13.4931,13.4289,13.4087,13.4246,13.417,13.4322,13.4626,13.4474,13.4322,13.3867,13.4019,13.3943,13.3867,13.25,13.1817,13.1665,13.045,13.0298,13.1665,13.1817,13.25,13.3712,13.4015,13.3703,13.3906,13.2307,13.1462,13.144,12.9981,12.779,12.5919,12.5169,12.5162,12.4838,12.4962,12.5164,12.5225,12.5032,12.461,12.4826,12.4568,12.5223,12.6823,12.6899,12.7505,12.849,12.8788,12.8944,12.8641,12.8565,12.8561,12.8561,12.8641,12.8641,12.8682,12.8018,12.7783,12.8701,12.9391,12.8473,12.7411,12.711,12.665,12.5812,12.5279,12.4902,12.5698,12.4855,12.4374,12.4168,12.3815,12.2837,12.0753,11.9262,11.7742,11.4805,11.2448,10.987,11.9672,11.9608,11.967,11.9561,11.9435,11.9369,11.9356,11.9252,11.9239,11.935,11.95,11.9473,11.9439,11.9329,11.9299,11.9245,11.9218,11.9244,11.9215,11.9222,11.9222,11.9215,11.9298,11.9581,12.0509,12.1738,12.2593,12.4326,12.6701,12.7738,12.901,13.0667,13.1963,13.3315,13.465,13.484,13.488,13.4612,12.9841,12.7868,12.9156,12.9151,12.9835,13.0978,12.9915,12.9233,12.9083,12.7944,12.7185,12.7185,12.6881,12.6729,12.6729,12.635,12.635,12.6653,12.6729,12.6881,12.7185,12.726,12.726,12.7182,12.6874,12.6641,12.6563,12.5049,12.4219,12.4904,12.4672,12.4819,12.4662,12.4803,12.494,12.4927,12.4914,12.4672,12.4727,12.4715,12.494,12.5167,12.5319,12.5468,12.5774,12.5926,12.6075,12.6072,12.5926,12.585,12.585,12.5926,12.5946,12.5903,12.5775,12.5787,12.5938,12.6242,12.6014,12.5711,12.5483,12.5179,12.4876,12.48,12.4873,12.4414,12.372,12.249,12.1112,12.0023,11.8613,11.725,11.6328,11.5301,11.4035,11.154,10.829,11.9803,11.9848,11.983,11.9814,11.9721,11.9699,11.9651,11.9514,11.963,11.9691,11.9817,11.9786,11.968,11.966,11.9608,11.9485,11.951,11.9554,11.9456,11.9428,11.9428,11.9445,11.9543,11.9494,12.0066,12.0943,12.1751,12.3074,12.4762,12.5695,12.6552,12.7407,12.8368,12.9389,13.0246,13.0341,13.0357,13.0293,12.6805,12.5433,12.634,12.6335,12.679,12.7705,12.6871,12.6342,12.6345,12.5511,12.46,12.3841,12.3081,12.2322,12.1563,12.0805,12.0806,12.1489,12.149,12.187,12.2629,12.2705,12.2705,12.2705,12.2704,12.2096,12.0577,11.9591,11.944,12.0351,12.0427,12.0729,12.1412,12.1486,12.1862,12.2617,12.2687,12.2681,12.2597,12.2589,12.2885,12.3568,12.3722,12.4024,12.4783,12.4859,12.4859,12.4857,12.4934,12.4933,12.4933,12.3658,12.2838,12.3692,12.3844,12.4072,12.49,12.4977,12.4596,12.3913,12.3837,12.3534,12.2774,12.2622,12.2319,12.1635,12.0797,11.9577,11.8052,11.6906,11.6052,11.4871,11.4205,11.3063,11.2103,10.9969,10.6854,11.9334,11.9557,11.954,11.9679,11.9981,11.9981,11.9894,11.9806,11.9851,11.9932,11.9987,11.9983,11.9896,11.9798,11.9795,11.9764,11.9778,11.9775,11.9676,0.0,11.9567,11.9664,11.9771,11.9778,11.9738,11.9866,12.1237,12.2087,12.2409,12.3775,12.4612,12.4844,12.4938,12.5032,12.4969,12.4977,12.4524,12.3613,12.3843,12.4063,12.4282,12.4506,12.4732,12.4961,12.4734,12.4659,12.466,12.413,12.3219,12.1778,12.0183,11.8589,11.7146,11.5863,11.5562,11.6625,11.6705,11.7238,11.8377,11.8529,11.8529,11.8529,11.8756,11.7466,11.4352,11.4201,11.4504,11.4732,11.5264,11.5643,11.6858,11.7238,11.7845,11.906,11.9211,11.9209,11.9285,11.9279,11.973,12.102,12.1552,12.2235,12.3297,12.3828,12.3903,12.4131,12.3752,12.4131,12.3603,12.1715,12.0807,12.1718,12.2097,12.2705,12.354,12.4224,12.3312,12.2022,12.1642,12.1034,11.9516,11.9212,11.8832,11.7466,11.739,11.663,11.5185,11.4577,11.3963,11.3336,11.1861,11.0597,10.9155,10.7446,10.5263,11.6706,11.7838,11.7912,11.8665,11.9944,11.9944,11.9943,11.9868,0.0,0.0,0.0,11.9951,11.9944,11.9864,11.9927,11.9915,11.9907,11.9884,11.9871,11.9868,11.9866,11.9868,11.9876,11.9898,11.9913,11.9921,12.0163,12.1082,12.2375,12.2754,12.3595,12.4818,12.4972,12.498,12.4982,12.4982,12.2324,11.716,11.8064,11.9423,12.0787,12.2206,12.3562,12.4945,12.3653,12.2902,12.2838,12.0258,11.8589,11.8285,11.669,11.5627,11.5323,11.5096,11.4492,11.3506,11.3431,11.2977,11.1838,11.1761,11.1764,11.1769,11.3061,11.2454,10.9113,11.01,11.1467,11.291,11.4277,11.5188,11.5491,11.5491,11.5643,11.5871,11.5947,11.5947,11.5947,11.5947,11.6175,11.6402,11.7618,11.8453,11.8908,12.0047,12.0806,12.0807,12.0883,12.0806,12.073,12.0199,11.982,12.0123,12.0123,12.0427,12.0807,12.0883,12.0123,11.8756,11.8377,11.7693,11.6403,11.5947,11.5871,11.5567,11.5491,11.4732,11.3289,11.1847,11.0479,10.9031,10.7425,10.6111,10.5596,10.4271,10.2567,11.5407,0.0,11.6175,11.7162,0.0,11.8677,11.8147,11.739,11.7465,11.7466,11.7465,11.7462,11.7461,11.7537,11.8292,11.8668,11.8664,11.9567,11.9938,11.9929,11.9929,11.9934,11.9944,11.9951,11.9957,11.9961,11.9965,12.0346,12.1106,12.1182,12.1183,12.1185,12.111,12.073,11.9967,11.9888,11.8292,11.495,11.5785,11.6996,11.8585,11.9475,12.0678,12.2283,0.0,0.0,0.0,0.0,0.0,0.0,0.0,0.0,0.0,0.0,0.0,10.8755,10.7853,10.6644,10.5051,10.4905,10.4914,10.4925,10.6452,10.5999,10.2734,10.4785,10.6911,10.8582,10.9417,11.0328,11.1163,11.1239,11.1619,11.2378,11.253,11.291,11.3593,11.3821,11.4125,11.496,11.5795,11.6251,11.6251,11.701,11.7466,11.7466,11.8073,11.8681,11.8605,11.7997,11.7542,11.7466,11.7466,11.7466,11.7466,11.7466,11.7086,11.6479,11.6251,11.5871,11.5188,11.5112,11.4732,11.3897,11.3062,11.1999,11.0328,10.8582,10.7215,10.6379,10.554,10.4542,10.2554,10.1631,10.0779,11.3325,11.3948,11.4035,11.5179,11.6851,11.6247,11.5406,11.4404,11.4872,11.5031,11.5035,11.5111,11.5112,11.5188,11.6403,11.701,11.7008,11.8374,11.9207,11.9427,11.9428,11.9659,11.9893,11.9969,11.997,11.9895,11.9592,11.944,11.944,11.9136,11.8301,11.701,11.7008,11.6322,11.5028,0.0,0.0,0.0,11.4345,11.5181,11.6463,11.6753,11.758,11.8873,11.7642,0.0,11.6876,11.5356,11.3762,11.247,11.2088,0.0,0.0,0.0,0.0,0.0,0.0,0.0,0.0,0.0,0.0,0.0,9.8844,9.8245,9.6424,9.8861,10.1368,10.3342,10.4178,10.5089,10.638,10.6532,10.7215,10.8809,10.8734,10.9265,11.086,11.1087,11.1619,11.2986,11.3441,11.3745,11.3973,11.4428,11.4732,11.5264,11.6175,11.6554,11.5643,11.496,11.4656,11.4656,11.5112,11.5188,11.5112,11.5188,11.5112,11.4125,11.4125,11.3745,11.2986,11.2834,11.2454,11.1315,11.0024,10.8582,10.7291,10.562,10.4557,10.4481,10.4177,10.3188,10.0531,9.9919,9.9908,10.7798,11.048,11.0499,11.2336,11.4928,11.2018,11.1471,11.2761,11.4236,11.493,11.4933,11.5028,11.511,11.5112,11.5264,11.534,11.5415,11.5643,11.6402,11.7693,11.7693,11.8529,11.9895,11.9971,11.9971,11.9895,11.8453,11.7769,11.7693,11.6327,11.5567,11.5413,11.5336,11.5177,11.4776,11.193,11.0573,11.069,11.2142,11.2981,11.3207,11.4489,11.5317,11.5469,11.5316,11.5239,11.5163,11.3646,11.2731,11.2338,11.1046,10.9512,10.7722,10.6038,10.3049,0.0,9.6595,0.0,0.0,0.0,0.0,0.0,0.0,0.0,0.0,9.262,9.514,9.8255,10.114,10.2811,10.3115,10.3039,10.3722,10.5317,10.433,10.4102,10.5696,10.5924,10.6,10.6228,10.7519,10.9113,11.0404,11.1999,11.3441,11.4428,11.4808,11.3517,11.01,11.1087,11.2606,11.2834,11.4125,11.4277,11.4428,11.4732,11.3745,11.1239,11.0632,10.9645,10.7139,10.6607,10.638,10.6152,10.6,10.562,10.5317,10.395,10.2811,10.2735,10.1748,10.0685,10.0077,9.9924,9.9921,10.5443,10.6874,10.6907,10.6591,10.6239,10.5606,10.5853,10.6812,10.8459,10.9247,10.9264,10.9388,10.9483,10.9565,11.04,11.0855,11.1008,11.2832,11.4048,11.4731,11.5719,11.6479,11.7238,11.7238,11.7238,11.7238,11.6479,11.6099,11.6099,11.5415,11.4578,11.3665,11.3575,11.2631,11.0678,10.9148,10.8946,10.9906,11.0759,11.1603,11.252,11.3116,11.3943,11.4779,11.3935,11.3475,11.3475,11.1957,11.1119,11.1034,10.9428,10.7659,10.5937,10.2557,9.8239,0.0,0.0,0.0,0.0,0.0,0.0,0.0,0.0,0.0,0.0,0.0,8.9351,9.1792,9.4987,9.7343,9.8254,9.8331,9.8635,9.9394,9.8787,9.9014,10.0685,10.0913,10.1216,10.2052,10.3646,10.5013,10.5772,10.7291,10.8658,10.9341,10.9493,10.8658,10.6683,10.7291,10.8354,10.8354,10.8961,10.9493,10.9493,10.9417,10.8961,10.7519,10.7215,10.6759,10.5317,10.4937,10.4937,10.4861,10.4178,10.357,10.3494,10.2203,10.1064,10.0913,10.0381,9.9926,9.9926,9.9925,9.9925,10.2257,10.2571,10.1384,9.935,9.709,9.9191,10.0101,10.0415,10.2557,10.3522,10.3555,10.3642,10.3525,10.3158,10.4453,10.5064,10.5218,10.8645,11.0549,11.1461,11.3061,11.4276,11.5036,11.5112,11.5112,11.5036,11.4656,11.4504,11.4428,11.3665,11.2596,11.1299,10.9955,10.8212,10.6174,10.6423,10.7459,10.919,10.9738,11.0591,11.1824,11.1812,11.2411,11.3625,11.2396,11.1779,11.1703,11.0261,10.9194,10.8735,10.6665,10.4353,10.1858,9.7315,0.0,0.0,0.0,0.0,0.0,0.0,0.0,0.0,0.0,7.6806,8.0163,0.0,8.3986,0.0,8.9356,9.187,9.3161,9.3242,0.0,0.0,9.3471,9.3926,9.5597,9.5825,9.6357,9.7951,9.9318,10.0381,10.114,10.2735,10.3494,10.2735,10.2583,10.2583,10.2659,10.2887,10.3191,10.3266,10.357,10.3798,10.3874,10.3798,10.3798,10.3722,10.3722,10.3722,10.3722,10.3798,10.3798,10.3646,10.2659,10.1976,10.1824,10.0837,9.9774,9.8938,9.8711,9.8787,9.8787,9.8711,9.8711,9.5826,9.6818,9.2187,9.0121,9.0168,9.3478,9.4902,9.5151,9.8458,9.9898,9.9987,10.0115,9.9252,9.7817,9.7998,0.0,9.8345,10.1695,10.4898,10.7949,10.9638,11.2072,11.5032,11.5035,11.5112,11.496,11.3516,11.2754,11.2526,10.955,10.8005,10.7588,10.2894,10.1216,10.2461,10.3971,10.5712,10.7502,10.9014,10.9949,11.0063,11.0045,11.0035,11.0261,11.0109,11.0031,10.9955,10.844,10.6764,10.5226,10.2094,9.8106,9.3384,0.0,0.0,0.0,0.0,0.0,0.0,0.0,0.0,0.0,0.0,0.0,0.0,0.0,0.0,0.0,8.5908,0.0,8.8057,8.8067,0.0,0.0,0.0,8.8755,9.0426,9.0657,9.1267,9.2937,0.0,0.0,9.7572,0.0,9.9166,9.6205,9.5825,9.5825,9.5825,9.7344,9.8179,9.8407,9.947,10.0305,10.0305,10.0381,10.0305,10.0305,10.0305,10.0305,10.0305,10.0305,10.0305,10.0305,10.0229,10.0077,10.0077,9.985,9.9014,9.6053,9.5597,9.5522,9.5673,9.5673,9.5749,8.8915,8.5615,8.3718,8.2982,8.3242,8.6656,8.8084,8.8374,9.1861,9.331,9.3277,9.2461,9.1772,9.1015,9.0076,0.0,0.0,0.0,9.847,10.0011,10.3695,10.6136,10.7502,10.8498,10.8955,10.8951,10.8263,10.7423,10.6428,10.5029,10.1766,9.653,0.0,0.0,9.5938,9.8661,10.1931,10.5668,10.7428,10.8727,10.9646,10.9689,10.9743,10.9743,10.9689,10.9248,10.8186,10.6673,10.4541,10.1785,9.7514,9.2832,0.0,0.0,0.0,0.0,0.0,0.0,0.0,0.0,0.0,0.0,0.0,6.7401,6.9785,0.0,0.0,0.0,7.8303,8.0542,8.2688,8.286,0.0,0.0,0.0,0.0,0.0,0.0,0.0,8.7761,8.974,9.1566,9.2786,9.3542,9.3463,9.2175,9.3771,9.5061,9.5061,0.0,9.6049,9.6048,9.658,9.696,9.696,9.696,9.6961,9.6963,9.6964,9.6964,9.6964,9.6964,9.6964,9.6964,9.6964,9.6964,9.6964,9.6964,9.6509,9.5294,9.5066,9.5066,9.5066,9.5066,9.5066,8.0948,0.0,0.0,0.0,0.0,7.9876,8.1446,8.2123,8.5068,8.6285,8.6264,8.4774,0.0,0.0,0.0,0.0,0.0,0.0,9.1172,9.2875,9.7349,10.0031,10.1017,10.2247,10.278,10.2771,10.2232,10.1382,10.007,9.6735,9.1665,8.5126,0.0,0.0,0.0,0.0,9.8032,10.3028,10.5864,10.7985,10.9453,10.9551,10.9514,10.9498,10.9026,10.7779,10.5673,10.3175,9.9987,9.6106,9.0762,0.0,0.0,0.0,0.0,0.0,0.0,0.0,0.0,0.0,0.0,0.0,0.0,0.0,0.0,0.0,0.0,0.0,0.0,0.0,7.7365,7.8079,7.8398,0.0,0.0,0.0,0.0,0.0,0.0,0.0,0.0,0.0,8.7068,8.7512,8.7962,0.0,0.0,9.2833,9.2833,9.3212,9.3591,9.3591,0.0,0.0,0.0,9.2841,9.2695,9.2248,9.2938,9.3927,9.4914,9.5066,9.5066,9.5066,9.5066,9.4383,9.2712,9.2181,9.2105,9.2105,9.2181,9.2105,9.2181,9.2181,9.2105,0.0,0.0,0.0,0.0,0.0,0.0,0.0,0.0,7.8594,7.9429,0.0,7.7802,0.0,0.0,0.0,0.0,0.0,0.0,0.0,0.0,9.0901,9.4357,9.7313,9.7492,9.7578,9.7503,9.5715,9.4846,9.4049,8.3321,0.0,0.0,0.0,0.0,0.0,0.0,9.442,9.9498,10.4373,10.7687,10.9214,10.9295,10.9146,10.9075,10.7644,10.5307,10.205,9.7275,9.235,8.7432,8.093,0.0,0.0,0.0,0.0,0.0,0.0,0.0,0.0,0.0,0.0,0.0,0.0,0.0,0.0,0.0,0.0,0.0,0.0,0.0,0.0,7.3811,0.0,0.0,0.0,0.0,0.0,0.0,0.0,0.0,0.0,0.0,8.0183,8.156,8.3099,8.4711,0.0,0.0,0.0,0.0,8.9939,8.9939,9.0014,8.9417,8.7851,8.7561,8.7047,8.5622,0.0,0.0,9.4458,9.499,9.4838,9.499,9.4686,9.3016,8.6562,8.5726,8.5575,8.5575,8.5726,8.5347,8.5347,8.5954,8.5802,0.0,0.0,0.0,0.0,0.0,0.0,0.0,0.0,0.0,0.0,0.0,7.0709,0.0,0.0,0.0,0.0,0.0,0.0,0.0,0.0,8.2405,8.5188,8.7391,8.8495,8.9028,0.0,8.7239,8.3521,0.0,0.0,0.0,0.0,0.0,0.0,0.0,0.0,9.0474,9.7548,10.2609,10.6417,10.8978,10.8925,10.8836,10.8728,10.7265,10.3422,9.6975,9.2002,8.6484,0.0,0.0,0.0,0.0,0.0,0.0,0.0,0.0,0.0,0.0,0.0,0.0,0.0,0.0,0.0,0.0,0.0,0.0,0.0,0.0,0.0,0.0,0.0,6.8103,0.0,0.0,0.0,0.0,0.0,0.0,0.0,0.0,0.0,7.6437,7.8675,8.07,8.1415,8.3762,8.5498,8.5498,0.0,0.0,0.0,0.0,0.0,0.0,0.0,8.5457,8.5057,8.5925,8.7081,8.8306,8.846,8.846,8.846,0.0,0.0,8.5423,8.4967,8.4967,8.4967,8.4967,8.4967,8.4967,8.4967,8.4967,0.0,0.0,0.0,0.0,0.0,0.0,0.0,0.0,0.0,6.5262,6.5163,0.0,0.0,0.0,0.0,0.0,0.0,0.0,0.0,0.0,0.0,0.0,7.8651,7.9827,0.0,0.0,0.0,0.0,0.0,0.0,0.0,0.0,0.0,0.0,0.0,0.0,8.7514,9.5669,10.1247,10.5634,10.8761,10.8705,10.8548,10.851,10.6456,10.2315,9.578,0.0,0.0,0.0,0.0,0.0,0.0,0.0,0.0,0.0,0.0,0.0,0.0,0.0,0.0,0.0,0.0,0.0,0.0,0.0,0.0,0.0,0.0,0.0,0.0,0.0,6.3461,0.0,0.0,0.0,0.0,0.0,0.0,0.0,0.0,0.0,0.0,0.0,7.7323,7.8562,8.1055,8.2939,8.3459,8.4068,8.4445,0.0,0.0,0.0,0.0,0.0,0.0,0.0,0.0,0.0,0.0,0.0,0.0,0.0,0.0,8.3297,8.3297,8.3297,8.3145,8.2537,0.0,0.0,0.0,0.0,0.0,0.0,0.0,0.0,0.0,0.0,0.0,0.0,0.0,0.0,0.0,0.0,0.0,0.0,5.6123,0.0,0.0,0.0,0.0,0.0,0.0,0.0,0.0,0.0,0.0,0.0,0.0,0.0,0.0,0.0,0.0,0.0,0.0,0.0,0.0,0.0,0.0,8.5533,9.3837,10.0364,10.5274,10.832,10.845,10.8326,10.8074,10.5172,10.185,9.8256,0.0,0.0,0.0,0.0,0.0,0.0,0.0,0.0,0.0,0.0,0.0,0.0,0.0,0.0,0.0,0.0,0.0,0.0,0.0,0.0,0.0,0.0,0.0,0.0,0.0,0.0,6.4083,6.4353,6.4224,0.0,0.0,0.0,0.0,0.0,0.0,0.0,0.0,0.0,0.0,7.8067,7.9653,8.1295,8.295,8.3946,8.3946,8.394,8.3463,8.2003,8.1881,8.1473,0.0,0.0,0.0,0.0,0.0,0.0,0.0,0.0,0.0,0.0,0.0,0.0,0.0,0.0,0.0,0.0,0.0,0.0,0.0,0.0,0.0,0.0,0.0,0.0,0.0,0.0,0.0,0.0,0.0,0.0,0.0,0.0,0.0,0.0,0.0,0.0,0.0,0.0,0.0,0.0,0.0,0.0,0.0,0.0,0.0,0.0,0.0,0.0,0.0,0.0,0.0,0.0,0.0,0.0,8.312,9.3672,9.916,10.4004,10.8385,10.8381,10.7796,10.6558,10.2335,9.7931,0.0,0.0,0.0,0.0,0.0,0.0,0.0,0.0,0.0,0.0,0.0,0.0,0.0,0.0,0.0,0.0,0.0,0.0,0.0,0.0,0.0,0.0,0.0,0.0,0.0,0.0,0.0,0.0,6.0419,6.1435,6.2446,0.0,0.0,0.0,0.0,0.0,0.0,0.0,0.0,0.0,0.0,7.755,7.8069,7.942,8.0491,8.0612,8.0612,8.0512,8.0111,8.0181,8.01,7.9781,0.0,0.0,0.0,0.0,0.0,0.0,0.0,0.0,0.0,0.0,0.0,0.0,0.0,0.0,0.0,0.0,0.0,0.0,0.0,0.0,0.0,0.0,0.0,0.0,0.0,0.0,0.0,0.0,0.0,0.0,0.0,0.0,0.0,0.0,0.0,0.0,0.0,0.0,0.0,0.0,0.0,0.0,0.0,0.0,0.0,0.0,0.0,0.0,0.0,0.0,0.0,0.0,0.0,8.2049,9.3494,9.8501,10.3366,10.8166,10.8319,10.7241,10.4988,10.0212,9.4669,0.0,0.0,0.0,0.0,0.0,0.0,0.0,0.0,0.0,0.0,0.0,0.0,0.0,0.0,0.0,0.0,0.0,0.0,0.0,0.0,0.0,0.0,0.0,0.0,0.0,0.0,0.0,0.0,5.7739,5.9073,5.9898,0.0,0.0,0.0,0.0,0.0,0.0,0.0,0.0,0.0,0.0,7.4882,7.5482,7.6401,0.0,0.0,7.8176,7.8439,7.9168,7.9466,7.9313,7.8856,7.7932,0.0,0.0,0.0,0.0,0.0,0.0,0.0,0.0,0.0,0.0,0.0,0.0,0.0,0.0,0.0,0.0,0.0,0.0,0.0,0.0,0.0,0.0,0.0,0.0,0.0,0.0,0.0,0.0,0.0,0.0,0.0,0.0,0.0,0.0,0.0,0.0,0.0,0.0,0.0,0.0,0.0,0.0,0.0,0.0,0.0,0.0,0.0,0.0,0.0,0.0,0.0,0.0,0.0,9.3014,9.8248,10.3108,10.8064,10.8288,10.6718,10.3268,9.8407,9.1985,0.0,0.0,0.0,0.0,0.0,0.0,0.0,0.0,0.0,0.0,0.0,0.0,0.0,0.0,0.0,0.0,0.0,0.0,0.0,0.0,0.0,0.0,0.0,0.0,0.0,0.0,0.0,0.0,0.0,0.0,0.0,0.0,0.0,0.0,0.0,0.0,0.0,0.0,0.0,0.0,0.0,7.1969,7.3467,7.3901,7.4641,0.0,0.0,7.7042,7.8739,7.9084,7.8682,7.7263,0.0,0.0,0.0,0.0,0.0,0.0,0.0,0.0,0.0,0.0,0.0,0.0,0.0,0.0,0.0,0.0,0.0,0.0,0.0,0.0,0.0,0.0,0.0,0.0,0.0,0.0,0.0,0.0,0.0,0.0,0.0,0.0,0.0,0.0,0.0,0.0,0.0,0.0,0.0,0.0,0.0,0.0,0.0,0.0,0.0,0.0,0.0,0.0,0.0,0.0,0.0,0.0,0.0,0.0,9.1519,9.6622,10.2072,10.7989,10.8288,10.611,10.1613,9.6688,0.0,0.0,0.0,0.0,0.0,0.0,0.0,0.0,0.0,0.0,0.0,0.0,0.0,0.0,0.0,0.0,0.0,0.0,0.0,0.0,0.0,0.0,0.0,0.0,0.0,0.0,0.0,5.2683,0.0,0.0,0.0,0.0,0.0,0.0,0.0,0.0,0.0,0.0,0.0,0.0,0.0,0.0,7.0397,7.204,7.3358,7.4406,0.0,0.0,7.5149,7.5706,7.58,7.5746,0.0,0.0,0.0,0.0,0.0,0.0,0.0,0.0,0.0,0.0,0.0,0.0,0.0,0.0,0.0,0.0,0.0,0.0,0.0,0.0,0.0,0.0,0.0,0.0,0.0,0.0,0.0,0.0,0.0,0.0,0.0,0.0,0.0,0.0,0.0,0.0,0.0,0.0,0.0,0.0,0.0,0.0,0.0,0.0,0.0,0.0,0.0,0.0,0.0,0.0,0.0,0.0,0.0,0.0,7.7514,8.9733,9.565,10.1408,10.7007,10.7915,10.5586,9.9978,9.5715,8.8238,0.0,0.0,0.0,0.0,0.0,0.0,0.0,0.0,0.0,0.0,0.0,0.0,0.0,0.0,0.0,0.0,0.0,0.0,0.0,0.0,0.0,0.0,0.0,0.0,0.0,0.0,0.0,0.0,0.0,0.0,0.0,0.0,0.0,0.0,0.0,0.0,0.0,0.0,0.0,0.0,0.0,0.0,7.0471,7.1613,0.0,0.0,0.0,7.3707,7.4597,0.0,0.0,0.0,0.0,0.0,0.0,0.0,0.0,0.0,0.0,0.0,0.0,0.0,0.0,0.0,0.0,0.0,0.0,0.0,0.0,0.0,0.0,0.0,0.0,0.0,0.0,0.0,0.0,0.0,0.0,0.0,0.0,0.0,0.0,0.0,0.0,0.0,0.0,0.0,0.0,0.0,0.0,0.0,0.0,0.0,0.0,0.0,0.0,0.0,0.0,0.0,0.0,0.0,0.0,0.0,0.0,0.0,8.7797,9.4827,10.0735,10.5736,10.7456,10.5148,9.8716,9.5267,8.7332,0.0,0.0,0.0,0.0,0.0,0.0,0.0,0.0,0.0,0.0,0.0,0.0,0.0,0.0,0.0,0.0,0.0,0.0,0.0,0.0,0.0,0.0,0.0,0.0,0.0,0.0,0.0,0.0,0.0,0.0,0.0,0.0,0.0,0.0,0.0,0.0,0.0,0.0,0.0,0.0,0.0,6.7065,6.8623,6.9112,6.9877,0.0,0.0,7.2437,7.4046,7.4239,0.0,0.0,0.0,0.0,0.0,0.0,0.0,0.0,0.0,0.0,0.0,0.0,0.0,0.0,0.0,0.0,0.0,0.0,0.0,0.0,0.0,0.0,0.0,0.0,0.0,0.0,0.0,0.0,0.0,0.0,0.0,0.0,0.0,0.0,0.0,0.0,0.0,0.0,0.0,0.0,0.0,0.0,0.0,0.0,0.0,0.0,0.0,0.0,0.0,0.0,0.0,0.0,0.0,0.0,0.0,0.0,8.4499,9.2575,9.9613,10.5661,10.7466,10.5148,9.8791,9.5267,8.7332,0.0,0.0,0.0,0.0,0.0,0.0,0.0,0.0,0.0,0.0,0.0,0.0,0.0,0.0,0.0,0.0,0.0,0.0,0.0,0.0,0.0,0.0,0.0,0.0,0.0,0.0,0.0,0.0,0.0,0.0,0.0,0.0,0.0,0.0,0.0,0.0,0.0,0.0,0.0,0.0,0.0,6.3801,6.5412,6.6841,0.0,0.0,0.0,0.0,7.0878,7.096,0.0,0.0,0.0,0.0,0.0,0.0,0.0,0.0,0.0,0.0,0.0,0.0,0.0,0.0,0.0,0.0,0.0,0.0,0.0,0.0,0.0,0.0,0.0,0.0,0.0,0.0,0.0,0.0,0.0,0.0,0.0,0.0,0.0,0.0,0.0,0.0,0.0,0.0,0.0,0.0,0.0,0.0,0.0,0.0,0.0,0.0,0.0,0.0,0.0,0.0,0.0,0.0,0.0,0.0,0.0,0.0,8.0169,8.9891,9.766,10.3333,10.6633,10.5148,9.8791,9.5267,8.7332,0.0,0.0,0.0,0.0,0.0,0.0,0.0,0.0,0.0,0.0,0.0,0.0,0.0,0.0,0.0,0.0,0.0,0.0,0.0,0.0,0.0,0.0,0.0,0.0,0.0,0.0,0.0,0.0,0.0,0.0,0.0,0.0,0.0,0.0,0.0,0.0,0.0,0.0,0.0,0.0,6.227,6.2888,6.4624,0.0,0.0,0.0,0.0,0.0,0.0,7.0001,7.0004,0.0,0.0,0.0,0.0,0.0,0.0,0.0,0.0,0.0,0.0,0.0,0.0,0.0,0.0,0.0,0.0,0.0,0.0,0.0,0.0,0.0,0.0,0.0,0.0,0.0,0.0,0.0,0.0,0.0,0.0,0.0,0.0,0.0,0.0,0.0,0.0,0.0,0.0,0.0,0.0,0.0,0.0,0.0,0.0,0.0,0.0,0.0,0.0,0.0,0.0,0.0,0.0,0.0,0.0,0.0,7.5981,8.7266,9.5631,10.0781,10.5736,10.5148,9.88,9.5052,8.6917,7.41,0.0,0.0,0.0,0.0,0.0,0.0,0.0,0.0,0.0,0.0,0.0,0.0,0.0,0.0,0.0,0.0,0.0,0.0,0.0,0.0,0.0,0.0,0.0,0.0,0.0,0.0,0.0,0.0,0.0,0.0,0.0,0.0,0.0,0.0,0.0,0.0,0.0,0.0,0.0,6.1989,6.2523,0.0,0.0,0.0,0.0,0.0,0.0,0.0,0.0,6.9856,0.0,0.0,0.0,0.0,0.0,0.0,0.0,0.0,0.0,0.0,0.0,0.0,0.0,0.0,0.0,0.0,0.0,0.0,0.0,0.0,0.0,0.0,0.0,0.0,0.0,0.0,0.0,0.0,0.0,0.0,0.0,0.0,0.0,0.0,0.0,0.0,0.0,0.0,0.0,0.0,0.0,0.0,0.0,0.0,0.0,0.0,0.0,0.0,0.0,0.0,0.0,0.0,0.0,0.0,0.0,0.0,8.5687,9.451,10.0706,10.5736,10.5148,9.8725,9.3974,8.5398,7.2526,0.0,0.0,0.0,0.0,0.0,0.0,0.0,0.0,0.0,0.0,0.0,0.0,0.0,0.0,0.0,0.0,0.0,0.0,0.0,0.0,0.0,0.0,0.0,0.0,0.0,0.0,0.0,0.0,0.0,0.0,0.0,0.0,0.0,0.0,0.0,0.0,0.0,0.0,6.0434,6.0431,0.0,0.0,0.0,0.0,0.0,0.0,0.0,0.0,6.9015,0.0,0.0,0.0,0.0,0.0,0.0,0.0,0.0,0.0,0.0,0.0,0.0,0.0,0.0,0.0,0.0,0.0,0.0,0.0,0.0,0.0,0.0,0.0,0.0,0.0,0.0,0.0,0.0,0.0,0.0,0.0,0.0,0.0,0.0,0.0,0.0,0.0,0.0,0.0,0.0,0.0,0.0,0.0,0.0,0.0,0.0,0.0,0.0,0.0,0.0,0.0,0.0,0.0,0.0,0.0,0.0,0.0,0.0,9.2117,9.9454,10.4464,10.4345,9.8641,9.3046,8.3884,0.0,0.0,0.0,0.0,0.0,0.0,0.0,0.0,0.0,0.0,0.0,0.0,0.0,0.0,0.0,0.0,0.0,0.0,0.0,0.0,0.0,0.0,0.0,0.0,0.0,0.0,0.0,0.0,0.0,0.0,0.0,0.0,0.0,0.0,0.0,0.0,0.0,0.0,0.0,0.0,0.0,0.0,0.0,0.0,0.0,0.0,0.0,0.0,0.0,0.0,0.0,0.0,0.0,0.0,0.0,0.0,0.0,0.0,0.0,0.0,0.0,0.0,0.0,0.0,0.0,0.0,0.0,0.0,0.0,0.0,0.0,0.0,0.0,0.0,0.0,0.0,0.0,0.0,0.0,0.0,0.0,0.0,0.0,0.0,0.0,0.0,0.0,0.0,0.0,0.0,0.0,0.0,0.0,0.0,0.0,0.0,0.0,0.0,0.0,0.0,0.0,0.0,0.0,0.0,0.0,0.0,0.0,0.0,8.9667,9.7819,10.3223,10.3561,9.8696,9.2399,8.2879,0.0,0.0,0.0,0.0,0.0,0.0,0.0,0.0,0.0,0.0,0.0,0.0,0.0,0.0,0.0,0.0,0.0,0.0,0.0,0.0,0.0,0.0,0.0,0.0,0.0,0.0,0.0,0.0,0.0,0.0,0.0,0.0,0.0,0.0,0.0,0.0,0.0,0.0,0.0,0.0,0.0,0.0,0.0,0.0,0.0,0.0,0.0,0.0,6.4186,0.0,0.0,0.0,0.0,0.0,0.0,0.0,0.0,0.0,0.0,0.0,0.0,0.0,0.0,0.0,0.0,0.0,0.0,0.0,0.0,0.0,0.0,0.0,0.0,0.0,0.0,0.0,0.0,0.0,0.0,0.0,0.0,0.0,0.0,0.0,0.0,0.0,0.0,0.0,0.0,0.0,0.0,0.0,0.0,0.0,0.0,0.0,0.0,0.0,0.0,0.0,0.0,0.0,0.0,0.0,0.0,0.0,0.0,0.0,8.8013,9.6173,10.2617,10.3563,9.8639,9.2479,8.3026,0.0,0.0,0.0,0.0,0.0,0.0,0.0,0.0,0.0,0.0,0.0,0.0,0.0,0.0,0.0,0.0,0.0,0.0,0.0,0.0,0.0,0.0,0.0,0.0,0.0,0.0,0.0,0.0,0.0,0.0,0.0,0.0,0.0,0.0,0.0,0.0,0.0,0.0,0.0,0.0,0.0,0.0,0.0,0.0,0.0,0.0,0.0,0.0,0.0,0.0,0.0,0.0,0.0,0.0,0.0,0.0,0.0,0.0,0.0,0.0,0.0,0.0,0.0,0.0,0.0,0.0,0.0,0.0,0.0,0.0,0.0,0.0,0.0,0.0,0.0,0.0,0.0,0.0,0.0,0.0,0.0,0.0,0.0,0.0,0.0,0.0,0.0,0.0,0.0,0.0,0.0,0.0,0.0,0.0,0.0,0.0,0.0,0.0,0.0,0.0,0.0,0.0,0.0,0.0,0.0,0.0,0.0,0.0,8.3988,9.3037,9.979,10.098,9.6246,8.9894,8.0725,0.0,0.0,0.0,0.0,0.0,0.0,0.0,0.0,0.0,0.0,0.0,0.0,0.0,0.0,0.0,0.0,0.0,0.0,0.0,0.0,0.0,0.0,0.0,0.0,0.0,0.0,0.0,0.0,0.0,0.0,0.0,0.0,0.0,0.0,0.0,0.0,0.0,0.0,0.0,0.0,0.0,0.0,0.0,0.0,0.0,0.0,0.0,0.0,0.0,0.0,0.0,0.0,0.0,0.0,0.0,0.0,0.0,0.0,0.0,0.0,0.0,0.0,0.0,0.0,0.0,0.0,0.0,0.0,0.0,0.0,0.0,0.0,0.0,0.0,0.0,0.0,0.0,0.0,0.0,0.0,0.0,0.0,0.0,0.0,0.0,0.0,0.0,0.0,0.0,0.0,0.0,0.0,0.0,0.0,0.0,0.0,0.0,0.0,0.0,0.0,0.0,0.0,0.0,0.0,0.0,0.0,0.0,0.0,0.0,8.9574,9.4516,9.5251,9.1756,8.627,7.8063,0.0,0.0,0.0,0.0,0.0,0.0,0.0,0.0,0.0,0.0,0.0,0.0,0.0,0.0,0.0,0.0,0.0,0.0,0.0,0.0,0.0,0.0,0.0,0.0,0.0,0.0,0.0,0.0,0.0,0.0,0.0,0.0,0.0,0.0,0.0,0.0,0.0,0.0,0.0,0.0,0.0,0.0,0.0,0.0,0.0,0.0,0.0,0.0,0.0,0.0,0.0,0.0,0.0,0.0,0.0,0.0,0.0,0.0,0.0,0.0,0.0,0.0,0.0,0.0,0.0,0.0,0.0,0.0,0.0,0.0,0.0,0.0,0.0,0.0,0.0,0.0,0.0,0.0,0.0,0.0,0.0,0.0,0.0,0.0,0.0,0.0,0.0,0.0,0.0,0.0,0.0,0.0,0.0,0.0,0.0,0.0,0.0,0.0,0.0,0.0,0.0,0.0,0.0,0.0,0.0,0.0,0.0,0.0,0.0,8.6641,8.5916,8.5441,8.5026,8.1711,7.5264,0.0,0.0,0.0,0.0,0.0,0.0,0.0,0.0,0.0,0.0,0.0,0.0,0.0,0.0,0.0,0.0,0.0,0.0,0.0,0.0,0.0,0.0,0.0,0.0,0.0,0.0,0.0,0.0,0.0,0.0,0.0,0.0,0.0,0.0,0.0,0.0,0.0,0.0,0.0,0.0,0.0,0.0,0.0,0.0,0.0,0.0,0.0,0.0,0.0,0.0,0.0,0.0,0.0,0.0,0.0,0.0,0.0,0.0,0.0,0.0,0.0,0.0,0.0,0.0,0.0,0.0,0.0,0.0,0.0,0.0,0.0,0.0,0.0,0.0,0.0,0.0,0.0,0.0,0.0,0.0,0.0,0.0,0.0,0.0,0.0,0.0,0.0,0.0,0.0,0.0,0.0,0.0,0.0,0.0,0.0,0.0,0.0,0.0,0.0,0.0,0.0,0.0,0.0,0.0,0.0,0.0,0.0,0.0,0.0,7.4245,7.7076,7.8467,7.8445,7.4237,6.8814,6.209,0.0,0.0,0.0,0.0,0.0,0.0,0.0,0.0,0.0,0.0,0.0,0.0,0.0,0.0,0.0,0.0,0.0,0.0,0.0,0.0,0.0,0.0,0.0,0.0,0.0,0.0,0.0,0.0,0.0,0.0,0.0,0.0,0.0,0.0,0.0,0.0,0.0,0.0,0.0,0.0,0.0,0.0,0.0,0.0,0.0,0.0,0.0,0.0,0.0,0.0,0.0,0.0,0.0,0.0,0.0,0.0,0.0,0.0,0.0,0.0,0.0,0.0,0.0,0.0,0.0,0.0,0.0,0.0,0.0,0.0,0.0,0.0,0.0,0.0,0.0,0.0,0.0,0.0,0.0,0.0,0.0,0.0,0.0,0.0,0.0,0.0,0.0,0.0,0.0,0.0,0.0,0.0,0.0,0.0,0.0,0.0,0.0,0.0,0.0,0.0,0.0,0.0,0.0,0.0,0.0,0.0,0.0,0.0,6.4064,6.815,7.0464,7.0868,6.7166,6.3082,0.0,0.0,0.0,0.0,0.0,0.0,0.0,0.0,0.0,0.0,0.0,0.0,0.0,0.0,0.0,0.0,0.0,0.0,0.0,0.0,0.0,0.0,0.0,0.0,0.0,0.0,0.0,0.0,0.0,0.0,0.0,0.0,0.0,0.0,0.0,0.0,0.0,0.0,0.0,0.0,0.0,0.0,0.0,0.0,0.0,0.0,0.0,0.0,0.0,0.0,0.0,0.0,0.0,0.0,0.0,0.0,0.0,0.0,0.0,0.0,0.0,0.0,0.0,0.0,0.0,0.0,0.0,0.0,0.0,0.0,0.0,0.0,0.0,0.0,0.0,0.0,0.0,0.0,0.0,0.0,0.0,0.0,0.0,0.0,0.0,0.0,0.0,0.0,0.0,0.0,0.0,0.0,0.0,0.0,0.0,0.0,0.0,0.0,0.0,0.0,0.0,0.0,0.0,0.0,0.0,0.0,0.0,0.0,5.241,5.7268,5.9267,6.1178,6.2401,6.1041,5.854,0.0,0.0,0.0,0.0,0.0,0.0,0.0,0.0,0.0,0.0,0.0,0.0,0.0,0.0,0.0,0.0,0.0,0.0,0.0,0.0,0.0,0.0,0.0,0.0,0.0,0.0,0.0,0.0,0.0,0.0,0.0,0.0,0.0,0.0,0.0,0.0,0.0,0.0,0.0,0.0,0.0,0.0,0.0,0.0,0.0,0.0,0.0,0.0,0.0,0.0,0.0,0.0,0.0,0.0,0.0,0.0,0.0,0.0,0.0,0.0,0.0,0.0,0.0,0.0,0.0,0.0,0.0,0.0,0.0,0.0,0.0,0.0,0.0,0.0,0.0,0.0,0.0,0.0,0.0,0.0,0.0,0.0,0.0,0.0,0.0,0.0,0.0,0.0,0.0,0.0,0.0,0.0,0.0,0.0,0.0,0.0,0.0,0.0,0.0,0.0,0.0,0.0,0.0,0.0,0.0,0.0,0.0,0.0,0.0,5.395,0.0,5.6795,0.0,5.5809,5.4441,0.0,0.0,0.0,0.0,0.0,0.0,0.0,0.0,0.0,0.0,0.0,0.0,0.0,0.0,0.0,0.0,0.0,0.0,0.0,0.0,0.0,0.0,0.0,0.0,0.0,0.0,0.0,0.0,0.0,0.0,0.0,0.0,0.0,0.0,0.0,0.0,0.0,0.0,0.0,0.0,0.0,0.0,0.0,0.0,0.0,0.0,0.0,0.0,0.0,0.0,0.0,0.0,0.0,0.0,0.0,0.0,0.0,0.0,0.0,0.0,0.0,0.0,0.0,0.0,0.0,0.0,0.0,0.0,0.0,0.0,0.0,0.0,0.0,0.0,0.0,0.0,0.0,0.0,0.0,0.0,0.0,0.0,0.0,0.0,0.0,0.0,0.0,0.0,0.0,0.0,0.0,0.0,0.0,0.0,0.0,0.0,0.0,0.0,0.0,0.0,0.0,0.0,0.0,0.0,0.0,0.0,0.0,0.0,0.0,5.1546,5.2619,5.3227,5.3147,5.2154,5.1536,0.0,0.0,0.0,0.0,0.0,0.0,0.0,0.0,0.0,0.0,0.0,0.0,0.0,0.0,0.0,0.0,0.0,0.0,0.0,0.0,0.0,0.0,0.0,0.0,0.0,0.0,0.0,0.0,0.0,0.0,0.0,0.0,0.0,0.0,0.0,0.0,0.0,0.0,0.0,0.0,0.0,0.0,0.0,0.0,0.0,0.0,0.0,0.0,0.0,0.0,0.0,0.0,0.0,0.0,0.0,0.0,0.0,0.0,0.0,0.0,0.0,0.0,0.0,0.0,0.0,0.0,0.0,0.0,0.0,0.0,0.0,0.0,0.0,0.0,0.0,0.0,0.0,0.0,0.0,0.0,0.0,0.0,0.0,0.0,0.0,0.0,0.0,0.0,0.0,0.0,0.0,0.0,0.0,0.0,0.0,0.0,0.0,0.0,0.0,0.0,0.0,0.0,0.0,0.0,0.0,0.0,0.0,0.0,0.0,0.0,5.0037,4.9957,5.0019,5.0001,4.99,0.0,0.0,0.0,0.0,0.0,0.0,0.0,0.0,0.0,0.0,0.0,0.0,0.0,0.0,0.0,0.0,0.0,0.0,0.0,0.0,0.0,0.0,0.0,0.0,0.0,0.0,0.0,0.0,0.0,0.0,0.0,0.0,0.0,0.0,0.0,0.0,0.0,0.0,0.0,0.0,0.0,0.0,0.0,0.0,0.0,0.0,0.0,0.0,0.0,0.0,0.0,0.0,0.0,0.0,0.0,0.0,0.0,0.0,0.0,0.0,0.0,0.0,0.0,0.0,0.0,0.0,0.0,0.0,0.0,0.0,0.0,0.0,0.0,0.0,0.0,0.0,0.0,0.0,0.0,0.0,0.0,0.0,0.0,0.0,0.0,0.0,0.0,0.0,0.0,0.0,0.0,0.0,0.0,0.0,0.0,0.0,0.0,0.0,0.0,0.0,0.0,0.0,0.0,0.0,0.0,0.0,0.0,0.0,0.0,0.0,4.9943,0.0,4.9989,4.9873,4.9739,4.9597,0.0,0.0,0.0,0.0,0.0,0.0,0.0,0.0,0.0,0.0,0.0,0.0,0.0,0.0,0.0,0.0,0.0,0.0,0.0,0.0,0.0,0.0,0.0,0.0,0.0,0.0,0.0,0.0,0.0,0.0,0.0,0.0,0.0,0.0,0.0,0.0,0.0,0.0,0.0,0.0,0.0,0.0,0.0,0.0,0.0,0.0,0.0,0.0,0.0,0.0,0.0,0.0,0.0,0.0,0.0,0.0,0.0,0.0,0.0,0.0,0.0,0.0,0.0,0.0,0.0,0.0,0.0,0.0,0.0,0.0,0.0,0.0,0.0,0.0,0.0,0.0,0.0,0.0,0.0,0.0,0.0,0.0,0.0,0.0,0.0,0.0,0.0,0.0,0.0,0.0,0.0,0.0,0.0,0.0,0.0,0.0,0.0,0.0,0.0,0.0,0.0,0.0,0.0,0.0,0.0,0.0,0.0,0.0,0.0,0.0,0.0,4.9831,4.9713,4.9636,0.0,0.0,0.0,0.0,0.0,0.0,0.0,0.0,0.0,0.0,0.0,0.0,0.0,0.0,0.0,0.0,0.0,0.0,0.0,0.0,0.0,0.0,0.0,0.0,0.0,0.0,0.0,0.0,0.0,0.0,0.0,0.0,0.0,0.0,0.0,0.0,0.0,0.0,0.0,0.0,0.0,0.0,0.0,0.0,0.0,0.0,0.0,0.0,0.0,0.0,0.0,0.0,0.0,0.0,0.0,0.0,0.0,0.0,0.0,0.0,0.0,0.0,0.0,0.0,0.0,0.0,0.0,0.0,0.0,0.0,0.0,0.0,0.0,0.0,0.0,0.0,0.0,0.0,0.0,0.0,0.0,0.0,0.0,0.0,0.0,0.0,0.0,0.0,0.0,0.0,0.0,0.0,0.0,0.0,0.0,0.0,0.0,0.0,0.0,0.0,0.0,0.0,0.0,0.0,0.0,0.0,0.0,0.0,0.0,0.0,0.0,4.9675,4.9521,4.9509,0.0,4.9335,0.0,0.0,0.0,0.0,0.0,0.0,0.0,0.0,0.0,0.0,0.0,0.0,0.0,0.0,0.0,0.0,0.0,0.0,0.0,0.0,0.0,0.0,0.0,0.0,0.0,0.0,0.0,0.0,0.0,0.0,0.0,0.0,0.0,0.0,0.0,0.0,0.0,0.0,0.0,0.0,0.0,0.0,0.0,0.0,0.0,0.0,0.0,0.0,0.0,0.0,0.0,0.0,0.0,0.0,0.0,0.0,0.0,0.0,0.0,0.0,0.0,0.0,0.0,0.0,0.0,0.0,0.0,0.0,0.0,0.0,0.0,0.0,0.0,0.0,0.0,0.0,0.0,0.0,0.0,0.0,0.0,0.0,0.0,0.0,0.0,0.0,0.0,0.0,0.0,0.0,0.0,0.0,0.0,0.0,0.0,0.0,0.0,0.0,0.0,0.0,0.0,0.0,0.0,0.0,0.0,0.0,0.0,0.0,0.0,0.0,0.0,0.0,4.9288,4.9273,4.9246,0.0,0.0,0.0,0.0,0.0,0.0,0.0,0.0,0.0,0.0,0.0,0.0,0.0,0.0,0.0,0.0,0.0,0.0,0.0,0.0,0.0,0.0,0.0,0.0,0.0,0.0,0.0,0.0,0.0,0.0,0.0,0.0,0.0,0.0,0.0,0.0,0.0,0.0,0.0,0.0,0.0,0.0,0.0,0.0,0.0,0.0,0.0,0.0,0.0,0.0,0.0,0.0,0.0,0.0,0.0,0.0,0.0,0.0,0.0,0.0,0.0,0.0,0.0,0.0,0.0,0.0,0.0,0.0,0.0,0.0,0.0,0.0,0.0,0.0,0.0,0.0,0.0,0.0,0.0,0.0,0.0,0.0,0.0,0.0,0.0,0.0,0.0,0.0,0.0,0.0,0.0,0.0,0.0,0.0,0.0,0.0,0.0,0.0,0.0,0.0,0.0,0.0,0.0,0.0,0.0,0.0,0.0,0.0,0.0,0.0,4.9242,4.9157,4.9011,4.8996,4.8896,0.0,0.0,0.0,0.0,0.0,0.0,0.0,0.0,0.0,0.0,0.0,0.0,0.0,0.0,0.0,0.0,0.0,0.0,0.0,0.0,0.0,0.0,0.0,0.0,0.0,0.0,0.0,0.0,0.0,0.0,0.0,0.0,0.0,0.0,0.0,0.0,0.0,0.0,0.0,0.0,0.0,0.0,0.0,0.0,0.0,0.0,0.0,0.0,0.0,0.0,0.0,0.0,0.0,0.0,0.0,0.0,0.0,0.0,0.0,0.0,0.0,0.0,0.0,0.0,0.0,0.0,0.0,0.0,0.0,0.0,0.0,0.0,0.0,0.0,0.0,0.0,0.0,0.0,0.0,0.0,0.0,0.0,0.0,0.0,0.0,0.0,0.0,0.0,0.0,0.0,0.0,0.0,0.0,0.0,0.0,0.0,0.0,0.0,0.0,0.0,0.0,0.0,0.0,0.0,0.0,0.0,0.0,0.0,0.0,0.0,0.0,0.0,0.0,0.0,4.8527,0.0,0.0,0.0,0.0,0.0,0.0,0.0,0.0,0.0,0.0,0.0,0.0,0.0,0.0,0.0,0.0,0.0,0.0,0.0,0.0,0.0,0.0,0.0,0.0,0.0,0.0,0.0,0.0,0.0,0.0,0.0,0.0,0.0,0.0,0.0,0.0,0.0,0.0,0.0,0.0,0.0,0.0,0.0,0.0,0.0,0.0,0.0,0.0,0.0,0.0,0.0,0.0,0.0,0.0,0.0,0.0,0.0,0.0,0.0,0.0,0.0,0.0,0.0,0.0,0.0,0.0,0.0,0.0,0.0,0.0,0.0,0.0,0.0,0.0,0.0,0.0,0.0,0.0,0.0,0.0,0.0,0.0,0.0,0.0,0.0,0.0,0.0,0.0,0.0,0.0,0.0,0.0,0.0,0.0,0.0,0.0,0.0,0.0,0.0,0.0,0.0,0.0,0.0,0.0,0.0,0.0,0.0,0.0,0.0,0.0,0.0,0.0,0.0,0.0,0.0,0.0,0.0,0.0,0.0,0.0,0.0,0.0,0.0,0.0,0.0,0.0,0.0,0.0,0.0,0.0,0.0,0.0,0.0,0.0,0.0,0.0,0.0,0.0,0.0,0.0,0.0,0.0,0.0,0.0,0.0,0.0,0.0,0.0,0.0,0.0,0.0,0.0,0.0,0.0,0.0,0.0,0.0,0.0,0.0,0.0,0.0,0.0,0.0,0.0,0.0,0.0,0.0,0.0,0.0,0.0,0.0,0.0,0.0,0.0,0.0,0.0,0.0,0.0,0.0,0.0,0.0,0.0,0.0,0.0,0.0,0.0,0.0,0.0,0.0,0.0,0.0,0.0,0.0,0.0,0.0,0.0,0.0,0.0,0.0,0.0,0.0,0.0,0.0,0.0,0.0,0.0,0.0,0.0,0.0,0.0,0.0,0.0,0.0,0.0,0.0,0.0,0.0,0.0,0.0,0.0,0.0,0.0,0.0,0.0,0.0,0.0,0.0,0.0,0.0,0.0,0.0,0.0,0.0,0.0,0.0,0.0,0.0,0.0,0.0,0.0,0.0,0.0,0.0,0.0,0.0,0.0,0.0,0.0,0.0,0.0,0.0,0.0,0.0,0.0,0.0,0.0,0.0,0.0,0.0,0.0,0.0,0.0,0.0,0.0,0.0,0.0,0.0,0.0,0.0,0.0,0.0,0.0,0.0,0.0,0.0,0.0,0.0,0.0,0.0,0.0,0.0,0.0,0.0,0.0,0.0,0.0,0.0,0.0,0.0,0.0,0.0,0.0,0.0,0.0,0.0,0.0,0.0,0.0,0.0,0.0,0.0,0.0,0.0,0.0,0.0,0.0,0.0,0.0,0.0,0.0,0.0,0.0,0.0,0.0,0.0,0.0,0.0,0.0,0.0,0.0,0.0,0.0,0.0,0.0,0.0,0.0,0.0,0.0,0.0,0.0,0.0,0.0,0.0,0.0,0.0,0.0,0.0,0.0,0.0,0.0,0.0,0.0,0.0,0.0,0.0,0.0,0.0,0.0,0.0,0.0,0.0,0.0,0.0,0.0,0.0,0.0,0.0,0.0,0.0,0.0,0.0,0.0,0.0,0.0,0.0,0.0,0.0,0.0,0.0,0.0,0.0,0.0,0.0,0.0,0.0,0.0,0.0,0.0,0.0,0.0,0.0,0.0,0.0,0.0,0.0,0.0,0.0,0.0,0.0,0.0,0.0,0.0,0.0,0.0,0.0,0.0,0.0,0.0,0.0,0.0,0.0,0.0,0.0,0.0,0.0,0.0,0.0,0.0,0.0,0.0,0.0,0.0,0.0,0.0,0.0,0.0,0.0,0.0,0.0,0.0,0.0,0.0,0.0,0.0,0.0,0.0,0.0,0.0,0.0,0.0,0.0,0.0,0.0,0.0,0.0,0.0,0.0,0.0,0.0,0.0,0.0,0.0,0.0,0.0,0.0,0.0,0.0,0.0,0.0,0.0,0.0,0.0,0.0,0.0,0.0,0.0,0.0,0.0,0.0,0.0,0.0,0.0,0.0,0.0,0.0,0.0,0.0,0.0,0.0,0.0,0.0,0.0,0.0,0.0,0.0,0.0,0.0,0.0,0.0,0.0,0.0,0.0,0.0,0.0,0.0,0.0,0.0,0.0,0.0,0.0,0.0,0.0,0.0,0.0,0.0,0.0,0.0,0.0,0.0,0.0,0.0,0.0,0.0,0.0,0.0,0.0,0.0,0.0,0.0,0.0,0.0,0.0,0.0,0.0,0.0,0.0,0.0,0.0,0.0,0.0,0.0,0.0,0.0,0.0,0.0,0.0,0.0,0.0,0.0,0.0,0.0,0.0,0.0,0.0,0.0,0.0,0.0,0.0,0.0,0.0,0.0,0.0,0.0,0.0,0.0,0.0,0.0,0.0,0.0,0.0,0.0,0.0,0.0,0.0,0.0,0.0,0.0,0.0,0.0,0.0,0.0,0.0,0.0,0.0,0.0,0.0,0.0,0.0,0.0,0.0,0.0,0.0,0.0,0.0,0.0,0.0,0.0,0.0,0.0,0.0,0.0,0.0,0.0,0.0,0.0,0.0,0.0,0.0,0.0,0.0,0.0,0.0,0.0,0.0,0.0,0.0,0.0,0.0,0.0,0.0,0.0,0.0,0.0,0.0,0.0,0.0,0.0,0.0,0.0,0.0,0.0,0.0,0.0,0.0,0.0,0.0,0.0,0.0,0.0,0.0,0.0,0.0,0.0,0.0,0.0,0.0,0.0,0.0,0.0,0.0,0.0,0.0,0.0,0.0,0.0,0.0,0.0,0.0,0.0,0.0,0.0,0.0,0.0,0.0,0.0,0.0,0.0,0.0,0.0,0.0,0.0,0.0,0.0,0.0,0.0,0.0,0.0,0.0,0.0,0.0,0.0,0.0,0.0,0.0,0.0,0.0,0.0,0.0,0.0,0.0,0.0,0.0,0.0,0.0,0.0,0.0,0.0,0.0,0.0,0.0,0.0,0.0,0.0,0.0,0.0,0.0,0.0,0.0,0.0,0.0,0.0,0.0,0.0,0.0,0.0,0.0,0.0,0.0,0.0,0.0,0.0,0.0,0.0,0.0,0.0,0.0,0.0,0.0,0.0,0.0,0.0,0.0,0.0,0.0,0.0,0.0,0.0,0.0,0.0,0.0,0.0,0.0,0.0,0.0,0.0,0.0,0.0,0.0,0.0,0.0,0.0,0.0,0.0,0.0,0.0,0.0,0.0,0.0,0.0,0.0,0.0,0.0,0.0,0.0,0.0,0.0,0.0,0.0,0.0,0.0,0.0,0.0,0.0,0.0,0.0,0.0,0.0,0.0,0.0,0.0,0.0,0.0,0.0,0.0,0.0,0.0,0.0,0.0,0.0,0.0,0.0,0.0,0.0,0.0,0.0,0.0,0.0,0.0,0.0,0.0,0.0,0.0,0.0,0.0,0.0,0.0,0.0,0.0,0.0,0.0,0.0,0.0,0.0,0.0,0.0,0.0,0.0,0.0,0.0,0.0,0.0,0.0,0.0,0.0,0.0,0.0,0.0,0.0,0.0,0.0,0.0,0.0,0.0,0.0,0.0,0.0,0.0,0.0,0.0,0.0,0.0,0.0,0.0,0.0,0.0,0.0,0.0,0.0,0.0,0.0,0.0,0.0,0.0,0.0,0.0,0.0,0.0,0.0,0.0,0.0,0.0,0.0,0.0,0.0,0.0,0.0,0.0,0.0,0.0,0.0,0.0,0.0,0.0,0.0,0.0,0.0,0.0,0.0,0.0,0.0,0.0,0.0,0.0,0.0,0.0,0.0,0.0,0.0,0.0,0.0,0.0,0.0,0.0,0.0,0.0,0.0,0.0,0.0,0.0,0.0,0.0,0.0,0.0,0.0,0.0,0.0,0.0,0.0,0.0,0.0,0.0,0.0,0.0,0.0,0.0,0.0,0.0,0.0,0.0,0.0,0.0,0.0,0.0,0.0,0.0,0.0,0.0,0.0,0.0,0.0,0.0,0.0,0.0,0.0,0.0,0.0,0.0,0.0,0.0,0.0,0.0,0.0,0.0,0.0,0.0,0.0,0.0,0.0,0.0,0.0,0.0,0.0,0.0,0.0,0.0,0.0,0.0,0.0,0.0,0.0,0.0,0.0,0.0,0.0,0.0,0.0,0.0,0.0,0.0,0.0,0.0,0.0,0.0,0.0,0.0,0.0,0.0,0.0,0.0,0.0,0.0,0.0,0.0,0.0,0.0,0.0,0.0,0.0,0.0,0.0,0.0,0.0,0.0,0.0,0.0,0.0,0.0,0.0,0.0,0.0,0.0,0.0,0.0,0.0,0.0,0.0,0.0,0.0]}]]]